<?xml version="1.0" encoding="UTF-8" standalone="no" ?>
<gpx xmlns="http://www.topografix.com/GPX/1/1" xmlns:xsi="http://www.w3.org/2001/XMLSchema-instance" xsi:schemaLocation="http://www.topografix.com/GPX/1/1 http://www.topografix.com/GPX/1/1/gpx.xsd" version="1.1" creator="VisuGPX - https://www.visugpx.com">
  <metadata>
    <name>Aux Sources de l'Aveyron</name>
    <desc><![CDATA[petite remise en jambe sur le Séveragais]]></desc>
  </metadata>
  <trk>
    <name><![CDATA[2016-03-13 15:51:29]]></name>
    <trkseg>
      <trkpt lat="44.32478" lon="3.05729">
        <ele>694.08</ele>
        <time>2016-03-13T09:12:53Z</time>
      </trkpt>
      <trkpt lat="44.32469" lon="3.0574">
        <ele>693.97</ele>
        <time>2016-03-13T09:13:01Z</time>
      </trkpt>
      <trkpt lat="44.32462" lon="3.05749">
        <ele>694.12</ele>
        <time>2016-03-13T09:13:09Z</time>
      </trkpt>
      <trkpt lat="44.32444" lon="3.05757">
        <ele>694.36</ele>
        <time>2016-03-13T09:13:20Z</time>
      </trkpt>
      <trkpt lat="44.32438" lon="3.05763">
        <ele>694.53</ele>
        <time>2016-03-13T09:13:25Z</time>
      </trkpt>
      <trkpt lat="44.32417" lon="3.05776">
        <ele>695.46</ele>
        <time>2016-03-13T09:13:42Z</time>
      </trkpt>
      <trkpt lat="44.32382" lon="3.05783">
        <ele>696.78</ele>
        <time>2016-03-13T09:13:58Z</time>
      </trkpt>
      <trkpt lat="44.32359" lon="3.05801">
        <ele>698.33</ele>
        <time>2016-03-13T09:14:10Z</time>
      </trkpt>
      <trkpt lat="44.32358" lon="3.05802">
        <ele>698.49</ele>
        <time>2016-03-13T09:14:11Z</time>
      </trkpt>
      <trkpt lat="44.3232" lon="3.0582">
        <ele>700.3</ele>
        <time>2016-03-13T09:14:28Z</time>
      </trkpt>
      <trkpt lat="44.32281" lon="3.05827">
        <ele>701.32</ele>
        <time>2016-03-13T09:14:43Z</time>
      </trkpt>
      <trkpt lat="44.32236" lon="3.05834">
        <ele>701.82</ele>
        <time>2016-03-13T09:14:58Z</time>
      </trkpt>
      <trkpt lat="44.3218" lon="3.05839">
        <ele>701.91</ele>
        <time>2016-03-13T09:15:15Z</time>
      </trkpt>
      <trkpt lat="44.32126" lon="3.05829">
        <ele>702.3</ele>
        <time>2016-03-13T09:15:33Z</time>
      </trkpt>
      <trkpt lat="44.32088" lon="3.05835">
        <ele>702.13</ele>
        <time>2016-03-13T09:15:48Z</time>
      </trkpt>
      <trkpt lat="44.32076" lon="3.05836">
        <ele>701.9</ele>
        <time>2016-03-13T09:16:02Z</time>
      </trkpt>
      <trkpt lat="44.32048" lon="3.05864">
        <ele>701.13</ele>
        <time>2016-03-13T09:16:15Z</time>
      </trkpt>
      <trkpt lat="44.32015" lon="3.05897">
        <ele>700.69</ele>
        <time>2016-03-13T09:16:28Z</time>
      </trkpt>
      <trkpt lat="44.31983" lon="3.05939">
        <ele>701.29</ele>
        <time>2016-03-13T09:16:42Z</time>
      </trkpt>
      <trkpt lat="44.31952" lon="3.05981">
        <ele>701.65</ele>
        <time>2016-03-13T09:16:54Z</time>
      </trkpt>
      <trkpt lat="44.31948" lon="3.05984">
        <ele>701.62</ele>
        <time>2016-03-13T09:16:55Z</time>
      </trkpt>
      <trkpt lat="44.31944" lon="3.05987">
        <ele>701.56</ele>
        <time>2016-03-13T09:16:56Z</time>
      </trkpt>
      <trkpt lat="44.31939" lon="3.0599">
        <ele>701.48</ele>
        <time>2016-03-13T09:16:57Z</time>
      </trkpt>
      <trkpt lat="44.31935" lon="3.05992">
        <ele>701.35</ele>
        <time>2016-03-13T09:16:58Z</time>
      </trkpt>
      <trkpt lat="44.3193" lon="3.05993">
        <ele>701.17</ele>
        <time>2016-03-13T09:16:59Z</time>
      </trkpt>
      <trkpt lat="44.31904" lon="3.06006">
        <ele>700.24</ele>
        <time>2016-03-13T09:17:05Z</time>
      </trkpt>
      <trkpt lat="44.319" lon="3.06009">
        <ele>700.12</ele>
        <time>2016-03-13T09:17:06Z</time>
      </trkpt>
      <trkpt lat="44.31897" lon="3.06012">
        <ele>699.99</ele>
        <time>2016-03-13T09:17:07Z</time>
      </trkpt>
      <trkpt lat="44.31893" lon="3.06015">
        <ele>699.89</ele>
        <time>2016-03-13T09:17:08Z</time>
      </trkpt>
      <trkpt lat="44.3189" lon="3.06018">
        <ele>699.81</ele>
        <time>2016-03-13T09:17:09Z</time>
      </trkpt>
      <trkpt lat="44.31839" lon="3.06065">
        <ele>699.83</ele>
        <time>2016-03-13T09:17:25Z</time>
      </trkpt>
      <trkpt lat="44.31797" lon="3.06113">
        <ele>700.06</ele>
        <time>2016-03-13T09:17:40Z</time>
      </trkpt>
      <trkpt lat="44.31763" lon="3.06174">
        <ele>700.27</ele>
        <time>2016-03-13T09:17:55Z</time>
      </trkpt>
      <trkpt lat="44.31733" lon="3.06232">
        <ele>700.32</ele>
        <time>2016-03-13T09:18:09Z</time>
      </trkpt>
      <trkpt lat="44.31713" lon="3.06284">
        <ele>700.63</ele>
        <time>2016-03-13T09:18:22Z</time>
      </trkpt>
      <trkpt lat="44.31698" lon="3.06317">
        <ele>701.22</ele>
        <time>2016-03-13T09:18:31Z</time>
      </trkpt>
      <trkpt lat="44.31691" lon="3.0635">
        <ele>702.33</ele>
        <time>2016-03-13T09:18:41Z</time>
      </trkpt>
      <trkpt lat="44.3169" lon="3.06354">
        <ele>702.61</ele>
        <time>2016-03-13T09:18:43Z</time>
      </trkpt>
      <trkpt lat="44.31685" lon="3.06361">
        <ele>702.98</ele>
        <time>2016-03-13T09:18:47Z</time>
      </trkpt>
      <trkpt lat="44.31646" lon="3.06367">
        <ele>702.6</ele>
        <time>2016-03-13T09:19:00Z</time>
      </trkpt>
      <trkpt lat="44.31609" lon="3.06377">
        <ele>702.24</ele>
        <time>2016-03-13T09:19:12Z</time>
      </trkpt>
      <trkpt lat="44.3159" lon="3.0638">
        <ele>702.33</ele>
        <time>2016-03-13T09:19:22Z</time>
      </trkpt>
      <trkpt lat="44.31588" lon="3.0638">
        <ele>702.37</ele>
        <time>2016-03-13T09:19:35Z</time>
      </trkpt>
      <trkpt lat="44.31585" lon="3.06386">
        <ele>701.92</ele>
        <time>2016-03-13T09:20:54Z</time>
      </trkpt>
      <trkpt lat="44.31584" lon="3.06385">
        <ele>701.92</ele>
        <time>2016-03-13T09:20:55Z</time>
      </trkpt>
      <trkpt lat="44.31583" lon="3.06383">
        <ele>701.92</ele>
        <time>2016-03-13T09:20:56Z</time>
      </trkpt>
      <trkpt lat="44.31581" lon="3.06381">
        <ele>701.91</ele>
        <time>2016-03-13T09:20:57Z</time>
      </trkpt>
      <trkpt lat="44.3158" lon="3.0638">
        <ele>701.89</ele>
        <time>2016-03-13T09:20:58Z</time>
      </trkpt>
      <trkpt lat="44.31578" lon="3.06379">
        <ele>701.85</ele>
        <time>2016-03-13T09:20:59Z</time>
      </trkpt>
      <trkpt lat="44.31577" lon="3.06377">
        <ele>701.81</ele>
        <time>2016-03-13T09:21:00Z</time>
      </trkpt>
      <trkpt lat="44.31575" lon="3.06376">
        <ele>701.78</ele>
        <time>2016-03-13T09:21:01Z</time>
      </trkpt>
      <trkpt lat="44.31574" lon="3.06375">
        <ele>701.74</ele>
        <time>2016-03-13T09:21:02Z</time>
      </trkpt>
      <trkpt lat="44.31572" lon="3.06373">
        <ele>701.72</ele>
        <time>2016-03-13T09:21:03Z</time>
      </trkpt>
      <trkpt lat="44.3157" lon="3.0637">
        <ele>701.7</ele>
        <time>2016-03-13T09:21:04Z</time>
      </trkpt>
      <trkpt lat="44.31532" lon="3.06323">
        <ele>701.78</ele>
        <time>2016-03-13T09:21:20Z</time>
      </trkpt>
      <trkpt lat="44.31512" lon="3.06279">
        <ele>702.4</ele>
        <time>2016-03-13T09:21:34Z</time>
      </trkpt>
      <trkpt lat="44.31511" lon="3.06275">
        <ele>702.79</ele>
        <time>2016-03-13T09:21:37Z</time>
      </trkpt>
      <trkpt lat="44.3151" lon="3.06274">
        <ele>702.88</ele>
        <time>2016-03-13T09:21:38Z</time>
      </trkpt>
      <trkpt lat="44.31509" lon="3.06272">
        <ele>702.93</ele>
        <time>2016-03-13T09:21:39Z</time>
      </trkpt>
      <trkpt lat="44.31505" lon="3.06269">
        <ele>703.03</ele>
        <time>2016-03-13T09:21:50Z</time>
      </trkpt>
      <trkpt lat="44.31506" lon="3.06269">
        <ele>702.93</ele>
        <time>2016-03-13T09:22:06Z</time>
      </trkpt>
      <trkpt lat="44.31505" lon="3.06267">
        <ele>702.98</ele>
        <time>2016-03-13T09:22:13Z</time>
      </trkpt>
      <trkpt lat="44.31503" lon="3.06263">
        <ele>702.91</ele>
        <time>2016-03-13T09:22:20Z</time>
      </trkpt>
      <trkpt lat="44.31502" lon="3.06262">
        <ele>702.89</ele>
        <time>2016-03-13T09:22:21Z</time>
      </trkpt>
      <trkpt lat="44.31501" lon="3.06261">
        <ele>702.89</ele>
        <time>2016-03-13T09:22:22Z</time>
      </trkpt>
      <trkpt lat="44.31499" lon="3.06263">
        <ele>702.86</ele>
        <time>2016-03-13T09:22:23Z</time>
      </trkpt>
      <trkpt lat="44.31497" lon="3.06269">
        <ele>702.75</ele>
        <time>2016-03-13T09:22:25Z</time>
      </trkpt>
      <trkpt lat="44.31497" lon="3.06273">
        <ele>702.65</ele>
        <time>2016-03-13T09:22:26Z</time>
      </trkpt>
      <trkpt lat="44.31498" lon="3.06277">
        <ele>702.54</ele>
        <time>2016-03-13T09:22:27Z</time>
      </trkpt>
      <trkpt lat="44.31499" lon="3.06281">
        <ele>702.43</ele>
        <time>2016-03-13T09:22:28Z</time>
      </trkpt>
      <trkpt lat="44.31508" lon="3.06296">
        <ele>701.71</ele>
        <time>2016-03-13T09:22:36Z</time>
      </trkpt>
      <trkpt lat="44.31509" lon="3.06297">
        <ele>701.7</ele>
        <time>2016-03-13T09:22:37Z</time>
      </trkpt>
      <trkpt lat="44.3151" lon="3.06298">
        <ele>701.71</ele>
        <time>2016-03-13T09:22:38Z</time>
      </trkpt>
      <trkpt lat="44.31512" lon="3.06298">
        <ele>701.75</ele>
        <time>2016-03-13T09:22:39Z</time>
      </trkpt>
      <trkpt lat="44.31514" lon="3.06299">
        <ele>701.79</ele>
        <time>2016-03-13T09:22:40Z</time>
      </trkpt>
      <trkpt lat="44.31516" lon="3.063">
        <ele>701.84</ele>
        <time>2016-03-13T09:22:41Z</time>
      </trkpt>
      <trkpt lat="44.31518" lon="3.06302">
        <ele>701.89</ele>
        <time>2016-03-13T09:22:42Z</time>
      </trkpt>
      <trkpt lat="44.3152" lon="3.06305">
        <ele>701.92</ele>
        <time>2016-03-13T09:22:43Z</time>
      </trkpt>
      <trkpt lat="44.31522" lon="3.06308">
        <ele>701.95</ele>
        <time>2016-03-13T09:22:44Z</time>
      </trkpt>
      <trkpt lat="44.31523" lon="3.06311">
        <ele>701.95</ele>
        <time>2016-03-13T09:22:45Z</time>
      </trkpt>
      <trkpt lat="44.31525" lon="3.06313">
        <ele>701.91</ele>
        <time>2016-03-13T09:22:46Z</time>
      </trkpt>
      <trkpt lat="44.31528" lon="3.06315">
        <ele>701.62</ele>
        <time>2016-03-13T09:22:49Z</time>
      </trkpt>
      <trkpt lat="44.31524" lon="3.06308">
        <ele>701.44</ele>
        <time>2016-03-13T09:22:52Z</time>
      </trkpt>
      <trkpt lat="44.31522" lon="3.06306">
        <ele>701.41</ele>
        <time>2016-03-13T09:22:53Z</time>
      </trkpt>
      <trkpt lat="44.31515" lon="3.06297">
        <ele>701.47</ele>
        <time>2016-03-13T09:22:58Z</time>
      </trkpt>
      <trkpt lat="44.31515" lon="3.06296">
        <ele>701.5</ele>
        <time>2016-03-13T09:22:59Z</time>
      </trkpt>
      <trkpt lat="44.31515" lon="3.06295">
        <ele>701.96</ele>
        <time>2016-03-13T09:23:15Z</time>
      </trkpt>
      <trkpt lat="44.31517" lon="3.06292">
        <ele>701.93</ele>
        <time>2016-03-13T09:23:21Z</time>
      </trkpt>
      <trkpt lat="44.31523" lon="3.06307">
        <ele>701.76</ele>
        <time>2016-03-13T09:23:30Z</time>
      </trkpt>
      <trkpt lat="44.31526" lon="3.06313">
        <ele>701.7</ele>
        <time>2016-03-13T09:23:33Z</time>
      </trkpt>
      <trkpt lat="44.31558" lon="3.06354">
        <ele>700.79</ele>
        <time>2016-03-13T09:23:47Z</time>
      </trkpt>
      <trkpt lat="44.31604" lon="3.06386">
        <ele>700.66</ele>
        <time>2016-03-13T09:24:03Z</time>
      </trkpt>
      <trkpt lat="44.3165" lon="3.06377">
        <ele>700.72</ele>
        <time>2016-03-13T09:24:18Z</time>
      </trkpt>
      <trkpt lat="44.31686" lon="3.06376">
        <ele>700.92</ele>
        <time>2016-03-13T09:24:30Z</time>
      </trkpt>
      <trkpt lat="44.31687" lon="3.06378">
        <ele>700.96</ele>
        <time>2016-03-13T09:24:31Z</time>
      </trkpt>
      <trkpt lat="44.31689" lon="3.06381">
        <ele>701.01</ele>
        <time>2016-03-13T09:24:32Z</time>
      </trkpt>
      <trkpt lat="44.31704" lon="3.06421">
        <ele>701.34</ele>
        <time>2016-03-13T09:24:45Z</time>
      </trkpt>
      <trkpt lat="44.31705" lon="3.06458">
        <ele>701.45</ele>
        <time>2016-03-13T09:24:58Z</time>
      </trkpt>
      <trkpt lat="44.31683" lon="3.06514">
        <ele>701.87</ele>
        <time>2016-03-13T09:25:14Z</time>
      </trkpt>
      <trkpt lat="44.31662" lon="3.06553">
        <ele>702.07</ele>
        <time>2016-03-13T09:25:26Z</time>
      </trkpt>
      <trkpt lat="44.31633" lon="3.06607">
        <ele>702.52</ele>
        <time>2016-03-13T09:25:41Z</time>
      </trkpt>
      <trkpt lat="44.31622" lon="3.06626">
        <ele>702.76</ele>
        <time>2016-03-13T09:25:47Z</time>
      </trkpt>
      <trkpt lat="44.31621" lon="3.06628">
        <ele>702.83</ele>
        <time>2016-03-13T09:25:48Z</time>
      </trkpt>
      <trkpt lat="44.31619" lon="3.06629">
        <ele>702.89</ele>
        <time>2016-03-13T09:25:49Z</time>
      </trkpt>
      <trkpt lat="44.31616" lon="3.0663">
        <ele>702.92</ele>
        <time>2016-03-13T09:25:50Z</time>
      </trkpt>
      <trkpt lat="44.31614" lon="3.06632">
        <ele>702.96</ele>
        <time>2016-03-13T09:25:51Z</time>
      </trkpt>
      <trkpt lat="44.31586" lon="3.06627">
        <ele>703.33</ele>
        <time>2016-03-13T09:26:01Z</time>
      </trkpt>
      <trkpt lat="44.3155" lon="3.06605">
        <ele>704.14</ele>
        <time>2016-03-13T09:26:13Z</time>
      </trkpt>
      <trkpt lat="44.31503" lon="3.0661">
        <ele>704.63</ele>
        <time>2016-03-13T09:26:27Z</time>
      </trkpt>
      <trkpt lat="44.31478" lon="3.06617">
        <ele>704.91</ele>
        <time>2016-03-13T09:26:36Z</time>
      </trkpt>
      <trkpt lat="44.31439" lon="3.06642">
        <ele>706.21</ele>
        <time>2016-03-13T09:26:50Z</time>
      </trkpt>
      <trkpt lat="44.31417" lon="3.06691">
        <ele>707.14</ele>
        <time>2016-03-13T09:27:03Z</time>
      </trkpt>
      <trkpt lat="44.314" lon="3.06734">
        <ele>709.29</ele>
        <time>2016-03-13T09:27:17Z</time>
      </trkpt>
      <trkpt lat="44.31381" lon="3.06742">
        <ele>709.48</ele>
        <time>2016-03-13T09:27:31Z</time>
      </trkpt>
      <trkpt lat="44.31352" lon="3.06758">
        <ele>708.67</ele>
        <time>2016-03-13T09:27:41Z</time>
      </trkpt>
      <trkpt lat="44.31309" lon="3.06775">
        <ele>705.88</ele>
        <time>2016-03-13T09:27:54Z</time>
      </trkpt>
      <trkpt lat="44.31278" lon="3.06766">
        <ele>703.76</ele>
        <time>2016-03-13T09:28:05Z</time>
      </trkpt>
      <trkpt lat="44.31274" lon="3.06767">
        <ele>703.28</ele>
        <time>2016-03-13T09:28:09Z</time>
      </trkpt>
      <trkpt lat="44.31273" lon="3.06768">
        <ele>703.24</ele>
        <time>2016-03-13T09:28:10Z</time>
      </trkpt>
      <trkpt lat="44.31274" lon="3.06766">
        <ele>702.99</ele>
        <time>2016-03-13T09:28:23Z</time>
      </trkpt>
      <trkpt lat="44.31276" lon="3.06765">
        <ele>702.97</ele>
        <time>2016-03-13T09:28:25Z</time>
      </trkpt>
      <trkpt lat="44.31279" lon="3.06762">
        <ele>703.59</ele>
        <time>2016-03-13T09:28:43Z</time>
      </trkpt>
      <trkpt lat="44.31276" lon="3.06764">
        <ele>704.09</ele>
        <time>2016-03-13T09:29:06Z</time>
      </trkpt>
      <trkpt lat="44.31274" lon="3.06762">
        <ele>704</ele>
        <time>2016-03-13T09:29:11Z</time>
      </trkpt>
      <trkpt lat="44.31274" lon="3.0676">
        <ele>703.96</ele>
        <time>2016-03-13T09:29:12Z</time>
      </trkpt>
      <trkpt lat="44.31274" lon="3.06757">
        <ele>703.95</ele>
        <time>2016-03-13T09:29:13Z</time>
      </trkpt>
      <trkpt lat="44.31274" lon="3.06755">
        <ele>703.95</ele>
        <time>2016-03-13T09:29:14Z</time>
      </trkpt>
      <trkpt lat="44.31275" lon="3.06753">
        <ele>703.95</ele>
        <time>2016-03-13T09:29:15Z</time>
      </trkpt>
      <trkpt lat="44.31274" lon="3.06748">
        <ele>703.91</ele>
        <time>2016-03-13T09:29:17Z</time>
      </trkpt>
      <trkpt lat="44.31273" lon="3.06745">
        <ele>703.88</ele>
        <time>2016-03-13T09:29:18Z</time>
      </trkpt>
      <trkpt lat="44.31272" lon="3.06743">
        <ele>703.86</ele>
        <time>2016-03-13T09:29:19Z</time>
      </trkpt>
      <trkpt lat="44.31271" lon="3.0674">
        <ele>703.82</ele>
        <time>2016-03-13T09:29:20Z</time>
      </trkpt>
      <trkpt lat="44.3127" lon="3.06738">
        <ele>703.78</ele>
        <time>2016-03-13T09:29:21Z</time>
      </trkpt>
      <trkpt lat="44.31267" lon="3.06736">
        <ele>703.74</ele>
        <time>2016-03-13T09:29:22Z</time>
      </trkpt>
      <trkpt lat="44.31265" lon="3.06735">
        <ele>703.72</ele>
        <time>2016-03-13T09:29:23Z</time>
      </trkpt>
      <trkpt lat="44.31263" lon="3.06734">
        <ele>703.7</ele>
        <time>2016-03-13T09:29:24Z</time>
      </trkpt>
      <trkpt lat="44.31261" lon="3.06733">
        <ele>703.69</ele>
        <time>2016-03-13T09:29:25Z</time>
      </trkpt>
      <trkpt lat="44.31259" lon="3.06732">
        <ele>703.69</ele>
        <time>2016-03-13T09:29:26Z</time>
      </trkpt>
      <trkpt lat="44.31233" lon="3.0674">
        <ele>704.1</ele>
        <time>2016-03-13T09:29:38Z</time>
      </trkpt>
      <trkpt lat="44.31199" lon="3.06754">
        <ele>704.91</ele>
        <time>2016-03-13T09:29:53Z</time>
      </trkpt>
      <trkpt lat="44.31177" lon="3.06757">
        <ele>705.93</ele>
        <time>2016-03-13T09:30:05Z</time>
      </trkpt>
      <trkpt lat="44.3116" lon="3.06759">
        <ele>707.35</ele>
        <time>2016-03-13T09:30:14Z</time>
      </trkpt>
      <trkpt lat="44.31158" lon="3.06761">
        <ele>707.5</ele>
        <time>2016-03-13T09:30:15Z</time>
      </trkpt>
      <trkpt lat="44.31157" lon="3.06763">
        <ele>707.69</ele>
        <time>2016-03-13T09:30:16Z</time>
      </trkpt>
      <trkpt lat="44.31156" lon="3.06765">
        <ele>708.05</ele>
        <time>2016-03-13T09:30:17Z</time>
      </trkpt>
      <trkpt lat="44.31156" lon="3.06767">
        <ele>708.24</ele>
        <time>2016-03-13T09:30:18Z</time>
      </trkpt>
      <trkpt lat="44.31156" lon="3.06768">
        <ele>708.47</ele>
        <time>2016-03-13T09:30:19Z</time>
      </trkpt>
      <trkpt lat="44.31156" lon="3.06771">
        <ele>708.73</ele>
        <time>2016-03-13T09:30:20Z</time>
      </trkpt>
      <trkpt lat="44.31156" lon="3.06773">
        <ele>709.02</ele>
        <time>2016-03-13T09:30:21Z</time>
      </trkpt>
      <trkpt lat="44.31157" lon="3.06774">
        <ele>709.3</ele>
        <time>2016-03-13T09:30:22Z</time>
      </trkpt>
      <trkpt lat="44.31158" lon="3.06775">
        <ele>709.57</ele>
        <time>2016-03-13T09:30:23Z</time>
      </trkpt>
      <trkpt lat="44.31158" lon="3.06777">
        <ele>709.8</ele>
        <time>2016-03-13T09:30:24Z</time>
      </trkpt>
      <trkpt lat="44.31157" lon="3.06784">
        <ele>710.57</ele>
        <time>2016-03-13T09:30:39Z</time>
      </trkpt>
      <trkpt lat="44.31157" lon="3.06801">
        <ele>710.88</ele>
        <time>2016-03-13T09:31:05Z</time>
      </trkpt>
      <trkpt lat="44.31165" lon="3.06839">
        <ele>710.11</ele>
        <time>2016-03-13T09:31:16Z</time>
      </trkpt>
      <trkpt lat="44.31174" lon="3.06891">
        <ele>709.76</ele>
        <time>2016-03-13T09:31:31Z</time>
      </trkpt>
      <trkpt lat="44.31177" lon="3.06934">
        <ele>709.27</ele>
        <time>2016-03-13T09:31:46Z</time>
      </trkpt>
      <trkpt lat="44.31177" lon="3.0695">
        <ele>709.35</ele>
        <time>2016-03-13T09:31:52Z</time>
      </trkpt>
      <trkpt lat="44.31178" lon="3.06953">
        <ele>709.4</ele>
        <time>2016-03-13T09:31:53Z</time>
      </trkpt>
      <trkpt lat="44.31178" lon="3.06955">
        <ele>709.45</ele>
        <time>2016-03-13T09:31:54Z</time>
      </trkpt>
      <trkpt lat="44.31178" lon="3.0697">
        <ele>711.28</ele>
        <time>2016-03-13T09:32:06Z</time>
      </trkpt>
      <trkpt lat="44.31178" lon="3.06972">
        <ele>711.3</ele>
        <time>2016-03-13T09:32:07Z</time>
      </trkpt>
      <trkpt lat="44.31179" lon="3.06981">
        <ele>711.3</ele>
        <time>2016-03-13T09:32:12Z</time>
      </trkpt>
      <trkpt lat="44.3118" lon="3.06983">
        <ele>711.26</ele>
        <time>2016-03-13T09:32:13Z</time>
      </trkpt>
      <trkpt lat="44.3118" lon="3.06985">
        <ele>711.24</ele>
        <time>2016-03-13T09:32:14Z</time>
      </trkpt>
      <trkpt lat="44.31181" lon="3.06988">
        <ele>711.2</ele>
        <time>2016-03-13T09:32:15Z</time>
      </trkpt>
      <trkpt lat="44.31181" lon="3.06991">
        <ele>711.15</ele>
        <time>2016-03-13T09:32:16Z</time>
      </trkpt>
      <trkpt lat="44.31181" lon="3.06995">
        <ele>711.13</ele>
        <time>2016-03-13T09:32:17Z</time>
      </trkpt>
      <trkpt lat="44.31182" lon="3.06998">
        <ele>711.1</ele>
        <time>2016-03-13T09:32:18Z</time>
      </trkpt>
      <trkpt lat="44.31182" lon="3.07002">
        <ele>711.06</ele>
        <time>2016-03-13T09:32:19Z</time>
      </trkpt>
      <trkpt lat="44.31183" lon="3.07007">
        <ele>711.02</ele>
        <time>2016-03-13T09:32:20Z</time>
      </trkpt>
      <trkpt lat="44.31183" lon="3.0701">
        <ele>711.02</ele>
        <time>2016-03-13T09:32:21Z</time>
      </trkpt>
      <trkpt lat="44.31189" lon="3.07054">
        <ele>711.47</ele>
        <time>2016-03-13T09:32:34Z</time>
      </trkpt>
      <trkpt lat="44.31195" lon="3.07086">
        <ele>711.44</ele>
        <time>2016-03-13T09:32:47Z</time>
      </trkpt>
      <trkpt lat="44.31202" lon="3.07108">
        <ele>711.34</ele>
        <time>2016-03-13T09:32:58Z</time>
      </trkpt>
      <trkpt lat="44.31203" lon="3.0711">
        <ele>711.3</ele>
        <time>2016-03-13T09:32:59Z</time>
      </trkpt>
      <trkpt lat="44.31204" lon="3.07112">
        <ele>711.26</ele>
        <time>2016-03-13T09:33:00Z</time>
      </trkpt>
      <trkpt lat="44.31204" lon="3.07114">
        <ele>711.19</ele>
        <time>2016-03-13T09:33:01Z</time>
      </trkpt>
      <trkpt lat="44.31205" lon="3.07116">
        <ele>711.12</ele>
        <time>2016-03-13T09:33:02Z</time>
      </trkpt>
      <trkpt lat="44.31206" lon="3.07118">
        <ele>711.06</ele>
        <time>2016-03-13T09:33:03Z</time>
      </trkpt>
      <trkpt lat="44.31207" lon="3.0712">
        <ele>710.98</ele>
        <time>2016-03-13T09:33:04Z</time>
      </trkpt>
      <trkpt lat="44.31208" lon="3.07122">
        <ele>710.92</ele>
        <time>2016-03-13T09:33:05Z</time>
      </trkpt>
      <trkpt lat="44.31209" lon="3.07123">
        <ele>710.86</ele>
        <time>2016-03-13T09:33:06Z</time>
      </trkpt>
      <trkpt lat="44.31224" lon="3.0715">
        <ele>710.54</ele>
        <time>2016-03-13T09:33:18Z</time>
      </trkpt>
      <trkpt lat="44.3123" lon="3.07172">
        <ele>710.43</ele>
        <time>2016-03-13T09:33:30Z</time>
      </trkpt>
      <trkpt lat="44.31228" lon="3.07181">
        <ele>710.74</ele>
        <time>2016-03-13T09:33:48Z</time>
      </trkpt>
      <trkpt lat="44.31228" lon="3.07191">
        <ele>710.79</ele>
        <time>2016-03-13T09:33:57Z</time>
      </trkpt>
      <trkpt lat="44.31226" lon="3.07201">
        <ele>710.8</ele>
        <time>2016-03-13T09:34:00Z</time>
      </trkpt>
      <trkpt lat="44.31225" lon="3.0721">
        <ele>710.84</ele>
        <time>2016-03-13T09:34:02Z</time>
      </trkpt>
      <trkpt lat="44.31225" lon="3.07221">
        <ele>711.23</ele>
        <time>2016-03-13T09:34:05Z</time>
      </trkpt>
      <trkpt lat="44.31224" lon="3.07231">
        <ele>712.22</ele>
        <time>2016-03-13T09:34:11Z</time>
      </trkpt>
      <trkpt lat="44.31225" lon="3.07221">
        <ele>712.76</ele>
        <time>2016-03-13T09:34:22Z</time>
      </trkpt>
      <trkpt lat="44.31214" lon="3.0723">
        <ele>711.91</ele>
        <time>2016-03-13T09:34:31Z</time>
      </trkpt>
      <trkpt lat="44.31208" lon="3.07252">
        <ele>714.46</ele>
        <time>2016-03-13T09:34:47Z</time>
      </trkpt>
      <trkpt lat="44.31209" lon="3.07253">
        <ele>714.6</ele>
        <time>2016-03-13T09:34:48Z</time>
      </trkpt>
      <trkpt lat="44.31213" lon="3.07261">
        <ele>715.42</ele>
        <time>2016-03-13T09:35:01Z</time>
      </trkpt>
      <trkpt lat="44.31214" lon="3.07261">
        <ele>715.54</ele>
        <time>2016-03-13T09:35:48Z</time>
      </trkpt>
      <trkpt lat="44.31215" lon="3.07259">
        <ele>715.48</ele>
        <time>2016-03-13T09:36:50Z</time>
      </trkpt>
      <trkpt lat="44.31212" lon="3.07256">
        <ele>715.11</ele>
        <time>2016-03-13T09:37:18Z</time>
      </trkpt>
      <trkpt lat="44.3121" lon="3.07253">
        <ele>714.62</ele>
        <time>2016-03-13T09:38:26Z</time>
      </trkpt>
      <trkpt lat="44.31208" lon="3.07256">
        <ele>714.28</ele>
        <time>2016-03-13T09:38:56Z</time>
      </trkpt>
      <trkpt lat="44.31211" lon="3.07255">
        <ele>713.68</ele>
        <time>2016-03-13T09:39:48Z</time>
      </trkpt>
      <trkpt lat="44.31211" lon="3.07255">
        <ele>712.81</ele>
        <time>2016-03-13T09:40:56Z</time>
      </trkpt>
      <trkpt lat="44.3121" lon="3.07254">
        <ele>712.26</ele>
        <time>2016-03-13T09:41:40Z</time>
      </trkpt>
      <trkpt lat="44.31211" lon="3.0725">
        <ele>712.08</ele>
        <time>2016-03-13T09:42:11Z</time>
      </trkpt>
      <trkpt lat="44.31209" lon="3.07245">
        <ele>711.55</ele>
        <time>2016-03-13T09:43:27Z</time>
      </trkpt>
      <trkpt lat="44.3121" lon="3.07251">
        <ele>710.98</ele>
        <time>2016-03-13T09:43:49Z</time>
      </trkpt>
      <trkpt lat="44.31217" lon="3.07256">
        <ele>710.6</ele>
        <time>2016-03-13T09:44:02Z</time>
      </trkpt>
      <trkpt lat="44.31215" lon="3.07256">
        <ele>710.74</ele>
        <time>2016-03-13T09:44:13Z</time>
      </trkpt>
      <trkpt lat="44.31207" lon="3.07253">
        <ele>710.57</ele>
        <time>2016-03-13T09:44:18Z</time>
      </trkpt>
      <trkpt lat="44.31205" lon="3.07253">
        <ele>710.56</ele>
        <time>2016-03-13T09:44:19Z</time>
      </trkpt>
      <trkpt lat="44.31176" lon="3.07249">
        <ele>710.08</ele>
        <time>2016-03-13T09:44:34Z</time>
      </trkpt>
      <trkpt lat="44.31178" lon="3.07253">
        <ele>709.96</ele>
        <time>2016-03-13T09:44:43Z</time>
      </trkpt>
      <trkpt lat="44.31186" lon="3.07248">
        <ele>709.88</ele>
        <time>2016-03-13T09:44:48Z</time>
      </trkpt>
      <trkpt lat="44.31188" lon="3.07248">
        <ele>709.88</ele>
        <time>2016-03-13T09:44:49Z</time>
      </trkpt>
      <trkpt lat="44.3119" lon="3.07248">
        <ele>709.9</ele>
        <time>2016-03-13T09:44:50Z</time>
      </trkpt>
      <trkpt lat="44.31193" lon="3.07249">
        <ele>709.92</ele>
        <time>2016-03-13T09:44:51Z</time>
      </trkpt>
      <trkpt lat="44.31195" lon="3.07249">
        <ele>709.9</ele>
        <time>2016-03-13T09:44:52Z</time>
      </trkpt>
      <trkpt lat="44.31197" lon="3.07249">
        <ele>709.9</ele>
        <time>2016-03-13T09:44:53Z</time>
      </trkpt>
      <trkpt lat="44.31199" lon="3.07249">
        <ele>709.9</ele>
        <time>2016-03-13T09:44:54Z</time>
      </trkpt>
      <trkpt lat="44.31223" lon="3.07255">
        <ele>710.14</ele>
        <time>2016-03-13T09:45:05Z</time>
      </trkpt>
      <trkpt lat="44.31225" lon="3.07255">
        <ele>710.16</ele>
        <time>2016-03-13T09:45:06Z</time>
      </trkpt>
      <trkpt lat="44.31227" lon="3.07255">
        <ele>710.19</ele>
        <time>2016-03-13T09:45:07Z</time>
      </trkpt>
      <trkpt lat="44.3127" lon="3.07269">
        <ele>710.61</ele>
        <time>2016-03-13T09:45:24Z</time>
      </trkpt>
      <trkpt lat="44.31299" lon="3.07278">
        <ele>711.45</ele>
        <time>2016-03-13T09:45:36Z</time>
      </trkpt>
      <trkpt lat="44.31334" lon="3.07284">
        <ele>712.69</ele>
        <time>2016-03-13T09:45:51Z</time>
      </trkpt>
      <trkpt lat="44.31353" lon="3.07295">
        <ele>713.56</ele>
        <time>2016-03-13T09:46:06Z</time>
      </trkpt>
      <trkpt lat="44.31364" lon="3.07298">
        <ele>713.47</ele>
        <time>2016-03-13T09:46:28Z</time>
      </trkpt>
      <trkpt lat="44.31407" lon="3.07308">
        <ele>714.45</ele>
        <time>2016-03-13T09:46:42Z</time>
      </trkpt>
      <trkpt lat="44.31464" lon="3.07322">
        <ele>715.95</ele>
        <time>2016-03-13T09:47:00Z</time>
      </trkpt>
      <trkpt lat="44.31479" lon="3.07338">
        <ele>716.6</ele>
        <time>2016-03-13T09:47:08Z</time>
      </trkpt>
      <trkpt lat="44.31478" lon="3.07341">
        <ele>716.65</ele>
        <time>2016-03-13T09:47:09Z</time>
      </trkpt>
      <trkpt lat="44.31476" lon="3.07344">
        <ele>716.67</ele>
        <time>2016-03-13T09:47:10Z</time>
      </trkpt>
      <trkpt lat="44.31473" lon="3.07347">
        <ele>716.62</ele>
        <time>2016-03-13T09:47:11Z</time>
      </trkpt>
      <trkpt lat="44.3147" lon="3.07349">
        <ele>716.55</ele>
        <time>2016-03-13T09:47:12Z</time>
      </trkpt>
      <trkpt lat="44.31446" lon="3.0737">
        <ele>715.75</ele>
        <time>2016-03-13T09:47:19Z</time>
      </trkpt>
      <trkpt lat="44.31397" lon="3.07417">
        <ele>714.03</ele>
        <time>2016-03-13T09:47:34Z</time>
      </trkpt>
      <trkpt lat="44.31345" lon="3.07451">
        <ele>712.8</ele>
        <time>2016-03-13T09:47:49Z</time>
      </trkpt>
      <trkpt lat="44.313" lon="3.07484">
        <ele>711.6</ele>
        <time>2016-03-13T09:48:01Z</time>
      </trkpt>
      <trkpt lat="44.31268" lon="3.07517">
        <ele>711.09</ele>
        <time>2016-03-13T09:48:12Z</time>
      </trkpt>
      <trkpt lat="44.31236" lon="3.0757">
        <ele>710.7</ele>
        <time>2016-03-13T09:48:26Z</time>
      </trkpt>
      <trkpt lat="44.31214" lon="3.07599">
        <ele>710.69</ele>
        <time>2016-03-13T09:48:36Z</time>
      </trkpt>
      <trkpt lat="44.31188" lon="3.07612">
        <ele>710.55</ele>
        <time>2016-03-13T09:48:47Z</time>
      </trkpt>
      <trkpt lat="44.31167" lon="3.0765">
        <ele>711.06</ele>
        <time>2016-03-13T09:49:00Z</time>
      </trkpt>
      <trkpt lat="44.31165" lon="3.07654">
        <ele>711.1</ele>
        <time>2016-03-13T09:49:02Z</time>
      </trkpt>
      <trkpt lat="44.31162" lon="3.0766">
        <ele>711.32</ele>
        <time>2016-03-13T09:49:15Z</time>
      </trkpt>
      <trkpt lat="44.31161" lon="3.07662">
        <ele>711.51</ele>
        <time>2016-03-13T09:49:41Z</time>
      </trkpt>
      <trkpt lat="44.31154" lon="3.07669">
        <ele>711.53</ele>
        <time>2016-03-13T09:49:45Z</time>
      </trkpt>
      <trkpt lat="44.31128" lon="3.07684">
        <ele>711.82</ele>
        <time>2016-03-13T09:49:57Z</time>
      </trkpt>
      <trkpt lat="44.31112" lon="3.07697">
        <ele>713.28</ele>
        <time>2016-03-13T09:50:08Z</time>
      </trkpt>
      <trkpt lat="44.31102" lon="3.07711">
        <ele>714.37</ele>
        <time>2016-03-13T09:50:16Z</time>
      </trkpt>
      <trkpt lat="44.31099" lon="3.07713">
        <ele>714.66</ele>
        <time>2016-03-13T09:50:18Z</time>
      </trkpt>
      <trkpt lat="44.31087" lon="3.07733">
        <ele>716.83</ele>
        <time>2016-03-13T09:50:30Z</time>
      </trkpt>
      <trkpt lat="44.31076" lon="3.07748">
        <ele>718.59</ele>
        <time>2016-03-13T09:50:39Z</time>
      </trkpt>
      <trkpt lat="44.3107" lon="3.07757">
        <ele>719.75</ele>
        <time>2016-03-13T09:50:44Z</time>
      </trkpt>
      <trkpt lat="44.31055" lon="3.07783">
        <ele>722.02</ele>
        <time>2016-03-13T09:50:58Z</time>
      </trkpt>
      <trkpt lat="44.31039" lon="3.07809">
        <ele>723.04</ele>
        <time>2016-03-13T09:51:09Z</time>
      </trkpt>
      <trkpt lat="44.31022" lon="3.07833">
        <ele>724.92</ele>
        <time>2016-03-13T09:51:21Z</time>
      </trkpt>
      <trkpt lat="44.31019" lon="3.0784">
        <ele>725.01</ele>
        <time>2016-03-13T09:51:23Z</time>
      </trkpt>
      <trkpt lat="44.31008" lon="3.07866">
        <ele>724.55</ele>
        <time>2016-03-13T09:51:34Z</time>
      </trkpt>
      <trkpt lat="44.31002" lon="3.07888">
        <ele>723.8</ele>
        <time>2016-03-13T09:51:41Z</time>
      </trkpt>
      <trkpt lat="44.31" lon="3.0791">
        <ele>722.48</ele>
        <time>2016-03-13T09:51:49Z</time>
      </trkpt>
      <trkpt lat="44.31" lon="3.07916">
        <ele>722.25</ele>
        <time>2016-03-13T09:51:51Z</time>
      </trkpt>
      <trkpt lat="44.30996" lon="3.0794">
        <ele>720.78</ele>
        <time>2016-03-13T09:51:59Z</time>
      </trkpt>
      <trkpt lat="44.30988" lon="3.07972">
        <ele>719.95</ele>
        <time>2016-03-13T09:52:07Z</time>
      </trkpt>
      <trkpt lat="44.30985" lon="3.08013">
        <ele>719.38</ele>
        <time>2016-03-13T09:52:19Z</time>
      </trkpt>
      <trkpt lat="44.30968" lon="3.08052">
        <ele>719.36</ele>
        <time>2016-03-13T09:52:29Z</time>
      </trkpt>
      <trkpt lat="44.30963" lon="3.08061">
        <ele>719.37</ele>
        <time>2016-03-13T09:52:32Z</time>
      </trkpt>
      <trkpt lat="44.30946" lon="3.08099">
        <ele>719.47</ele>
        <time>2016-03-13T09:52:44Z</time>
      </trkpt>
      <trkpt lat="44.30934" lon="3.08147">
        <ele>720.98</ele>
        <time>2016-03-13T09:52:59Z</time>
      </trkpt>
      <trkpt lat="44.30927" lon="3.08186">
        <ele>721.89</ele>
        <time>2016-03-13T09:53:11Z</time>
      </trkpt>
      <trkpt lat="44.30926" lon="3.08197">
        <ele>722.45</ele>
        <time>2016-03-13T09:53:14Z</time>
      </trkpt>
      <trkpt lat="44.30916" lon="3.08207">
        <ele>722.97</ele>
        <time>2016-03-13T09:53:19Z</time>
      </trkpt>
      <trkpt lat="44.3088" lon="3.08214">
        <ele>725.64</ele>
        <time>2016-03-13T09:53:34Z</time>
      </trkpt>
      <trkpt lat="44.30879" lon="3.08215">
        <ele>725.93</ele>
        <time>2016-03-13T09:53:35Z</time>
      </trkpt>
      <trkpt lat="44.30878" lon="3.08226">
        <ele>727.6</ele>
        <time>2016-03-13T09:53:41Z</time>
      </trkpt>
      <trkpt lat="44.30879" lon="3.08249">
        <ele>728.62</ele>
        <time>2016-03-13T09:53:52Z</time>
      </trkpt>
      <trkpt lat="44.30878" lon="3.08253">
        <ele>729.2</ele>
        <time>2016-03-13T09:54:13Z</time>
      </trkpt>
      <trkpt lat="44.30887" lon="3.08281">
        <ele>728.62</ele>
        <time>2016-03-13T09:54:28Z</time>
      </trkpt>
      <trkpt lat="44.30896" lon="3.08318">
        <ele>727.38</ele>
        <time>2016-03-13T09:54:38Z</time>
      </trkpt>
      <trkpt lat="44.30907" lon="3.08353">
        <ele>727.29</ele>
        <time>2016-03-13T09:54:48Z</time>
      </trkpt>
      <trkpt lat="44.30915" lon="3.08389">
        <ele>726.97</ele>
        <time>2016-03-13T09:54:57Z</time>
      </trkpt>
      <trkpt lat="44.30925" lon="3.08436">
        <ele>727.32</ele>
        <time>2016-03-13T09:55:08Z</time>
      </trkpt>
      <trkpt lat="44.30926" lon="3.0845">
        <ele>727.56</ele>
        <time>2016-03-13T09:55:12Z</time>
      </trkpt>
      <trkpt lat="44.30929" lon="3.08465">
        <ele>727.63</ele>
        <time>2016-03-13T09:55:16Z</time>
      </trkpt>
      <trkpt lat="44.3093" lon="3.08477">
        <ele>727.45</ele>
        <time>2016-03-13T09:55:19Z</time>
      </trkpt>
      <trkpt lat="44.30934" lon="3.08505">
        <ele>726.86</ele>
        <time>2016-03-13T09:55:26Z</time>
      </trkpt>
      <trkpt lat="44.30935" lon="3.08513">
        <ele>726.79</ele>
        <time>2016-03-13T09:55:28Z</time>
      </trkpt>
      <trkpt lat="44.30928" lon="3.08552">
        <ele>726.59</ele>
        <time>2016-03-13T09:55:38Z</time>
      </trkpt>
      <trkpt lat="44.30926" lon="3.08554">
        <ele>726.59</ele>
        <time>2016-03-13T09:55:39Z</time>
      </trkpt>
      <trkpt lat="44.3093" lon="3.08582">
        <ele>727.29</ele>
        <time>2016-03-13T09:55:52Z</time>
      </trkpt>
      <trkpt lat="44.30927" lon="3.08593">
        <ele>727.92</ele>
        <time>2016-03-13T09:56:07Z</time>
      </trkpt>
      <trkpt lat="44.3093" lon="3.08593">
        <ele>728.04</ele>
        <time>2016-03-13T09:56:37Z</time>
      </trkpt>
      <trkpt lat="44.30933" lon="3.08593">
        <ele>728.08</ele>
        <time>2016-03-13T09:56:40Z</time>
      </trkpt>
      <trkpt lat="44.30938" lon="3.08594">
        <ele>727.93</ele>
        <time>2016-03-13T09:56:43Z</time>
      </trkpt>
      <trkpt lat="44.3097" lon="3.08609">
        <ele>727.29</ele>
        <time>2016-03-13T09:56:58Z</time>
      </trkpt>
      <trkpt lat="44.30994" lon="3.08635">
        <ele>727.48</ele>
        <time>2016-03-13T09:57:10Z</time>
      </trkpt>
      <trkpt lat="44.30997" lon="3.08639">
        <ele>727.64</ele>
        <time>2016-03-13T09:57:12Z</time>
      </trkpt>
      <trkpt lat="44.3102" lon="3.08663">
        <ele>728.97</ele>
        <time>2016-03-13T09:57:24Z</time>
      </trkpt>
      <trkpt lat="44.31045" lon="3.0869">
        <ele>729.76</ele>
        <time>2016-03-13T09:57:37Z</time>
      </trkpt>
      <trkpt lat="44.31046" lon="3.08692">
        <ele>729.81</ele>
        <time>2016-03-13T09:57:38Z</time>
      </trkpt>
      <trkpt lat="44.31055" lon="3.08704">
        <ele>730.25</ele>
        <time>2016-03-13T09:57:43Z</time>
      </trkpt>
      <trkpt lat="44.31075" lon="3.0874">
        <ele>731.15</ele>
        <time>2016-03-13T09:57:55Z</time>
      </trkpt>
      <trkpt lat="44.31098" lon="3.08785">
        <ele>732.59</ele>
        <time>2016-03-13T09:58:09Z</time>
      </trkpt>
      <trkpt lat="44.31115" lon="3.08814">
        <ele>733.73</ele>
        <time>2016-03-13T09:58:19Z</time>
      </trkpt>
      <trkpt lat="44.31123" lon="3.08837">
        <ele>734.18</ele>
        <time>2016-03-13T09:58:27Z</time>
      </trkpt>
      <trkpt lat="44.31127" lon="3.08845">
        <ele>734.48</ele>
        <time>2016-03-13T09:58:30Z</time>
      </trkpt>
      <trkpt lat="44.31139" lon="3.08881">
        <ele>735.42</ele>
        <time>2016-03-13T09:58:42Z</time>
      </trkpt>
      <trkpt lat="44.3115" lon="3.08924">
        <ele>736.91</ele>
        <time>2016-03-13T09:58:55Z</time>
      </trkpt>
      <trkpt lat="44.31155" lon="3.08955">
        <ele>738.3</ele>
        <time>2016-03-13T09:59:07Z</time>
      </trkpt>
      <trkpt lat="44.31163" lon="3.08979">
        <ele>739.68</ele>
        <time>2016-03-13T09:59:18Z</time>
      </trkpt>
      <trkpt lat="44.31171" lon="3.09012">
        <ele>741.07</ele>
        <time>2016-03-13T09:59:31Z</time>
      </trkpt>
      <trkpt lat="44.31174" lon="3.09031">
        <ele>741.41</ele>
        <time>2016-03-13T09:59:39Z</time>
      </trkpt>
      <trkpt lat="44.31179" lon="3.09045">
        <ele>742.13</ele>
        <time>2016-03-13T09:59:46Z</time>
      </trkpt>
      <trkpt lat="44.31186" lon="3.09062">
        <ele>742.98</ele>
        <time>2016-03-13T09:59:54Z</time>
      </trkpt>
      <trkpt lat="44.31196" lon="3.09082">
        <ele>743.52</ele>
        <time>2016-03-13T10:00:03Z</time>
      </trkpt>
      <trkpt lat="44.31212" lon="3.09119">
        <ele>743.45</ele>
        <time>2016-03-13T10:00:17Z</time>
      </trkpt>
      <trkpt lat="44.31231" lon="3.09164">
        <ele>743.95</ele>
        <time>2016-03-13T10:00:32Z</time>
      </trkpt>
      <trkpt lat="44.31238" lon="3.09196">
        <ele>743.76</ele>
        <time>2016-03-13T10:00:42Z</time>
      </trkpt>
      <trkpt lat="44.31241" lon="3.09209">
        <ele>743.92</ele>
        <time>2016-03-13T10:00:46Z</time>
      </trkpt>
      <trkpt lat="44.31242" lon="3.09212">
        <ele>744.04</ele>
        <time>2016-03-13T10:00:47Z</time>
      </trkpt>
      <trkpt lat="44.31243" lon="3.09216">
        <ele>744.23</ele>
        <time>2016-03-13T10:00:48Z</time>
      </trkpt>
      <trkpt lat="44.31244" lon="3.09219">
        <ele>744.43</ele>
        <time>2016-03-13T10:00:49Z</time>
      </trkpt>
      <trkpt lat="44.31244" lon="3.09222">
        <ele>744.6</ele>
        <time>2016-03-13T10:00:50Z</time>
      </trkpt>
      <trkpt lat="44.31244" lon="3.09225">
        <ele>744.74</ele>
        <time>2016-03-13T10:00:51Z</time>
      </trkpt>
      <trkpt lat="44.31245" lon="3.09228">
        <ele>744.85</ele>
        <time>2016-03-13T10:00:52Z</time>
      </trkpt>
      <trkpt lat="44.31247" lon="3.09232">
        <ele>744.94</ele>
        <time>2016-03-13T10:00:53Z</time>
      </trkpt>
      <trkpt lat="44.31248" lon="3.09236">
        <ele>745</ele>
        <time>2016-03-13T10:00:54Z</time>
      </trkpt>
      <trkpt lat="44.31249" lon="3.0924">
        <ele>745.07</ele>
        <time>2016-03-13T10:00:55Z</time>
      </trkpt>
      <trkpt lat="44.3125" lon="3.09245">
        <ele>745.1</ele>
        <time>2016-03-13T10:00:56Z</time>
      </trkpt>
      <trkpt lat="44.31251" lon="3.09249">
        <ele>745.13</ele>
        <time>2016-03-13T10:00:57Z</time>
      </trkpt>
      <trkpt lat="44.31267" lon="3.09296">
        <ele>746.21</ele>
        <time>2016-03-13T10:01:10Z</time>
      </trkpt>
      <trkpt lat="44.31276" lon="3.09316">
        <ele>745.89</ele>
        <time>2016-03-13T10:01:17Z</time>
      </trkpt>
      <trkpt lat="44.31277" lon="3.0932">
        <ele>745.83</ele>
        <time>2016-03-13T10:01:18Z</time>
      </trkpt>
      <trkpt lat="44.31279" lon="3.09324">
        <ele>745.77</ele>
        <time>2016-03-13T10:01:19Z</time>
      </trkpt>
      <trkpt lat="44.3129" lon="3.09355">
        <ele>745.61</ele>
        <time>2016-03-13T10:01:29Z</time>
      </trkpt>
      <trkpt lat="44.31292" lon="3.0936">
        <ele>745.57</ele>
        <time>2016-03-13T10:01:31Z</time>
      </trkpt>
      <trkpt lat="44.31292" lon="3.09363">
        <ele>745.56</ele>
        <time>2016-03-13T10:01:32Z</time>
      </trkpt>
      <trkpt lat="44.31293" lon="3.09366">
        <ele>745.56</ele>
        <time>2016-03-13T10:01:33Z</time>
      </trkpt>
      <trkpt lat="44.31294" lon="3.09369">
        <ele>745.57</ele>
        <time>2016-03-13T10:01:34Z</time>
      </trkpt>
      <trkpt lat="44.31295" lon="3.09372">
        <ele>745.6</ele>
        <time>2016-03-13T10:01:35Z</time>
      </trkpt>
      <trkpt lat="44.31296" lon="3.09387">
        <ele>745.8</ele>
        <time>2016-03-13T10:01:49Z</time>
      </trkpt>
      <trkpt lat="44.31299" lon="3.09391">
        <ele>745.64</ele>
        <time>2016-03-13T10:02:07Z</time>
      </trkpt>
      <trkpt lat="44.31299" lon="3.09395">
        <ele>745.32</ele>
        <time>2016-03-13T10:02:48Z</time>
      </trkpt>
      <trkpt lat="44.31305" lon="3.09391">
        <ele>745.07</ele>
        <time>2016-03-13T10:03:43Z</time>
      </trkpt>
      <trkpt lat="44.31304" lon="3.09386">
        <ele>744.87</ele>
        <time>2016-03-13T10:04:16Z</time>
      </trkpt>
      <trkpt lat="44.31298" lon="3.09389">
        <ele>744.37</ele>
        <time>2016-03-13T10:05:23Z</time>
      </trkpt>
      <trkpt lat="44.31303" lon="3.09397">
        <ele>744.05</ele>
        <time>2016-03-13T10:05:45Z</time>
      </trkpt>
      <trkpt lat="44.31311" lon="3.09417">
        <ele>744.48</ele>
        <time>2016-03-13T10:06:00Z</time>
      </trkpt>
      <trkpt lat="44.31312" lon="3.09416">
        <ele>744.77</ele>
        <time>2016-03-13T10:06:21Z</time>
      </trkpt>
      <trkpt lat="44.31313" lon="3.09421">
        <ele>745.07</ele>
        <time>2016-03-13T10:06:27Z</time>
      </trkpt>
      <trkpt lat="44.31314" lon="3.09423">
        <ele>745.23</ele>
        <time>2016-03-13T10:06:42Z</time>
      </trkpt>
      <trkpt lat="44.31312" lon="3.09424">
        <ele>744.82</ele>
        <time>2016-03-13T10:07:13Z</time>
      </trkpt>
      <trkpt lat="44.31313" lon="3.09424">
        <ele>743.64</ele>
        <time>2016-03-13T10:07:41Z</time>
      </trkpt>
      <trkpt lat="44.31315" lon="3.09424">
        <ele>743.65</ele>
        <time>2016-03-13T10:08:22Z</time>
      </trkpt>
      <trkpt lat="44.31319" lon="3.09423">
        <ele>742.71</ele>
        <time>2016-03-13T10:08:53Z</time>
      </trkpt>
      <trkpt lat="44.31311" lon="3.09424">
        <ele>742.34</ele>
        <time>2016-03-13T10:10:56Z</time>
      </trkpt>
      <trkpt lat="44.31313" lon="3.09422">
        <ele>741.48</ele>
        <time>2016-03-13T10:12:36Z</time>
      </trkpt>
      <trkpt lat="44.31313" lon="3.09424">
        <ele>740.65</ele>
        <time>2016-03-13T10:13:52Z</time>
      </trkpt>
      <trkpt lat="44.31313" lon="3.09425">
        <ele>740.72</ele>
        <time>2016-03-13T10:14:45Z</time>
      </trkpt>
      <trkpt lat="44.31313" lon="3.09426">
        <ele>740.72</ele>
        <time>2016-03-13T10:15:04Z</time>
      </trkpt>
      <trkpt lat="44.31313" lon="3.09431">
        <ele>740.25</ele>
        <time>2016-03-13T10:15:22Z</time>
      </trkpt>
      <trkpt lat="44.31313" lon="3.09433">
        <ele>740.21</ele>
        <time>2016-03-13T10:15:23Z</time>
      </trkpt>
      <trkpt lat="44.31314" lon="3.09436">
        <ele>740.17</ele>
        <time>2016-03-13T10:15:24Z</time>
      </trkpt>
      <trkpt lat="44.31315" lon="3.09438">
        <ele>740.14</ele>
        <time>2016-03-13T10:15:25Z</time>
      </trkpt>
      <trkpt lat="44.31316" lon="3.09441">
        <ele>740.11</ele>
        <time>2016-03-13T10:15:26Z</time>
      </trkpt>
      <trkpt lat="44.31317" lon="3.09445">
        <ele>740.11</ele>
        <time>2016-03-13T10:15:27Z</time>
      </trkpt>
      <trkpt lat="44.31318" lon="3.09448">
        <ele>740.15</ele>
        <time>2016-03-13T10:15:28Z</time>
      </trkpt>
      <trkpt lat="44.31319" lon="3.09451">
        <ele>740.22</ele>
        <time>2016-03-13T10:15:29Z</time>
      </trkpt>
      <trkpt lat="44.3132" lon="3.09454">
        <ele>740.28</ele>
        <time>2016-03-13T10:15:30Z</time>
      </trkpt>
      <trkpt lat="44.31321" lon="3.09457">
        <ele>740.36</ele>
        <time>2016-03-13T10:15:31Z</time>
      </trkpt>
      <trkpt lat="44.31322" lon="3.0946">
        <ele>740.47</ele>
        <time>2016-03-13T10:15:32Z</time>
      </trkpt>
      <trkpt lat="44.31337" lon="3.09493">
        <ele>742.62</ele>
        <time>2016-03-13T10:15:42Z</time>
      </trkpt>
      <trkpt lat="44.31354" lon="3.09524">
        <ele>744.73</ele>
        <time>2016-03-13T10:15:53Z</time>
      </trkpt>
      <trkpt lat="44.31373" lon="3.09556">
        <ele>745.86</ele>
        <time>2016-03-13T10:16:05Z</time>
      </trkpt>
      <trkpt lat="44.31397" lon="3.09594">
        <ele>746.22</ele>
        <time>2016-03-13T10:16:18Z</time>
      </trkpt>
      <trkpt lat="44.31419" lon="3.09627">
        <ele>746.82</ele>
        <time>2016-03-13T10:16:29Z</time>
      </trkpt>
      <trkpt lat="44.31422" lon="3.09659">
        <ele>747.36</ele>
        <time>2016-03-13T10:16:41Z</time>
      </trkpt>
      <trkpt lat="44.31421" lon="3.09667">
        <ele>747.4</ele>
        <time>2016-03-13T10:16:44Z</time>
      </trkpt>
      <trkpt lat="44.31418" lon="3.09685">
        <ele>747.92</ele>
        <time>2016-03-13T10:16:53Z</time>
      </trkpt>
      <trkpt lat="44.31417" lon="3.09687">
        <ele>748.07</ele>
        <time>2016-03-13T10:16:54Z</time>
      </trkpt>
      <trkpt lat="44.31412" lon="3.09705">
        <ele>749.25</ele>
        <time>2016-03-13T10:17:05Z</time>
      </trkpt>
      <trkpt lat="44.31412" lon="3.09707">
        <ele>749.39</ele>
        <time>2016-03-13T10:17:06Z</time>
      </trkpt>
      <trkpt lat="44.31401" lon="3.09734">
        <ele>752.33</ele>
        <time>2016-03-13T10:17:23Z</time>
      </trkpt>
      <trkpt lat="44.31397" lon="3.09743">
        <ele>752.64</ele>
        <time>2016-03-13T10:17:29Z</time>
      </trkpt>
      <trkpt lat="44.31397" lon="3.09744">
        <ele>752.69</ele>
        <time>2016-03-13T10:17:30Z</time>
      </trkpt>
      <trkpt lat="44.31386" lon="3.09768">
        <ele>755.01</ele>
        <time>2016-03-13T10:17:46Z</time>
      </trkpt>
      <trkpt lat="44.31375" lon="3.09791">
        <ele>758.19</ele>
        <time>2016-03-13T10:18:02Z</time>
      </trkpt>
      <trkpt lat="44.31372" lon="3.09795">
        <ele>758.92</ele>
        <time>2016-03-13T10:18:05Z</time>
      </trkpt>
      <trkpt lat="44.31372" lon="3.09796">
        <ele>759.38</ele>
        <time>2016-03-13T10:18:06Z</time>
      </trkpt>
      <trkpt lat="44.31361" lon="3.0982">
        <ele>762.42</ele>
        <time>2016-03-13T10:18:22Z</time>
      </trkpt>
      <trkpt lat="44.31359" lon="3.09825">
        <ele>763</ele>
        <time>2016-03-13T10:18:26Z</time>
      </trkpt>
      <trkpt lat="44.31358" lon="3.09825">
        <ele>763.11</ele>
        <time>2016-03-13T10:18:27Z</time>
      </trkpt>
      <trkpt lat="44.31357" lon="3.09827">
        <ele>763.22</ele>
        <time>2016-03-13T10:18:28Z</time>
      </trkpt>
      <trkpt lat="44.31341" lon="3.09846">
        <ele>765.3</ele>
        <time>2016-03-13T10:18:43Z</time>
      </trkpt>
      <trkpt lat="44.31322" lon="3.09847">
        <ele>766.19</ele>
        <time>2016-03-13T10:18:59Z</time>
      </trkpt>
      <trkpt lat="44.313" lon="3.09837">
        <ele>767.99</ele>
        <time>2016-03-13T10:19:15Z</time>
      </trkpt>
      <trkpt lat="44.31277" lon="3.09831">
        <ele>769.92</ele>
        <time>2016-03-13T10:19:30Z</time>
      </trkpt>
      <trkpt lat="44.31259" lon="3.09832">
        <ele>772.31</ele>
        <time>2016-03-13T10:19:43Z</time>
      </trkpt>
      <trkpt lat="44.31235" lon="3.09838">
        <ele>774.1</ele>
        <time>2016-03-13T10:20:00Z</time>
      </trkpt>
      <trkpt lat="44.31212" lon="3.0985">
        <ele>776.22</ele>
        <time>2016-03-13T10:20:16Z</time>
      </trkpt>
      <trkpt lat="44.31188" lon="3.09869">
        <ele>777.83</ele>
        <time>2016-03-13T10:20:33Z</time>
      </trkpt>
      <trkpt lat="44.3117" lon="3.09892">
        <ele>780.09</ele>
        <time>2016-03-13T10:20:50Z</time>
      </trkpt>
      <trkpt lat="44.31162" lon="3.09905">
        <ele>780.82</ele>
        <time>2016-03-13T10:20:59Z</time>
      </trkpt>
      <trkpt lat="44.31162" lon="3.09907">
        <ele>780.84</ele>
        <time>2016-03-13T10:21:00Z</time>
      </trkpt>
      <trkpt lat="44.31161" lon="3.09914">
        <ele>780.81</ele>
        <time>2016-03-13T10:21:04Z</time>
      </trkpt>
      <trkpt lat="44.31161" lon="3.09916">
        <ele>780.86</ele>
        <time>2016-03-13T10:21:05Z</time>
      </trkpt>
      <trkpt lat="44.31162" lon="3.09917">
        <ele>780.96</ele>
        <time>2016-03-13T10:21:06Z</time>
      </trkpt>
      <trkpt lat="44.31164" lon="3.09921">
        <ele>781.3</ele>
        <time>2016-03-13T10:21:09Z</time>
      </trkpt>
      <trkpt lat="44.31165" lon="3.09922">
        <ele>781.39</ele>
        <time>2016-03-13T10:21:10Z</time>
      </trkpt>
      <trkpt lat="44.31166" lon="3.09921">
        <ele>781.48</ele>
        <time>2016-03-13T10:21:11Z</time>
      </trkpt>
      <trkpt lat="44.31168" lon="3.09921">
        <ele>781.63</ele>
        <time>2016-03-13T10:21:12Z</time>
      </trkpt>
      <trkpt lat="44.31169" lon="3.0992">
        <ele>781.67</ele>
        <time>2016-03-13T10:21:13Z</time>
      </trkpt>
      <trkpt lat="44.3117" lon="3.09919">
        <ele>781.71</ele>
        <time>2016-03-13T10:21:14Z</time>
      </trkpt>
      <trkpt lat="44.31171" lon="3.09917">
        <ele>781.55</ele>
        <time>2016-03-13T10:21:29Z</time>
      </trkpt>
      <trkpt lat="44.31185" lon="3.09898">
        <ele>781.34</ele>
        <time>2016-03-13T10:21:43Z</time>
      </trkpt>
      <trkpt lat="44.3122" lon="3.09865">
        <ele>779.2</ele>
        <time>2016-03-13T10:21:54Z</time>
      </trkpt>
      <trkpt lat="44.31267" lon="3.09852">
        <ele>775.99</ele>
        <time>2016-03-13T10:22:04Z</time>
      </trkpt>
      <trkpt lat="44.31316" lon="3.09872">
        <ele>772.63</ele>
        <time>2016-03-13T10:22:14Z</time>
      </trkpt>
      <trkpt lat="44.31333" lon="3.09895">
        <ele>769.59</ele>
        <time>2016-03-13T10:22:22Z</time>
      </trkpt>
      <trkpt lat="44.31326" lon="3.09934">
        <ele>768.4</ele>
        <time>2016-03-13T10:22:32Z</time>
      </trkpt>
      <trkpt lat="44.31322" lon="3.10025">
        <ele>768.97</ele>
        <time>2016-03-13T10:22:50Z</time>
      </trkpt>
      <trkpt lat="44.31323" lon="3.10051">
        <ele>769</ele>
        <time>2016-03-13T10:22:55Z</time>
      </trkpt>
      <trkpt lat="44.31323" lon="3.10056">
        <ele>769.01</ele>
        <time>2016-03-13T10:22:56Z</time>
      </trkpt>
      <trkpt lat="44.31323" lon="3.10062">
        <ele>769.05</ele>
        <time>2016-03-13T10:22:57Z</time>
      </trkpt>
      <trkpt lat="44.31326" lon="3.10119">
        <ele>769.53</ele>
        <time>2016-03-13T10:23:09Z</time>
      </trkpt>
      <trkpt lat="44.31321" lon="3.10195">
        <ele>770.46</ele>
        <time>2016-03-13T10:23:25Z</time>
      </trkpt>
      <trkpt lat="44.31305" lon="3.10277">
        <ele>771.3</ele>
        <time>2016-03-13T10:23:43Z</time>
      </trkpt>
      <trkpt lat="44.31282" lon="3.10353">
        <ele>773.21</ele>
        <time>2016-03-13T10:24:02Z</time>
      </trkpt>
      <trkpt lat="44.3128" lon="3.10408">
        <ele>774.4</ele>
        <time>2016-03-13T10:24:16Z</time>
      </trkpt>
      <trkpt lat="44.31279" lon="3.1041">
        <ele>774.48</ele>
        <time>2016-03-13T10:24:17Z</time>
      </trkpt>
      <trkpt lat="44.31279" lon="3.10413">
        <ele>774.73</ele>
        <time>2016-03-13T10:24:20Z</time>
      </trkpt>
      <trkpt lat="44.31292" lon="3.10459">
        <ele>776.05</ele>
        <time>2016-03-13T10:24:31Z</time>
      </trkpt>
      <trkpt lat="44.31322" lon="3.10503">
        <ele>777.86</ele>
        <time>2016-03-13T10:24:46Z</time>
      </trkpt>
      <trkpt lat="44.31367" lon="3.10536">
        <ele>779.41</ele>
        <time>2016-03-13T10:25:04Z</time>
      </trkpt>
      <trkpt lat="44.31407" lon="3.10564">
        <ele>780.89</ele>
        <time>2016-03-13T10:25:22Z</time>
      </trkpt>
      <trkpt lat="44.31435" lon="3.10596">
        <ele>781.81</ele>
        <time>2016-03-13T10:25:35Z</time>
      </trkpt>
      <trkpt lat="44.31458" lon="3.10637">
        <ele>782.96</ele>
        <time>2016-03-13T10:25:49Z</time>
      </trkpt>
      <trkpt lat="44.31481" lon="3.10677">
        <ele>784.6</ele>
        <time>2016-03-13T10:26:03Z</time>
      </trkpt>
      <trkpt lat="44.31508" lon="3.10733">
        <ele>786.15</ele>
        <time>2016-03-13T10:26:21Z</time>
      </trkpt>
      <trkpt lat="44.31524" lon="3.10785">
        <ele>787.95</ele>
        <time>2016-03-13T10:26:36Z</time>
      </trkpt>
      <trkpt lat="44.31528" lon="3.10846">
        <ele>789.74</ele>
        <time>2016-03-13T10:26:53Z</time>
      </trkpt>
      <trkpt lat="44.31528" lon="3.1091">
        <ele>791.49</ele>
        <time>2016-03-13T10:27:10Z</time>
      </trkpt>
      <trkpt lat="44.31532" lon="3.10965">
        <ele>793.25</ele>
        <time>2016-03-13T10:27:25Z</time>
      </trkpt>
      <trkpt lat="44.31538" lon="3.11018">
        <ele>794.28</ele>
        <time>2016-03-13T10:27:40Z</time>
      </trkpt>
      <trkpt lat="44.31545" lon="3.1108">
        <ele>795.61</ele>
        <time>2016-03-13T10:27:57Z</time>
      </trkpt>
      <trkpt lat="44.31539" lon="3.11153">
        <ele>796.86</ele>
        <time>2016-03-13T10:28:16Z</time>
      </trkpt>
      <trkpt lat="44.3151" lon="3.11211">
        <ele>798.83</ele>
        <time>2016-03-13T10:28:34Z</time>
      </trkpt>
      <trkpt lat="44.31487" lon="3.11277">
        <ele>800.84</ele>
        <time>2016-03-13T10:28:54Z</time>
      </trkpt>
      <trkpt lat="44.31476" lon="3.11324">
        <ele>801.87</ele>
        <time>2016-03-13T10:29:07Z</time>
      </trkpt>
      <trkpt lat="44.3145" lon="3.11387">
        <ele>803.63</ele>
        <time>2016-03-13T10:29:26Z</time>
      </trkpt>
      <trkpt lat="44.31418" lon="3.11461">
        <ele>806.18</ele>
        <time>2016-03-13T10:29:49Z</time>
      </trkpt>
      <trkpt lat="44.31392" lon="3.1152">
        <ele>809.15</ele>
        <time>2016-03-13T10:30:08Z</time>
      </trkpt>
      <trkpt lat="44.3137" lon="3.11601">
        <ele>811.91</ele>
        <time>2016-03-13T10:30:31Z</time>
      </trkpt>
      <trkpt lat="44.31359" lon="3.11663">
        <ele>814.27</ele>
        <time>2016-03-13T10:30:48Z</time>
      </trkpt>
      <trkpt lat="44.31357" lon="3.11709">
        <ele>816.39</ele>
        <time>2016-03-13T10:31:03Z</time>
      </trkpt>
      <trkpt lat="44.31367" lon="3.11762">
        <ele>818.47</ele>
        <time>2016-03-13T10:31:21Z</time>
      </trkpt>
      <trkpt lat="44.31369" lon="3.11767">
        <ele>818.8</ele>
        <time>2016-03-13T10:31:23Z</time>
      </trkpt>
      <trkpt lat="44.3137" lon="3.1177">
        <ele>818.8</ele>
        <time>2016-03-13T10:31:24Z</time>
      </trkpt>
      <trkpt lat="44.31397" lon="3.11814">
        <ele>820.3</ele>
        <time>2016-03-13T10:31:41Z</time>
      </trkpt>
      <trkpt lat="44.31415" lon="3.11866">
        <ele>821.52</ele>
        <time>2016-03-13T10:31:58Z</time>
      </trkpt>
      <trkpt lat="44.31419" lon="3.11932">
        <ele>822.79</ele>
        <time>2016-03-13T10:32:17Z</time>
      </trkpt>
      <trkpt lat="44.31419" lon="3.1199">
        <ele>823.82</ele>
        <time>2016-03-13T10:32:35Z</time>
      </trkpt>
      <trkpt lat="44.3142" lon="3.11992">
        <ele>823.83</ele>
        <time>2016-03-13T10:32:36Z</time>
      </trkpt>
      <trkpt lat="44.31422" lon="3.11992">
        <ele>823.84</ele>
        <time>2016-03-13T10:32:37Z</time>
      </trkpt>
      <trkpt lat="44.31424" lon="3.11993">
        <ele>823.82</ele>
        <time>2016-03-13T10:32:38Z</time>
      </trkpt>
      <trkpt lat="44.31426" lon="3.11992">
        <ele>823.79</ele>
        <time>2016-03-13T10:32:39Z</time>
      </trkpt>
      <trkpt lat="44.31428" lon="3.11991">
        <ele>823.77</ele>
        <time>2016-03-13T10:32:40Z</time>
      </trkpt>
      <trkpt lat="44.31429" lon="3.11989">
        <ele>823.76</ele>
        <time>2016-03-13T10:32:41Z</time>
      </trkpt>
      <trkpt lat="44.31431" lon="3.11987">
        <ele>823.74</ele>
        <time>2016-03-13T10:32:42Z</time>
      </trkpt>
      <trkpt lat="44.31432" lon="3.11984">
        <ele>823.73</ele>
        <time>2016-03-13T10:32:43Z</time>
      </trkpt>
      <trkpt lat="44.31434" lon="3.11981">
        <ele>823.71</ele>
        <time>2016-03-13T10:32:44Z</time>
      </trkpt>
      <trkpt lat="44.31461" lon="3.11908">
        <ele>822.68</ele>
        <time>2016-03-13T10:33:06Z</time>
      </trkpt>
      <trkpt lat="44.31488" lon="3.1186">
        <ele>822.16</ele>
        <time>2016-03-13T10:33:23Z</time>
      </trkpt>
      <trkpt lat="44.3151" lon="3.11834">
        <ele>824.44</ele>
        <time>2016-03-13T10:33:39Z</time>
      </trkpt>
      <trkpt lat="44.31526" lon="3.11813">
        <ele>827.45</ele>
        <time>2016-03-13T10:33:51Z</time>
      </trkpt>
      <trkpt lat="44.31529" lon="3.11809">
        <ele>828.78</ele>
        <time>2016-03-13T10:33:57Z</time>
      </trkpt>
      <trkpt lat="44.31537" lon="3.118">
        <ele>829.05</ele>
        <time>2016-03-13T10:34:16Z</time>
      </trkpt>
      <trkpt lat="44.31538" lon="3.11798">
        <ele>829.29</ele>
        <time>2016-03-13T10:34:17Z</time>
      </trkpt>
      <trkpt lat="44.31539" lon="3.11796">
        <ele>829.52</ele>
        <time>2016-03-13T10:34:18Z</time>
      </trkpt>
      <trkpt lat="44.3156" lon="3.11769">
        <ele>832.48</ele>
        <time>2016-03-13T10:34:34Z</time>
      </trkpt>
      <trkpt lat="44.31583" lon="3.11745">
        <ele>834.12</ele>
        <time>2016-03-13T10:34:50Z</time>
      </trkpt>
      <trkpt lat="44.31614" lon="3.11726">
        <ele>835.76</ele>
        <time>2016-03-13T10:35:09Z</time>
      </trkpt>
      <trkpt lat="44.3164" lon="3.1171">
        <ele>837.67</ele>
        <time>2016-03-13T10:35:28Z</time>
      </trkpt>
      <trkpt lat="44.31642" lon="3.1171">
        <ele>837.78</ele>
        <time>2016-03-13T10:35:31Z</time>
      </trkpt>
      <trkpt lat="44.3166" lon="3.11709">
        <ele>837.71</ele>
        <time>2016-03-13T10:35:49Z</time>
      </trkpt>
      <trkpt lat="44.31671" lon="3.11706">
        <ele>836.94</ele>
        <time>2016-03-13T10:36:00Z</time>
      </trkpt>
      <trkpt lat="44.31673" lon="3.11705">
        <ele>836.9</ele>
        <time>2016-03-13T10:36:01Z</time>
      </trkpt>
      <trkpt lat="44.31675" lon="3.11704">
        <ele>836.88</ele>
        <time>2016-03-13T10:36:02Z</time>
      </trkpt>
      <trkpt lat="44.31676" lon="3.11702">
        <ele>836.88</ele>
        <time>2016-03-13T10:36:03Z</time>
      </trkpt>
      <trkpt lat="44.31678" lon="3.11701">
        <ele>836.87</ele>
        <time>2016-03-13T10:36:04Z</time>
      </trkpt>
      <trkpt lat="44.31679" lon="3.11699">
        <ele>836.86</ele>
        <time>2016-03-13T10:36:05Z</time>
      </trkpt>
      <trkpt lat="44.3168" lon="3.11698">
        <ele>836.86</ele>
        <time>2016-03-13T10:36:06Z</time>
      </trkpt>
      <trkpt lat="44.31682" lon="3.11696">
        <ele>836.85</ele>
        <time>2016-03-13T10:36:07Z</time>
      </trkpt>
      <trkpt lat="44.31683" lon="3.11695">
        <ele>836.83</ele>
        <time>2016-03-13T10:36:08Z</time>
      </trkpt>
      <trkpt lat="44.31685" lon="3.11693">
        <ele>836.79</ele>
        <time>2016-03-13T10:36:09Z</time>
      </trkpt>
      <trkpt lat="44.31686" lon="3.11691">
        <ele>836.76</ele>
        <time>2016-03-13T10:36:10Z</time>
      </trkpt>
      <trkpt lat="44.31688" lon="3.1169">
        <ele>836.73</ele>
        <time>2016-03-13T10:36:11Z</time>
      </trkpt>
      <trkpt lat="44.3169" lon="3.11689">
        <ele>836.72</ele>
        <time>2016-03-13T10:36:12Z</time>
      </trkpt>
      <trkpt lat="44.31691" lon="3.11688">
        <ele>836.72</ele>
        <time>2016-03-13T10:36:13Z</time>
      </trkpt>
      <trkpt lat="44.31693" lon="3.11687">
        <ele>836.72</ele>
        <time>2016-03-13T10:36:14Z</time>
      </trkpt>
      <trkpt lat="44.31695" lon="3.11686">
        <ele>836.71</ele>
        <time>2016-03-13T10:36:15Z</time>
      </trkpt>
      <trkpt lat="44.31696" lon="3.11685">
        <ele>836.7</ele>
        <time>2016-03-13T10:36:16Z</time>
      </trkpt>
      <trkpt lat="44.31703" lon="3.11682">
        <ele>836.75</ele>
        <time>2016-03-13T10:36:20Z</time>
      </trkpt>
      <trkpt lat="44.31704" lon="3.11681">
        <ele>836.8</ele>
        <time>2016-03-13T10:36:21Z</time>
      </trkpt>
      <trkpt lat="44.31706" lon="3.1168">
        <ele>836.86</ele>
        <time>2016-03-13T10:36:22Z</time>
      </trkpt>
      <trkpt lat="44.31708" lon="3.11679">
        <ele>836.95</ele>
        <time>2016-03-13T10:36:23Z</time>
      </trkpt>
      <trkpt lat="44.31709" lon="3.11678">
        <ele>837.06</ele>
        <time>2016-03-13T10:36:24Z</time>
      </trkpt>
      <trkpt lat="44.31711" lon="3.11677">
        <ele>837.17</ele>
        <time>2016-03-13T10:36:25Z</time>
      </trkpt>
      <trkpt lat="44.31713" lon="3.11676">
        <ele>837.21</ele>
        <time>2016-03-13T10:36:26Z</time>
      </trkpt>
      <trkpt lat="44.31745" lon="3.11664">
        <ele>838.86</ele>
        <time>2016-03-13T10:36:45Z</time>
      </trkpt>
      <trkpt lat="44.31746" lon="3.11664">
        <ele>838.87</ele>
        <time>2016-03-13T10:36:46Z</time>
      </trkpt>
      <trkpt lat="44.31751" lon="3.11661">
        <ele>839.65</ele>
        <time>2016-03-13T10:36:57Z</time>
      </trkpt>
      <trkpt lat="44.31775" lon="3.11653">
        <ele>839.6</ele>
        <time>2016-03-13T10:38:02Z</time>
      </trkpt>
      <trkpt lat="44.31782" lon="3.11627">
        <ele>839.03</ele>
        <time>2016-03-13T10:38:23Z</time>
      </trkpt>
      <trkpt lat="44.31778" lon="3.1162">
        <ele>839.69</ele>
        <time>2016-03-13T10:38:32Z</time>
      </trkpt>
      <trkpt lat="44.31779" lon="3.11619">
        <ele>839.74</ele>
        <time>2016-03-13T10:38:33Z</time>
      </trkpt>
      <trkpt lat="44.31779" lon="3.11617">
        <ele>839.77</ele>
        <time>2016-03-13T10:38:34Z</time>
      </trkpt>
      <trkpt lat="44.31799" lon="3.11593">
        <ele>840.06</ele>
        <time>2016-03-13T10:38:53Z</time>
      </trkpt>
      <trkpt lat="44.31833" lon="3.11531">
        <ele>840.01</ele>
        <time>2016-03-13T10:39:14Z</time>
      </trkpt>
      <trkpt lat="44.31865" lon="3.1148">
        <ele>839.23</ele>
        <time>2016-03-13T10:39:36Z</time>
      </trkpt>
      <trkpt lat="44.31866" lon="3.11477">
        <ele>838.76</ele>
        <time>2016-03-13T10:39:42Z</time>
      </trkpt>
      <trkpt lat="44.31863" lon="3.11482">
        <ele>838.28</ele>
        <time>2016-03-13T10:40:57Z</time>
      </trkpt>
      <trkpt lat="44.31835" lon="3.11528">
        <ele>839.62</ele>
        <time>2016-03-13T10:41:15Z</time>
      </trkpt>
      <trkpt lat="44.31794" lon="3.11597">
        <ele>840.01</ele>
        <time>2016-03-13T10:41:40Z</time>
      </trkpt>
      <trkpt lat="44.31756" lon="3.11639">
        <ele>838.72</ele>
        <time>2016-03-13T10:41:59Z</time>
      </trkpt>
      <trkpt lat="44.31705" lon="3.11671">
        <ele>837.45</ele>
        <time>2016-03-13T10:42:17Z</time>
      </trkpt>
      <trkpt lat="44.31662" lon="3.117">
        <ele>836.4</ele>
        <time>2016-03-13T10:42:35Z</time>
      </trkpt>
      <trkpt lat="44.31656" lon="3.11704">
        <ele>836.47</ele>
        <time>2016-03-13T10:42:43Z</time>
      </trkpt>
      <trkpt lat="44.3164" lon="3.11713">
        <ele>837.16</ele>
        <time>2016-03-13T10:43:46Z</time>
      </trkpt>
      <trkpt lat="44.31636" lon="3.11715">
        <ele>836.95</ele>
        <time>2016-03-13T10:43:53Z</time>
      </trkpt>
      <trkpt lat="44.3163" lon="3.11718">
        <ele>836.68</ele>
        <time>2016-03-13T10:44:02Z</time>
      </trkpt>
      <trkpt lat="44.31627" lon="3.11723">
        <ele>836.46</ele>
        <time>2016-03-13T10:44:09Z</time>
      </trkpt>
      <trkpt lat="44.31621" lon="3.11725">
        <ele>836.25</ele>
        <time>2016-03-13T10:44:19Z</time>
      </trkpt>
      <trkpt lat="44.31573" lon="3.11756">
        <ele>834.68</ele>
        <time>2016-03-13T10:44:36Z</time>
      </trkpt>
      <trkpt lat="44.31566" lon="3.11764">
        <ele>834.12</ele>
        <time>2016-03-13T10:44:38Z</time>
      </trkpt>
      <trkpt lat="44.31532" lon="3.11808">
        <ele>830.84</ele>
        <time>2016-03-13T10:44:50Z</time>
      </trkpt>
      <trkpt lat="44.31513" lon="3.11835">
        <ele>827.64</ele>
        <time>2016-03-13T10:44:58Z</time>
      </trkpt>
      <trkpt lat="44.31511" lon="3.11837">
        <ele>824.88</ele>
        <time>2016-03-13T10:45:04Z</time>
      </trkpt>
      <trkpt lat="44.31506" lon="3.11844">
        <ele>824.6</ele>
        <time>2016-03-13T10:45:22Z</time>
      </trkpt>
      <trkpt lat="44.31473" lon="3.11884">
        <ele>821.94</ele>
        <time>2016-03-13T10:45:33Z</time>
      </trkpt>
      <trkpt lat="44.31471" lon="3.11891">
        <ele>821.63</ele>
        <time>2016-03-13T10:45:34Z</time>
      </trkpt>
      <trkpt lat="44.31449" lon="3.1195">
        <ele>820.61</ele>
        <time>2016-03-13T10:45:49Z</time>
      </trkpt>
      <trkpt lat="44.31417" lon="3.12003">
        <ele>821.76</ele>
        <time>2016-03-13T10:46:08Z</time>
      </trkpt>
      <trkpt lat="44.31396" lon="3.12045">
        <ele>821.7</ele>
        <time>2016-03-13T10:46:24Z</time>
      </trkpt>
      <trkpt lat="44.31375" lon="3.1211">
        <ele>822.39</ele>
        <time>2016-03-13T10:46:44Z</time>
      </trkpt>
      <trkpt lat="44.31354" lon="3.12183">
        <ele>823.93</ele>
        <time>2016-03-13T10:47:07Z</time>
      </trkpt>
      <trkpt lat="44.31341" lon="3.12243">
        <ele>824.2</ele>
        <time>2016-03-13T10:47:25Z</time>
      </trkpt>
      <trkpt lat="44.31331" lon="3.12307">
        <ele>824.5</ele>
        <time>2016-03-13T10:47:42Z</time>
      </trkpt>
      <trkpt lat="44.31319" lon="3.12375">
        <ele>824.87</ele>
        <time>2016-03-13T10:47:58Z</time>
      </trkpt>
      <trkpt lat="44.31298" lon="3.12456">
        <ele>825.41</ele>
        <time>2016-03-13T10:48:17Z</time>
      </trkpt>
      <trkpt lat="44.31276" lon="3.12534">
        <ele>826.27</ele>
        <time>2016-03-13T10:48:35Z</time>
      </trkpt>
      <trkpt lat="44.31255" lon="3.12615">
        <ele>828.39</ele>
        <time>2016-03-13T10:48:54Z</time>
      </trkpt>
      <trkpt lat="44.31243" lon="3.12691">
        <ele>829.01</ele>
        <time>2016-03-13T10:49:11Z</time>
      </trkpt>
      <trkpt lat="44.31244" lon="3.12782">
        <ele>829.5</ele>
        <time>2016-03-13T10:49:32Z</time>
      </trkpt>
      <trkpt lat="44.31245" lon="3.12882">
        <ele>830.84</ele>
        <time>2016-03-13T10:49:55Z</time>
      </trkpt>
      <trkpt lat="44.31246" lon="3.12898">
        <ele>831.14</ele>
        <time>2016-03-13T10:50:00Z</time>
      </trkpt>
      <trkpt lat="44.31247" lon="3.12901">
        <ele>831.17</ele>
        <time>2016-03-13T10:50:01Z</time>
      </trkpt>
      <trkpt lat="44.31249" lon="3.12902">
        <ele>831.2</ele>
        <time>2016-03-13T10:50:02Z</time>
      </trkpt>
      <trkpt lat="44.31252" lon="3.12903">
        <ele>831.25</ele>
        <time>2016-03-13T10:50:03Z</time>
      </trkpt>
      <trkpt lat="44.31254" lon="3.12903">
        <ele>831.3</ele>
        <time>2016-03-13T10:50:04Z</time>
      </trkpt>
      <trkpt lat="44.31256" lon="3.12903">
        <ele>831.34</ele>
        <time>2016-03-13T10:50:05Z</time>
      </trkpt>
      <trkpt lat="44.31258" lon="3.12902">
        <ele>831.4</ele>
        <time>2016-03-13T10:50:06Z</time>
      </trkpt>
      <trkpt lat="44.31287" lon="3.12898">
        <ele>834.49</ele>
        <time>2016-03-13T10:50:22Z</time>
      </trkpt>
      <trkpt lat="44.31312" lon="3.12892">
        <ele>836.57</ele>
        <time>2016-03-13T10:50:39Z</time>
      </trkpt>
      <trkpt lat="44.31336" lon="3.129">
        <ele>838.82</ele>
        <time>2016-03-13T10:50:54Z</time>
      </trkpt>
      <trkpt lat="44.31353" lon="3.12937">
        <ele>839.65</ele>
        <time>2016-03-13T10:51:10Z</time>
      </trkpt>
      <trkpt lat="44.31375" lon="3.12987">
        <ele>839.51</ele>
        <time>2016-03-13T10:51:28Z</time>
      </trkpt>
      <trkpt lat="44.31392" lon="3.13027">
        <ele>839.53</ele>
        <time>2016-03-13T10:51:46Z</time>
      </trkpt>
      <trkpt lat="44.31402" lon="3.13072">
        <ele>839.37</ele>
        <time>2016-03-13T10:52:05Z</time>
      </trkpt>
      <trkpt lat="44.31402" lon="3.13072">
        <ele>839.59</ele>
        <time>2016-03-13T10:52:08Z</time>
      </trkpt>
      <trkpt lat="44.31403" lon="3.13081">
        <ele>839.37</ele>
        <time>2016-03-13T10:52:19Z</time>
      </trkpt>
      <trkpt lat="44.31383" lon="3.13136">
        <ele>840.86</ele>
        <time>2016-03-13T10:52:37Z</time>
      </trkpt>
      <trkpt lat="44.3134" lon="3.13165">
        <ele>842.34</ele>
        <time>2016-03-13T10:52:55Z</time>
      </trkpt>
      <trkpt lat="44.31303" lon="3.13179">
        <ele>844.26</ele>
        <time>2016-03-13T10:53:11Z</time>
      </trkpt>
      <trkpt lat="44.31269" lon="3.13197">
        <ele>845.54</ele>
        <time>2016-03-13T10:53:28Z</time>
      </trkpt>
      <trkpt lat="44.31256" lon="3.13227">
        <ele>847.34</ele>
        <time>2016-03-13T10:53:43Z</time>
      </trkpt>
      <trkpt lat="44.3125" lon="3.13243">
        <ele>848.34</ele>
        <time>2016-03-13T10:53:53Z</time>
      </trkpt>
      <trkpt lat="44.3125" lon="3.13244">
        <ele>848.44</ele>
        <time>2016-03-13T10:53:54Z</time>
      </trkpt>
      <trkpt lat="44.31241" lon="3.1327">
        <ele>849.88</ele>
        <time>2016-03-13T10:54:08Z</time>
      </trkpt>
      <trkpt lat="44.31239" lon="3.13273">
        <ele>850</ele>
        <time>2016-03-13T10:54:09Z</time>
      </trkpt>
      <trkpt lat="44.31223" lon="3.13306">
        <ele>851.38</ele>
        <time>2016-03-13T10:54:23Z</time>
      </trkpt>
      <trkpt lat="44.31212" lon="3.13343">
        <ele>852.68</ele>
        <time>2016-03-13T10:54:38Z</time>
      </trkpt>
      <trkpt lat="44.31195" lon="3.1339">
        <ele>855.05</ele>
        <time>2016-03-13T10:54:54Z</time>
      </trkpt>
      <trkpt lat="44.3118" lon="3.1344">
        <ele>857.73</ele>
        <time>2016-03-13T10:55:13Z</time>
      </trkpt>
      <trkpt lat="44.31166" lon="3.13493">
        <ele>860.14</ele>
        <time>2016-03-13T10:55:32Z</time>
      </trkpt>
      <trkpt lat="44.31158" lon="3.13545">
        <ele>861.98</ele>
        <time>2016-03-13T10:55:50Z</time>
      </trkpt>
      <trkpt lat="44.31152" lon="3.13593">
        <ele>864.15</ele>
        <time>2016-03-13T10:56:08Z</time>
      </trkpt>
      <trkpt lat="44.31147" lon="3.13652">
        <ele>866.73</ele>
        <time>2016-03-13T10:56:29Z</time>
      </trkpt>
      <trkpt lat="44.31135" lon="3.13736">
        <ele>865.84</ele>
        <time>2016-03-13T10:56:47Z</time>
      </trkpt>
      <trkpt lat="44.31146" lon="3.13846">
        <ele>864.6</ele>
        <time>2016-03-13T10:57:09Z</time>
      </trkpt>
      <trkpt lat="44.31157" lon="3.13916">
        <ele>865.66</ele>
        <time>2016-03-13T10:57:27Z</time>
      </trkpt>
      <trkpt lat="44.31168" lon="3.13967">
        <ele>866.82</ele>
        <time>2016-03-13T10:57:41Z</time>
      </trkpt>
      <trkpt lat="44.31192" lon="3.14037">
        <ele>869.71</ele>
        <time>2016-03-13T10:58:00Z</time>
      </trkpt>
      <trkpt lat="44.31225" lon="3.14113">
        <ele>871.15</ele>
        <time>2016-03-13T10:58:22Z</time>
      </trkpt>
      <trkpt lat="44.31239" lon="3.14135">
        <ele>870.7</ele>
        <time>2016-03-13T10:58:27Z</time>
      </trkpt>
      <trkpt lat="44.31242" lon="3.1414">
        <ele>870.54</ele>
        <time>2016-03-13T10:58:28Z</time>
      </trkpt>
      <trkpt lat="44.31244" lon="3.14145">
        <ele>870.37</ele>
        <time>2016-03-13T10:58:29Z</time>
      </trkpt>
      <trkpt lat="44.31248" lon="3.1415">
        <ele>870.22</ele>
        <time>2016-03-13T10:58:30Z</time>
      </trkpt>
      <trkpt lat="44.31251" lon="3.14155">
        <ele>870.09</ele>
        <time>2016-03-13T10:58:31Z</time>
      </trkpt>
      <trkpt lat="44.31254" lon="3.14161">
        <ele>869.95</ele>
        <time>2016-03-13T10:58:32Z</time>
      </trkpt>
      <trkpt lat="44.31291" lon="3.14236">
        <ele>868.33</ele>
        <time>2016-03-13T10:58:47Z</time>
      </trkpt>
      <trkpt lat="44.31307" lon="3.14298">
        <ele>868.34</ele>
        <time>2016-03-13T10:59:01Z</time>
      </trkpt>
      <trkpt lat="44.31317" lon="3.14347">
        <ele>870.75</ele>
        <time>2016-03-13T10:59:14Z</time>
      </trkpt>
      <trkpt lat="44.31327" lon="3.14409">
        <ele>873.43</ele>
        <time>2016-03-13T10:59:31Z</time>
      </trkpt>
      <trkpt lat="44.31345" lon="3.14484">
        <ele>874.95</ele>
        <time>2016-03-13T10:59:50Z</time>
      </trkpt>
      <trkpt lat="44.31368" lon="3.14563">
        <ele>875.07</ele>
        <time>2016-03-13T11:00:08Z</time>
      </trkpt>
      <trkpt lat="44.31371" lon="3.14584">
        <ele>875.52</ele>
        <time>2016-03-13T11:00:18Z</time>
      </trkpt>
      <trkpt lat="44.31372" lon="3.14594">
        <ele>875.25</ele>
        <time>2016-03-13T11:00:38Z</time>
      </trkpt>
      <trkpt lat="44.31373" lon="3.14598">
        <ele>875.3</ele>
        <time>2016-03-13T11:00:39Z</time>
      </trkpt>
      <trkpt lat="44.31381" lon="3.14645">
        <ele>876.35</ele>
        <time>2016-03-13T11:00:53Z</time>
      </trkpt>
      <trkpt lat="44.31399" lon="3.14709">
        <ele>879.27</ele>
        <time>2016-03-13T11:01:13Z</time>
      </trkpt>
      <trkpt lat="44.31417" lon="3.14764">
        <ele>881.69</ele>
        <time>2016-03-13T11:01:30Z</time>
      </trkpt>
      <trkpt lat="44.31447" lon="3.14847">
        <ele>881.52</ele>
        <time>2016-03-13T11:01:51Z</time>
      </trkpt>
      <trkpt lat="44.31447" lon="3.14848">
        <ele>880.72</ele>
        <time>2016-03-13T11:01:55Z</time>
      </trkpt>
      <trkpt lat="44.31448" lon="3.14856">
        <ele>880.34</ele>
        <time>2016-03-13T11:02:13Z</time>
      </trkpt>
      <trkpt lat="44.31464" lon="3.14903">
        <ele>879.45</ele>
        <time>2016-03-13T11:02:28Z</time>
      </trkpt>
      <trkpt lat="44.31492" lon="3.14987">
        <ele>876.87</ele>
        <time>2016-03-13T11:02:44Z</time>
      </trkpt>
      <trkpt lat="44.31494" lon="3.14994">
        <ele>876.62</ele>
        <time>2016-03-13T11:02:45Z</time>
      </trkpt>
      <trkpt lat="44.31496" lon="3.15">
        <ele>876.44</ele>
        <time>2016-03-13T11:02:46Z</time>
      </trkpt>
      <trkpt lat="44.31498" lon="3.15006">
        <ele>876.25</ele>
        <time>2016-03-13T11:02:47Z</time>
      </trkpt>
      <trkpt lat="44.31537" lon="3.1512">
        <ele>874.29</ele>
        <time>2016-03-13T11:03:06Z</time>
      </trkpt>
      <trkpt lat="44.31562" lon="3.15189">
        <ele>873.14</ele>
        <time>2016-03-13T11:03:20Z</time>
      </trkpt>
      <trkpt lat="44.31578" lon="3.15232">
        <ele>872.39</ele>
        <time>2016-03-13T11:03:28Z</time>
      </trkpt>
      <trkpt lat="44.31581" lon="3.15243">
        <ele>872.27</ele>
        <time>2016-03-13T11:03:30Z</time>
      </trkpt>
      <trkpt lat="44.31615" lon="3.15334">
        <ele>873.08</ele>
        <time>2016-03-13T11:03:50Z</time>
      </trkpt>
      <trkpt lat="44.31638" lon="3.1539">
        <ele>876.16</ele>
        <time>2016-03-13T11:04:07Z</time>
      </trkpt>
      <trkpt lat="44.31666" lon="3.1545">
        <ele>879.17</ele>
        <time>2016-03-13T11:04:27Z</time>
      </trkpt>
      <trkpt lat="44.31693" lon="3.15518">
        <ele>879.85</ele>
        <time>2016-03-13T11:04:48Z</time>
      </trkpt>
      <trkpt lat="44.31742" lon="3.15582">
        <ele>878.05</ele>
        <time>2016-03-13T11:05:07Z</time>
      </trkpt>
      <trkpt lat="44.31781" lon="3.15646">
        <ele>877.6</ele>
        <time>2016-03-13T11:05:24Z</time>
      </trkpt>
      <trkpt lat="44.31808" lon="3.15726">
        <ele>879.37</ele>
        <time>2016-03-13T11:05:41Z</time>
      </trkpt>
      <trkpt lat="44.3183" lon="3.15802">
        <ele>882.19</ele>
        <time>2016-03-13T11:05:59Z</time>
      </trkpt>
      <trkpt lat="44.31844" lon="3.15867">
        <ele>884.68</ele>
        <time>2016-03-13T11:06:16Z</time>
      </trkpt>
      <trkpt lat="44.31866" lon="3.15938">
        <ele>887.05</ele>
        <time>2016-03-13T11:06:36Z</time>
      </trkpt>
      <trkpt lat="44.31886" lon="3.15998">
        <ele>889.24</ele>
        <time>2016-03-13T11:06:55Z</time>
      </trkpt>
      <trkpt lat="44.31917" lon="3.16078">
        <ele>891.46</ele>
        <time>2016-03-13T11:07:19Z</time>
      </trkpt>
      <trkpt lat="44.31944" lon="3.16135">
        <ele>891.42</ele>
        <time>2016-03-13T11:07:35Z</time>
      </trkpt>
      <trkpt lat="44.31968" lon="3.16191">
        <ele>892.06</ele>
        <time>2016-03-13T11:07:51Z</time>
      </trkpt>
      <trkpt lat="44.32009" lon="3.16277">
        <ele>892.09</ele>
        <time>2016-03-13T11:08:15Z</time>
      </trkpt>
      <trkpt lat="44.32047" lon="3.1635">
        <ele>892.7</ele>
        <time>2016-03-13T11:08:36Z</time>
      </trkpt>
      <trkpt lat="44.32074" lon="3.16389">
        <ele>893.8</ele>
        <time>2016-03-13T11:08:50Z</time>
      </trkpt>
      <trkpt lat="44.32091" lon="3.16385">
        <ele>895.18</ele>
        <time>2016-03-13T11:08:59Z</time>
      </trkpt>
      <trkpt lat="44.32092" lon="3.16384">
        <ele>895.39</ele>
        <time>2016-03-13T11:09:00Z</time>
      </trkpt>
      <trkpt lat="44.32093" lon="3.16384">
        <ele>895.6</ele>
        <time>2016-03-13T11:09:01Z</time>
      </trkpt>
      <trkpt lat="44.32094" lon="3.16384">
        <ele>895.82</ele>
        <time>2016-03-13T11:09:02Z</time>
      </trkpt>
      <trkpt lat="44.32109" lon="3.16382">
        <ele>897.16</ele>
        <time>2016-03-13T11:09:12Z</time>
      </trkpt>
      <trkpt lat="44.3211" lon="3.16383">
        <ele>897.32</ele>
        <time>2016-03-13T11:09:13Z</time>
      </trkpt>
      <trkpt lat="44.32111" lon="3.16384">
        <ele>897.48</ele>
        <time>2016-03-13T11:09:14Z</time>
      </trkpt>
      <trkpt lat="44.32113" lon="3.16386">
        <ele>897.62</ele>
        <time>2016-03-13T11:09:15Z</time>
      </trkpt>
      <trkpt lat="44.32114" lon="3.16387">
        <ele>897.73</ele>
        <time>2016-03-13T11:09:16Z</time>
      </trkpt>
      <trkpt lat="44.32115" lon="3.16388">
        <ele>897.83</ele>
        <time>2016-03-13T11:09:17Z</time>
      </trkpt>
      <trkpt lat="44.32116" lon="3.1639">
        <ele>897.94</ele>
        <time>2016-03-13T11:09:18Z</time>
      </trkpt>
      <trkpt lat="44.32118" lon="3.16392">
        <ele>898.41</ele>
        <time>2016-03-13T11:09:23Z</time>
      </trkpt>
      <trkpt lat="44.32132" lon="3.16407">
        <ele>900.27</ele>
        <time>2016-03-13T11:11:48Z</time>
      </trkpt>
      <trkpt lat="44.32151" lon="3.16427">
        <ele>901.19</ele>
        <time>2016-03-13T11:12:08Z</time>
      </trkpt>
      <trkpt lat="44.32161" lon="3.16429">
        <ele>901.17</ele>
        <time>2016-03-13T11:12:22Z</time>
      </trkpt>
      <trkpt lat="44.32168" lon="3.16434">
        <ele>900.78</ele>
        <time>2016-03-13T11:12:49Z</time>
      </trkpt>
      <trkpt lat="44.3218" lon="3.16447">
        <ele>901.19</ele>
        <time>2016-03-13T11:13:05Z</time>
      </trkpt>
      <trkpt lat="44.32182" lon="3.1645">
        <ele>900.98</ele>
        <time>2016-03-13T11:13:11Z</time>
      </trkpt>
      <trkpt lat="44.32187" lon="3.16446">
        <ele>901.82</ele>
        <time>2016-03-13T11:14:26Z</time>
      </trkpt>
      <trkpt lat="44.32185" lon="3.16442">
        <ele>901.85</ele>
        <time>2016-03-13T11:14:28Z</time>
      </trkpt>
      <trkpt lat="44.32185" lon="3.16439">
        <ele>901.88</ele>
        <time>2016-03-13T11:14:29Z</time>
      </trkpt>
      <trkpt lat="44.32186" lon="3.16436">
        <ele>901.9</ele>
        <time>2016-03-13T11:14:30Z</time>
      </trkpt>
      <trkpt lat="44.32188" lon="3.16435">
        <ele>901.95</ele>
        <time>2016-03-13T11:14:31Z</time>
      </trkpt>
      <trkpt lat="44.3219" lon="3.16433">
        <ele>901.97</ele>
        <time>2016-03-13T11:14:32Z</time>
      </trkpt>
      <trkpt lat="44.32192" lon="3.16431">
        <ele>901.97</ele>
        <time>2016-03-13T11:14:33Z</time>
      </trkpt>
      <trkpt lat="44.32193" lon="3.16429">
        <ele>902.01</ele>
        <time>2016-03-13T11:14:34Z</time>
      </trkpt>
      <trkpt lat="44.32195" lon="3.16427">
        <ele>902.04</ele>
        <time>2016-03-13T11:14:35Z</time>
      </trkpt>
      <trkpt lat="44.32196" lon="3.16424">
        <ele>902.09</ele>
        <time>2016-03-13T11:14:36Z</time>
      </trkpt>
      <trkpt lat="44.32213" lon="3.16399">
        <ele>902.11</ele>
        <time>2016-03-13T11:14:52Z</time>
      </trkpt>
      <trkpt lat="44.32199" lon="3.16429">
        <ele>904.64</ele>
        <time>2016-03-13T11:15:43Z</time>
      </trkpt>
      <trkpt lat="44.32201" lon="3.1643">
        <ele>904.64</ele>
        <time>2016-03-13T11:15:44Z</time>
      </trkpt>
      <trkpt lat="44.32211" lon="3.16428">
        <ele>903.9</ele>
        <time>2016-03-13T11:15:50Z</time>
      </trkpt>
      <trkpt lat="44.32213" lon="3.16428">
        <ele>903.8</ele>
        <time>2016-03-13T11:15:51Z</time>
      </trkpt>
      <trkpt lat="44.32215" lon="3.16428">
        <ele>903.82</ele>
        <time>2016-03-13T11:15:52Z</time>
      </trkpt>
      <trkpt lat="44.32217" lon="3.16429">
        <ele>903.96</ele>
        <time>2016-03-13T11:15:53Z</time>
      </trkpt>
      <trkpt lat="44.32218" lon="3.16428">
        <ele>904.11</ele>
        <time>2016-03-13T11:15:54Z</time>
      </trkpt>
      <trkpt lat="44.3222" lon="3.16428">
        <ele>904.29</ele>
        <time>2016-03-13T11:15:55Z</time>
      </trkpt>
      <trkpt lat="44.32222" lon="3.16428">
        <ele>904.46</ele>
        <time>2016-03-13T11:15:56Z</time>
      </trkpt>
      <trkpt lat="44.32224" lon="3.16429">
        <ele>904.56</ele>
        <time>2016-03-13T11:15:57Z</time>
      </trkpt>
      <trkpt lat="44.32225" lon="3.1643">
        <ele>904.65</ele>
        <time>2016-03-13T11:15:58Z</time>
      </trkpt>
      <trkpt lat="44.32226" lon="3.16432">
        <ele>904.77</ele>
        <time>2016-03-13T11:15:59Z</time>
      </trkpt>
      <trkpt lat="44.32227" lon="3.16435">
        <ele>904.88</ele>
        <time>2016-03-13T11:16:00Z</time>
      </trkpt>
      <trkpt lat="44.32238" lon="3.16462">
        <ele>905.14</ele>
        <time>2016-03-13T11:16:11Z</time>
      </trkpt>
      <trkpt lat="44.32239" lon="3.16462">
        <ele>905.02</ele>
        <time>2016-03-13T11:16:12Z</time>
      </trkpt>
      <trkpt lat="44.32241" lon="3.16462">
        <ele>904.88</ele>
        <time>2016-03-13T11:16:13Z</time>
      </trkpt>
      <trkpt lat="44.32243" lon="3.16463">
        <ele>904.73</ele>
        <time>2016-03-13T11:16:14Z</time>
      </trkpt>
      <trkpt lat="44.32245" lon="3.16463">
        <ele>904.56</ele>
        <time>2016-03-13T11:16:15Z</time>
      </trkpt>
      <trkpt lat="44.32246" lon="3.16463">
        <ele>904.36</ele>
        <time>2016-03-13T11:16:16Z</time>
      </trkpt>
      <trkpt lat="44.3225" lon="3.16468">
        <ele>902.97</ele>
        <time>2016-03-13T11:16:22Z</time>
      </trkpt>
      <trkpt lat="44.32251" lon="3.1647">
        <ele>902.81</ele>
        <time>2016-03-13T11:16:23Z</time>
      </trkpt>
      <trkpt lat="44.32251" lon="3.16471">
        <ele>902.69</ele>
        <time>2016-03-13T11:16:24Z</time>
      </trkpt>
      <trkpt lat="44.32252" lon="3.16473">
        <ele>902.56</ele>
        <time>2016-03-13T11:16:25Z</time>
      </trkpt>
      <trkpt lat="44.32252" lon="3.16476">
        <ele>902.23</ele>
        <time>2016-03-13T11:16:26Z</time>
      </trkpt>
      <trkpt lat="44.32253" lon="3.16478">
        <ele>902.01</ele>
        <time>2016-03-13T11:16:27Z</time>
      </trkpt>
      <trkpt lat="44.32253" lon="3.1648">
        <ele>901.78</ele>
        <time>2016-03-13T11:16:28Z</time>
      </trkpt>
      <trkpt lat="44.32254" lon="3.16483">
        <ele>901.55</ele>
        <time>2016-03-13T11:16:29Z</time>
      </trkpt>
      <trkpt lat="44.32254" lon="3.16485">
        <ele>901.33</ele>
        <time>2016-03-13T11:16:30Z</time>
      </trkpt>
      <trkpt lat="44.32255" lon="3.16487">
        <ele>901.1</ele>
        <time>2016-03-13T11:16:31Z</time>
      </trkpt>
      <trkpt lat="44.32255" lon="3.1649">
        <ele>900.29</ele>
        <time>2016-03-13T11:16:36Z</time>
      </trkpt>
      <trkpt lat="44.32252" lon="3.16491">
        <ele>900.76</ele>
        <time>2016-03-13T11:21:49Z</time>
      </trkpt>
      <trkpt lat="44.32251" lon="3.16494">
        <ele>900.59</ele>
        <time>2016-03-13T11:21:50Z</time>
      </trkpt>
      <trkpt lat="44.32248" lon="3.16495">
        <ele>900.39</ele>
        <time>2016-03-13T11:21:51Z</time>
      </trkpt>
      <trkpt lat="44.32246" lon="3.16496">
        <ele>900.13</ele>
        <time>2016-03-13T11:21:52Z</time>
      </trkpt>
      <trkpt lat="44.32243" lon="3.16497">
        <ele>899.85</ele>
        <time>2016-03-13T11:21:53Z</time>
      </trkpt>
      <trkpt lat="44.32241" lon="3.16497">
        <ele>899.61</ele>
        <time>2016-03-13T11:21:54Z</time>
      </trkpt>
      <trkpt lat="44.32239" lon="3.16497">
        <ele>899.43</ele>
        <time>2016-03-13T11:21:55Z</time>
      </trkpt>
      <trkpt lat="44.32237" lon="3.16498">
        <ele>899.28</ele>
        <time>2016-03-13T11:21:56Z</time>
      </trkpt>
      <trkpt lat="44.32235" lon="3.16499">
        <ele>899.22</ele>
        <time>2016-03-13T11:21:57Z</time>
      </trkpt>
      <trkpt lat="44.32233" lon="3.165">
        <ele>899.21</ele>
        <time>2016-03-13T11:21:58Z</time>
      </trkpt>
      <trkpt lat="44.32232" lon="3.165">
        <ele>899.24</ele>
        <time>2016-03-13T11:21:59Z</time>
      </trkpt>
      <trkpt lat="44.32231" lon="3.165">
        <ele>899.32</ele>
        <time>2016-03-13T11:22:00Z</time>
      </trkpt>
      <trkpt lat="44.32229" lon="3.16499">
        <ele>899.34</ele>
        <time>2016-03-13T11:22:01Z</time>
      </trkpt>
      <trkpt lat="44.32227" lon="3.16499">
        <ele>899.65</ele>
        <time>2016-03-13T11:22:06Z</time>
      </trkpt>
      <trkpt lat="44.32229" lon="3.16509">
        <ele>899.68</ele>
        <time>2016-03-13T11:25:20Z</time>
      </trkpt>
      <trkpt lat="44.32203" lon="3.16526">
        <ele>897.83</ele>
        <time>2016-03-13T11:25:32Z</time>
      </trkpt>
      <trkpt lat="44.32202" lon="3.16528">
        <ele>897.83</ele>
        <time>2016-03-13T11:25:33Z</time>
      </trkpt>
      <trkpt lat="44.32201" lon="3.1653">
        <ele>897.65</ele>
        <time>2016-03-13T11:25:34Z</time>
      </trkpt>
      <trkpt lat="44.322" lon="3.16533">
        <ele>897.59</ele>
        <time>2016-03-13T11:25:35Z</time>
      </trkpt>
      <trkpt lat="44.32199" lon="3.16537">
        <ele>897.53</ele>
        <time>2016-03-13T11:25:36Z</time>
      </trkpt>
      <trkpt lat="44.32199" lon="3.16541">
        <ele>897.46</ele>
        <time>2016-03-13T11:25:37Z</time>
      </trkpt>
      <trkpt lat="44.32206" lon="3.166">
        <ele>896.07</ele>
        <time>2016-03-13T11:25:51Z</time>
      </trkpt>
      <trkpt lat="44.32207" lon="3.16603">
        <ele>896.07</ele>
        <time>2016-03-13T11:25:53Z</time>
      </trkpt>
      <trkpt lat="44.32207" lon="3.16605">
        <ele>896.08</ele>
        <time>2016-03-13T11:25:54Z</time>
      </trkpt>
      <trkpt lat="44.32208" lon="3.16608">
        <ele>896.09</ele>
        <time>2016-03-13T11:25:55Z</time>
      </trkpt>
      <trkpt lat="44.32208" lon="3.16621">
        <ele>896.17</ele>
        <time>2016-03-13T11:25:59Z</time>
      </trkpt>
      <trkpt lat="44.32209" lon="3.16624">
        <ele>896.21</ele>
        <time>2016-03-13T11:26:00Z</time>
      </trkpt>
      <trkpt lat="44.32211" lon="3.16627">
        <ele>896.25</ele>
        <time>2016-03-13T11:26:01Z</time>
      </trkpt>
      <trkpt lat="44.32245" lon="3.16657">
        <ele>896.55</ele>
        <time>2016-03-13T11:26:19Z</time>
      </trkpt>
      <trkpt lat="44.32287" lon="3.16647">
        <ele>895.81</ele>
        <time>2016-03-13T11:26:35Z</time>
      </trkpt>
      <trkpt lat="44.32316" lon="3.16656">
        <ele>896.68</ele>
        <time>2016-03-13T11:26:51Z</time>
      </trkpt>
      <trkpt lat="44.32341" lon="3.16673">
        <ele>898.37</ele>
        <time>2016-03-13T11:27:10Z</time>
      </trkpt>
      <trkpt lat="44.32345" lon="3.16676">
        <ele>898.77</ele>
        <time>2016-03-13T11:27:18Z</time>
      </trkpt>
      <trkpt lat="44.3232" lon="3.16667">
        <ele>900.98</ele>
        <time>2016-03-13T12:04:15Z</time>
      </trkpt>
      <trkpt lat="44.32323" lon="3.16664">
        <ele>900.44</ele>
        <time>2016-03-13T12:04:16Z</time>
      </trkpt>
      <trkpt lat="44.32312" lon="3.16654">
        <ele>893.96</ele>
        <time>2016-03-13T12:04:21Z</time>
      </trkpt>
      <trkpt lat="44.32308" lon="3.16652">
        <ele>888.77</ele>
        <time>2016-03-13T12:04:22Z</time>
      </trkpt>
      <trkpt lat="44.32303" lon="3.1665">
        <ele>884.56</ele>
        <time>2016-03-13T12:04:23Z</time>
      </trkpt>
      <trkpt lat="44.32299" lon="3.16648">
        <ele>881.19</ele>
        <time>2016-03-13T12:04:24Z</time>
      </trkpt>
      <trkpt lat="44.32293" lon="3.16648">
        <ele>878.4</ele>
        <time>2016-03-13T12:04:25Z</time>
      </trkpt>
      <trkpt lat="44.32278" lon="3.1665">
        <ele>872.72</ele>
        <time>2016-03-13T12:04:28Z</time>
      </trkpt>
      <trkpt lat="44.32273" lon="3.16653">
        <ele>871.49</ele>
        <time>2016-03-13T12:04:29Z</time>
      </trkpt>
      <trkpt lat="44.32268" lon="3.16655">
        <ele>870.48</ele>
        <time>2016-03-13T12:04:30Z</time>
      </trkpt>
      <trkpt lat="44.32264" lon="3.16656">
        <ele>869.65</ele>
        <time>2016-03-13T12:04:31Z</time>
      </trkpt>
      <trkpt lat="44.32259" lon="3.16657">
        <ele>868.96</ele>
        <time>2016-03-13T12:04:32Z</time>
      </trkpt>
      <trkpt lat="44.32255" lon="3.16657">
        <ele>868.38</ele>
        <time>2016-03-13T12:04:33Z</time>
      </trkpt>
      <trkpt lat="44.32251" lon="3.16657">
        <ele>867.92</ele>
        <time>2016-03-13T12:04:34Z</time>
      </trkpt>
      <trkpt lat="44.32218" lon="3.16638">
        <ele>866.49</ele>
        <time>2016-03-13T12:04:48Z</time>
      </trkpt>
      <trkpt lat="44.32182" lon="3.16633">
        <ele>866.99</ele>
        <time>2016-03-13T12:05:03Z</time>
      </trkpt>
      <trkpt lat="44.32148" lon="3.1667">
        <ele>866.54</ele>
        <time>2016-03-13T12:05:16Z</time>
      </trkpt>
      <trkpt lat="44.32095" lon="3.16766">
        <ele>864.96</ele>
        <time>2016-03-13T12:05:37Z</time>
      </trkpt>
      <trkpt lat="44.3207" lon="3.16809">
        <ele>863.72</ele>
        <time>2016-03-13T12:05:47Z</time>
      </trkpt>
      <trkpt lat="44.32066" lon="3.16812">
        <ele>863.58</ele>
        <time>2016-03-13T12:05:48Z</time>
      </trkpt>
      <trkpt lat="44.32061" lon="3.16814">
        <ele>863.43</ele>
        <time>2016-03-13T12:05:49Z</time>
      </trkpt>
      <trkpt lat="44.32006" lon="3.16858">
        <ele>860.7</ele>
        <time>2016-03-13T12:06:01Z</time>
      </trkpt>
      <trkpt lat="44.31973" lon="3.16898">
        <ele>858.56</ele>
        <time>2016-03-13T12:06:07Z</time>
      </trkpt>
      <trkpt lat="44.31934" lon="3.16961">
        <ele>855.26</ele>
        <time>2016-03-13T12:06:14Z</time>
      </trkpt>
      <trkpt lat="44.31872" lon="3.17033">
        <ele>852.18</ele>
        <time>2016-03-13T12:06:24Z</time>
      </trkpt>
      <trkpt lat="44.31793" lon="3.17108">
        <ele>853.53</ele>
        <time>2016-03-13T12:06:42Z</time>
      </trkpt>
      <trkpt lat="44.31782" lon="3.1712">
        <ele>853.86</ele>
        <time>2016-03-13T12:06:45Z</time>
      </trkpt>
      <trkpt lat="44.31744" lon="3.17175">
        <ele>856.26</ele>
        <time>2016-03-13T12:07:01Z</time>
      </trkpt>
      <trkpt lat="44.31704" lon="3.17223">
        <ele>858.54</ele>
        <time>2016-03-13T12:07:19Z</time>
      </trkpt>
      <trkpt lat="44.31647" lon="3.17273">
        <ele>861.05</ele>
        <time>2016-03-13T12:07:42Z</time>
      </trkpt>
      <trkpt lat="44.3157" lon="3.17292">
        <ele>859.39</ele>
        <time>2016-03-13T12:07:57Z</time>
      </trkpt>
      <trkpt lat="44.31499" lon="3.17311">
        <ele>856.18</ele>
        <time>2016-03-13T12:08:05Z</time>
      </trkpt>
      <trkpt lat="44.31431" lon="3.17331">
        <ele>852.34</ele>
        <time>2016-03-13T12:08:12Z</time>
      </trkpt>
      <trkpt lat="44.31422" lon="3.17334">
        <ele>852.34</ele>
        <time>2016-03-13T12:08:13Z</time>
      </trkpt>
      <trkpt lat="44.31405" lon="3.17343">
        <ele>851.16</ele>
        <time>2016-03-13T12:08:15Z</time>
      </trkpt>
      <trkpt lat="44.31398" lon="3.17349">
        <ele>850.87</ele>
        <time>2016-03-13T12:08:16Z</time>
      </trkpt>
      <trkpt lat="44.31392" lon="3.17356">
        <ele>850.64</ele>
        <time>2016-03-13T12:08:17Z</time>
      </trkpt>
      <trkpt lat="44.31356" lon="3.17412">
        <ele>850.88</ele>
        <time>2016-03-13T12:08:26Z</time>
      </trkpt>
      <trkpt lat="44.31353" lon="3.17418">
        <ele>851.21</ele>
        <time>2016-03-13T12:08:27Z</time>
      </trkpt>
      <trkpt lat="44.3135" lon="3.17423">
        <ele>851.56</ele>
        <time>2016-03-13T12:08:28Z</time>
      </trkpt>
      <trkpt lat="44.31347" lon="3.17427">
        <ele>851.92</ele>
        <time>2016-03-13T12:08:29Z</time>
      </trkpt>
      <trkpt lat="44.31344" lon="3.17431">
        <ele>852.27</ele>
        <time>2016-03-13T12:08:30Z</time>
      </trkpt>
      <trkpt lat="44.31342" lon="3.17435">
        <ele>852.57</ele>
        <time>2016-03-13T12:08:31Z</time>
      </trkpt>
      <trkpt lat="44.31319" lon="3.17474">
        <ele>855.64</ele>
        <time>2016-03-13T12:08:44Z</time>
      </trkpt>
      <trkpt lat="44.31292" lon="3.17517">
        <ele>858.71</ele>
        <time>2016-03-13T12:09:00Z</time>
      </trkpt>
      <trkpt lat="44.31254" lon="3.17517">
        <ele>861.71</ele>
        <time>2016-03-13T12:09:17Z</time>
      </trkpt>
      <trkpt lat="44.31218" lon="3.17492">
        <ele>862.04</ele>
        <time>2016-03-13T12:09:35Z</time>
      </trkpt>
      <trkpt lat="44.31161" lon="3.17454">
        <ele>861.17</ele>
        <time>2016-03-13T12:09:52Z</time>
      </trkpt>
      <trkpt lat="44.31082" lon="3.17408">
        <ele>858.09</ele>
        <time>2016-03-13T12:10:06Z</time>
      </trkpt>
      <trkpt lat="44.31061" lon="3.174">
        <ele>857.17</ele>
        <time>2016-03-13T12:10:10Z</time>
      </trkpt>
      <trkpt lat="44.31018" lon="3.17396">
        <ele>855.62</ele>
        <time>2016-03-13T12:10:18Z</time>
      </trkpt>
      <trkpt lat="44.31012" lon="3.17397">
        <ele>855.36</ele>
        <time>2016-03-13T12:10:19Z</time>
      </trkpt>
      <trkpt lat="44.30944" lon="3.17405">
        <ele>853.58</ele>
        <time>2016-03-13T12:10:35Z</time>
      </trkpt>
      <trkpt lat="44.30883" lon="3.17411">
        <ele>852.46</ele>
        <time>2016-03-13T12:10:52Z</time>
      </trkpt>
      <trkpt lat="44.3083" lon="3.17401">
        <ele>850.55</ele>
        <time>2016-03-13T12:11:07Z</time>
      </trkpt>
      <trkpt lat="44.30828" lon="3.17396">
        <ele>850.44</ele>
        <time>2016-03-13T12:11:08Z</time>
      </trkpt>
      <trkpt lat="44.30826" lon="3.17391">
        <ele>850.32</ele>
        <time>2016-03-13T12:11:09Z</time>
      </trkpt>
      <trkpt lat="44.30822" lon="3.1738">
        <ele>850.11</ele>
        <time>2016-03-13T12:11:11Z</time>
      </trkpt>
      <trkpt lat="44.30819" lon="3.17374">
        <ele>850.01</ele>
        <time>2016-03-13T12:11:12Z</time>
      </trkpt>
      <trkpt lat="44.30817" lon="3.17369">
        <ele>849.77</ele>
        <time>2016-03-13T12:11:13Z</time>
      </trkpt>
      <trkpt lat="44.30815" lon="3.17364">
        <ele>849.66</ele>
        <time>2016-03-13T12:11:14Z</time>
      </trkpt>
      <trkpt lat="44.30813" lon="3.17358">
        <ele>849.56</ele>
        <time>2016-03-13T12:11:15Z</time>
      </trkpt>
      <trkpt lat="44.3081" lon="3.17353">
        <ele>849.47</ele>
        <time>2016-03-13T12:11:16Z</time>
      </trkpt>
      <trkpt lat="44.30808" lon="3.17347">
        <ele>849.37</ele>
        <time>2016-03-13T12:11:17Z</time>
      </trkpt>
      <trkpt lat="44.30776" lon="3.17263">
        <ele>847.39</ele>
        <time>2016-03-13T12:11:30Z</time>
      </trkpt>
      <trkpt lat="44.30773" lon="3.17258">
        <ele>847.23</ele>
        <time>2016-03-13T12:11:31Z</time>
      </trkpt>
      <trkpt lat="44.3077" lon="3.17252">
        <ele>847.09</ele>
        <time>2016-03-13T12:11:32Z</time>
      </trkpt>
      <trkpt lat="44.30766" lon="3.17248">
        <ele>846.97</ele>
        <time>2016-03-13T12:11:33Z</time>
      </trkpt>
      <trkpt lat="44.30762" lon="3.17243">
        <ele>846.88</ele>
        <time>2016-03-13T12:11:34Z</time>
      </trkpt>
      <trkpt lat="44.30759" lon="3.17239">
        <ele>846.78</ele>
        <time>2016-03-13T12:11:35Z</time>
      </trkpt>
      <trkpt lat="44.30756" lon="3.17234">
        <ele>846.69</ele>
        <time>2016-03-13T12:11:36Z</time>
      </trkpt>
      <trkpt lat="44.30756" lon="3.17229">
        <ele>846.5</ele>
        <time>2016-03-13T12:11:37Z</time>
      </trkpt>
      <trkpt lat="44.30759" lon="3.17226">
        <ele>846.43</ele>
        <time>2016-03-13T12:11:38Z</time>
      </trkpt>
      <trkpt lat="44.30761" lon="3.17222">
        <ele>846.37</ele>
        <time>2016-03-13T12:11:39Z</time>
      </trkpt>
      <trkpt lat="44.30764" lon="3.17218">
        <ele>846.33</ele>
        <time>2016-03-13T12:11:40Z</time>
      </trkpt>
      <trkpt lat="44.30765" lon="3.17214">
        <ele>846.32</ele>
        <time>2016-03-13T12:11:41Z</time>
      </trkpt>
      <trkpt lat="44.30766" lon="3.17209">
        <ele>846.31</ele>
        <time>2016-03-13T12:11:42Z</time>
      </trkpt>
      <trkpt lat="44.30767" lon="3.17204">
        <ele>846.3</ele>
        <time>2016-03-13T12:11:43Z</time>
      </trkpt>
      <trkpt lat="44.30768" lon="3.17185">
        <ele>846.1</ele>
        <time>2016-03-13T12:11:54Z</time>
      </trkpt>
      <trkpt lat="44.30768" lon="3.17183">
        <ele>846.14</ele>
        <time>2016-03-13T12:11:58Z</time>
      </trkpt>
      <trkpt lat="44.30768" lon="3.17195">
        <ele>846.92</ele>
        <time>2016-03-13T12:12:54Z</time>
      </trkpt>
      <trkpt lat="44.30768" lon="3.17197">
        <ele>846.97</ele>
        <time>2016-03-13T12:12:55Z</time>
      </trkpt>
      <trkpt lat="44.30768" lon="3.17199">
        <ele>847.01</ele>
        <time>2016-03-13T12:12:56Z</time>
      </trkpt>
      <trkpt lat="44.30768" lon="3.172">
        <ele>847.02</ele>
        <time>2016-03-13T12:12:57Z</time>
      </trkpt>
      <trkpt lat="44.30767" lon="3.17202">
        <ele>847.02</ele>
        <time>2016-03-13T12:12:58Z</time>
      </trkpt>
      <trkpt lat="44.30767" lon="3.17204">
        <ele>847.02</ele>
        <time>2016-03-13T12:12:59Z</time>
      </trkpt>
      <trkpt lat="44.30754" lon="3.17231">
        <ele>847.59</ele>
        <time>2016-03-13T12:13:11Z</time>
      </trkpt>
      <trkpt lat="44.30704" lon="3.17235">
        <ele>848.55</ele>
        <time>2016-03-13T12:13:29Z</time>
      </trkpt>
      <trkpt lat="44.30649" lon="3.17249">
        <ele>851.32</ele>
        <time>2016-03-13T12:13:51Z</time>
      </trkpt>
      <trkpt lat="44.30594" lon="3.17273">
        <ele>853.89</ele>
        <time>2016-03-13T12:14:13Z</time>
      </trkpt>
      <trkpt lat="44.30534" lon="3.17306">
        <ele>855.14</ele>
        <time>2016-03-13T12:14:32Z</time>
      </trkpt>
      <trkpt lat="44.30468" lon="3.17262">
        <ele>854.56</ele>
        <time>2016-03-13T12:14:50Z</time>
      </trkpt>
      <trkpt lat="44.30378" lon="3.17225">
        <ele>851.7</ele>
        <time>2016-03-13T12:15:06Z</time>
      </trkpt>
      <trkpt lat="44.30326" lon="3.1722">
        <ele>850.14</ele>
        <time>2016-03-13T12:15:14Z</time>
      </trkpt>
      <trkpt lat="44.30321" lon="3.17221">
        <ele>849.96</ele>
        <time>2016-03-13T12:15:15Z</time>
      </trkpt>
      <trkpt lat="44.30246" lon="3.17247">
        <ele>851.5</ele>
        <time>2016-03-13T12:15:33Z</time>
      </trkpt>
      <trkpt lat="44.30189" lon="3.17269">
        <ele>854.51</ele>
        <time>2016-03-13T12:15:49Z</time>
      </trkpt>
      <trkpt lat="44.30118" lon="3.17305">
        <ele>855.4</ele>
        <time>2016-03-13T12:16:09Z</time>
      </trkpt>
      <trkpt lat="44.30021" lon="3.17341">
        <ele>853.26</ele>
        <time>2016-03-13T12:16:25Z</time>
      </trkpt>
      <trkpt lat="44.29937" lon="3.17373">
        <ele>850.14</ele>
        <time>2016-03-13T12:16:35Z</time>
      </trkpt>
      <trkpt lat="44.2987" lon="3.17397">
        <ele>847.11</ele>
        <time>2016-03-13T12:16:43Z</time>
      </trkpt>
      <trkpt lat="44.29783" lon="3.17409">
        <ele>847.32</ele>
        <time>2016-03-13T12:16:58Z</time>
      </trkpt>
      <trkpt lat="44.2972" lon="3.17407">
        <ele>850.36</ele>
        <time>2016-03-13T12:17:15Z</time>
      </trkpt>
      <trkpt lat="44.29662" lon="3.17407">
        <ele>852.82</ele>
        <time>2016-03-13T12:17:35Z</time>
      </trkpt>
      <trkpt lat="44.29588" lon="3.17409">
        <ele>853.18</ele>
        <time>2016-03-13T12:17:56Z</time>
      </trkpt>
      <trkpt lat="44.29504" lon="3.17403">
        <ele>851.6</ele>
        <time>2016-03-13T12:18:15Z</time>
      </trkpt>
      <trkpt lat="44.29502" lon="3.17399">
        <ele>851.35</ele>
        <time>2016-03-13T12:18:16Z</time>
      </trkpt>
      <trkpt lat="44.29501" lon="3.17393">
        <ele>851.09</ele>
        <time>2016-03-13T12:18:17Z</time>
      </trkpt>
      <trkpt lat="44.29502" lon="3.17386">
        <ele>850.83</ele>
        <time>2016-03-13T12:18:18Z</time>
      </trkpt>
      <trkpt lat="44.29503" lon="3.17381">
        <ele>850.53</ele>
        <time>2016-03-13T12:18:19Z</time>
      </trkpt>
      <trkpt lat="44.29506" lon="3.17375">
        <ele>849.88</ele>
        <time>2016-03-13T12:18:20Z</time>
      </trkpt>
      <trkpt lat="44.29508" lon="3.17369">
        <ele>849.56</ele>
        <time>2016-03-13T12:18:21Z</time>
      </trkpt>
      <trkpt lat="44.29527" lon="3.17327">
        <ele>847.59</ele>
        <time>2016-03-13T12:18:28Z</time>
      </trkpt>
      <trkpt lat="44.29562" lon="3.17274">
        <ele>844.37</ele>
        <time>2016-03-13T12:18:37Z</time>
      </trkpt>
      <trkpt lat="44.29582" lon="3.17233">
        <ele>842.62</ele>
        <time>2016-03-13T12:18:42Z</time>
      </trkpt>
      <trkpt lat="44.29587" lon="3.17224">
        <ele>842.13</ele>
        <time>2016-03-13T12:18:43Z</time>
      </trkpt>
      <trkpt lat="44.29593" lon="3.17216">
        <ele>841.6</ele>
        <time>2016-03-13T12:18:44Z</time>
      </trkpt>
      <trkpt lat="44.29611" lon="3.17192">
        <ele>839.2</ele>
        <time>2016-03-13T12:18:47Z</time>
      </trkpt>
      <trkpt lat="44.29616" lon="3.17182">
        <ele>838.6</ele>
        <time>2016-03-13T12:18:48Z</time>
      </trkpt>
      <trkpt lat="44.2962" lon="3.17173">
        <ele>838.1</ele>
        <time>2016-03-13T12:18:49Z</time>
      </trkpt>
      <trkpt lat="44.29635" lon="3.17129">
        <ele>836.53</ele>
        <time>2016-03-13T12:18:58Z</time>
      </trkpt>
      <trkpt lat="44.29646" lon="3.17072">
        <ele>838.67</ele>
        <time>2016-03-13T12:19:13Z</time>
      </trkpt>
      <trkpt lat="44.29684" lon="3.1706">
        <ele>838.78</ele>
        <time>2016-03-13T12:19:30Z</time>
      </trkpt>
      <trkpt lat="44.29688" lon="3.17058">
        <ele>838.82</ele>
        <time>2016-03-13T12:19:33Z</time>
      </trkpt>
      <trkpt lat="44.2969" lon="3.17058">
        <ele>838.88</ele>
        <time>2016-03-13T12:19:34Z</time>
      </trkpt>
      <trkpt lat="44.29692" lon="3.17058">
        <ele>838.91</ele>
        <time>2016-03-13T12:19:35Z</time>
      </trkpt>
      <trkpt lat="44.29695" lon="3.17059">
        <ele>838.94</ele>
        <time>2016-03-13T12:19:36Z</time>
      </trkpt>
      <trkpt lat="44.29697" lon="3.1706">
        <ele>838.96</ele>
        <time>2016-03-13T12:19:37Z</time>
      </trkpt>
      <trkpt lat="44.29699" lon="3.17062">
        <ele>838.98</ele>
        <time>2016-03-13T12:19:38Z</time>
      </trkpt>
      <trkpt lat="44.29703" lon="3.17065">
        <ele>839.11</ele>
        <time>2016-03-13T12:19:41Z</time>
      </trkpt>
      <trkpt lat="44.29705" lon="3.17066">
        <ele>839.46</ele>
        <time>2016-03-13T12:19:45Z</time>
      </trkpt>
      <trkpt lat="44.29695" lon="3.17061">
        <ele>843.63</ele>
        <time>2016-03-13T12:25:01Z</time>
      </trkpt>
      <trkpt lat="44.29664" lon="3.17064">
        <ele>843.95</ele>
        <time>2016-03-13T12:25:13Z</time>
      </trkpt>
      <trkpt lat="44.29604" lon="3.17062">
        <ele>843.61</ele>
        <time>2016-03-13T12:25:32Z</time>
      </trkpt>
      <trkpt lat="44.29557" lon="3.17051">
        <ele>844.08</ele>
        <time>2016-03-13T12:25:50Z</time>
      </trkpt>
      <trkpt lat="44.29512" lon="3.17051">
        <ele>846.01</ele>
        <time>2016-03-13T12:26:09Z</time>
      </trkpt>
      <trkpt lat="44.29479" lon="3.1704">
        <ele>848.45</ele>
        <time>2016-03-13T12:26:25Z</time>
      </trkpt>
      <trkpt lat="44.29474" lon="3.17025">
        <ele>849.53</ele>
        <time>2016-03-13T12:26:32Z</time>
      </trkpt>
      <trkpt lat="44.29475" lon="3.17023">
        <ele>849.69</ele>
        <time>2016-03-13T12:26:33Z</time>
      </trkpt>
      <trkpt lat="44.29489" lon="3.16982">
        <ele>852.86</ele>
        <time>2016-03-13T12:26:52Z</time>
      </trkpt>
      <trkpt lat="44.29491" lon="3.16976">
        <ele>853.37</ele>
        <time>2016-03-13T12:26:55Z</time>
      </trkpt>
      <trkpt lat="44.2949" lon="3.16974">
        <ele>853.52</ele>
        <time>2016-03-13T12:26:56Z</time>
      </trkpt>
      <trkpt lat="44.29489" lon="3.16972">
        <ele>853.66</ele>
        <time>2016-03-13T12:26:57Z</time>
      </trkpt>
      <trkpt lat="44.29486" lon="3.16962">
        <ele>854.3</ele>
        <time>2016-03-13T12:27:02Z</time>
      </trkpt>
      <trkpt lat="44.29485" lon="3.1696">
        <ele>854.42</ele>
        <time>2016-03-13T12:27:03Z</time>
      </trkpt>
      <trkpt lat="44.29484" lon="3.16959">
        <ele>854.52</ele>
        <time>2016-03-13T12:27:04Z</time>
      </trkpt>
      <trkpt lat="44.29483" lon="3.16957">
        <ele>854.61</ele>
        <time>2016-03-13T12:27:05Z</time>
      </trkpt>
      <trkpt lat="44.29483" lon="3.16954">
        <ele>854.71</ele>
        <time>2016-03-13T12:27:06Z</time>
      </trkpt>
      <trkpt lat="44.29483" lon="3.16952">
        <ele>854.8</ele>
        <time>2016-03-13T12:27:07Z</time>
      </trkpt>
      <trkpt lat="44.29484" lon="3.16898">
        <ele>856.89</ele>
        <time>2016-03-13T12:27:27Z</time>
      </trkpt>
      <trkpt lat="44.29465" lon="3.16861">
        <ele>859.21</ele>
        <time>2016-03-13T12:27:45Z</time>
      </trkpt>
      <trkpt lat="44.29431" lon="3.16855">
        <ele>860.25</ele>
        <time>2016-03-13T12:28:02Z</time>
      </trkpt>
      <trkpt lat="44.29401" lon="3.1683">
        <ele>861.61</ele>
        <time>2016-03-13T12:28:20Z</time>
      </trkpt>
      <trkpt lat="44.29358" lon="3.16831">
        <ele>864.59</ele>
        <time>2016-03-13T12:28:40Z</time>
      </trkpt>
      <trkpt lat="44.29334" lon="3.16812">
        <ele>867.61</ele>
        <time>2016-03-13T12:28:55Z</time>
      </trkpt>
      <trkpt lat="44.2932" lon="3.16766">
        <ele>868.95</ele>
        <time>2016-03-13T12:29:13Z</time>
      </trkpt>
      <trkpt lat="44.29285" lon="3.16708">
        <ele>868.55</ele>
        <time>2016-03-13T12:29:31Z</time>
      </trkpt>
      <trkpt lat="44.29263" lon="3.16634">
        <ele>867.5</ele>
        <time>2016-03-13T12:29:49Z</time>
      </trkpt>
      <trkpt lat="44.29233" lon="3.1656">
        <ele>867.71</ele>
        <time>2016-03-13T12:30:10Z</time>
      </trkpt>
      <trkpt lat="44.29207" lon="3.16494">
        <ele>865.16</ele>
        <time>2016-03-13T12:30:27Z</time>
      </trkpt>
      <trkpt lat="44.29184" lon="3.16414">
        <ele>862.69</ele>
        <time>2016-03-13T12:30:44Z</time>
      </trkpt>
      <trkpt lat="44.29163" lon="3.16353">
        <ele>862.51</ele>
        <time>2016-03-13T12:31:00Z</time>
      </trkpt>
      <trkpt lat="44.29129" lon="3.16258">
        <ele>860</ele>
        <time>2016-03-13T12:31:20Z</time>
      </trkpt>
      <trkpt lat="44.29107" lon="3.16199">
        <ele>857.81</ele>
        <time>2016-03-13T12:31:35Z</time>
      </trkpt>
      <trkpt lat="44.29106" lon="3.16197">
        <ele>857.53</ele>
        <time>2016-03-13T12:31:40Z</time>
      </trkpt>
      <trkpt lat="44.29087" lon="3.16164">
        <ele>858.16</ele>
        <time>2016-03-13T12:32:41Z</time>
      </trkpt>
      <trkpt lat="44.29061" lon="3.16124">
        <ele>859.51</ele>
        <time>2016-03-13T12:32:58Z</time>
      </trkpt>
      <trkpt lat="44.29036" lon="3.16086">
        <ele>861.3</ele>
        <time>2016-03-13T12:33:16Z</time>
      </trkpt>
      <trkpt lat="44.29013" lon="3.16045">
        <ele>863.08</ele>
        <time>2016-03-13T12:33:34Z</time>
      </trkpt>
      <trkpt lat="44.28989" lon="3.16005">
        <ele>865.86</ele>
        <time>2016-03-13T12:33:52Z</time>
      </trkpt>
      <trkpt lat="44.28964" lon="3.15966">
        <ele>868.41</ele>
        <time>2016-03-13T12:34:10Z</time>
      </trkpt>
      <trkpt lat="44.28935" lon="3.15925">
        <ele>871.23</ele>
        <time>2016-03-13T12:34:31Z</time>
      </trkpt>
      <trkpt lat="44.28911" lon="3.15892">
        <ele>872.91</ele>
        <time>2016-03-13T12:34:49Z</time>
      </trkpt>
      <trkpt lat="44.28868" lon="3.15882">
        <ele>874.84</ele>
        <time>2016-03-13T12:35:10Z</time>
      </trkpt>
      <trkpt lat="44.28841" lon="3.15869">
        <ele>875.41</ele>
        <time>2016-03-13T12:35:24Z</time>
      </trkpt>
      <trkpt lat="44.28809" lon="3.15844">
        <ele>875.06</ele>
        <time>2016-03-13T12:35:39Z</time>
      </trkpt>
      <trkpt lat="44.28782" lon="3.1582">
        <ele>874.18</ele>
        <time>2016-03-13T12:35:54Z</time>
      </trkpt>
      <trkpt lat="44.28755" lon="3.15798">
        <ele>873.46</ele>
        <time>2016-03-13T12:36:08Z</time>
      </trkpt>
      <trkpt lat="44.28729" lon="3.1578">
        <ele>873.25</ele>
        <time>2016-03-13T12:36:24Z</time>
      </trkpt>
      <trkpt lat="44.28726" lon="3.15777">
        <ele>873.34</ele>
        <time>2016-03-13T12:36:26Z</time>
      </trkpt>
      <trkpt lat="44.28725" lon="3.15776">
        <ele>873.37</ele>
        <time>2016-03-13T12:36:27Z</time>
      </trkpt>
      <trkpt lat="44.28724" lon="3.15774">
        <ele>873.39</ele>
        <time>2016-03-13T12:36:28Z</time>
      </trkpt>
      <trkpt lat="44.28722" lon="3.15773">
        <ele>873.42</ele>
        <time>2016-03-13T12:36:29Z</time>
      </trkpt>
      <trkpt lat="44.2872" lon="3.15771">
        <ele>873.44</ele>
        <time>2016-03-13T12:36:30Z</time>
      </trkpt>
      <trkpt lat="44.28712" lon="3.15763">
        <ele>873.51</ele>
        <time>2016-03-13T12:36:35Z</time>
      </trkpt>
      <trkpt lat="44.2871" lon="3.15761">
        <ele>873.53</ele>
        <time>2016-03-13T12:36:36Z</time>
      </trkpt>
      <trkpt lat="44.28708" lon="3.1576">
        <ele>873.56</ele>
        <time>2016-03-13T12:36:37Z</time>
      </trkpt>
      <trkpt lat="44.28706" lon="3.15758">
        <ele>873.59</ele>
        <time>2016-03-13T12:36:38Z</time>
      </trkpt>
      <trkpt lat="44.28704" lon="3.15757">
        <ele>873.62</ele>
        <time>2016-03-13T12:36:39Z</time>
      </trkpt>
      <trkpt lat="44.28703" lon="3.15755">
        <ele>873.64</ele>
        <time>2016-03-13T12:36:40Z</time>
      </trkpt>
      <trkpt lat="44.28701" lon="3.15754">
        <ele>873.67</ele>
        <time>2016-03-13T12:36:41Z</time>
      </trkpt>
      <trkpt lat="44.287" lon="3.15752">
        <ele>873.74</ele>
        <time>2016-03-13T12:36:42Z</time>
      </trkpt>
      <trkpt lat="44.28698" lon="3.15751">
        <ele>873.81</ele>
        <time>2016-03-13T12:36:43Z</time>
      </trkpt>
      <trkpt lat="44.28697" lon="3.15749">
        <ele>873.87</ele>
        <time>2016-03-13T12:36:44Z</time>
      </trkpt>
      <trkpt lat="44.28677" lon="3.1573">
        <ele>874.76</ele>
        <time>2016-03-13T12:36:59Z</time>
      </trkpt>
      <trkpt lat="44.28656" lon="3.15705">
        <ele>876.37</ele>
        <time>2016-03-13T12:37:15Z</time>
      </trkpt>
      <trkpt lat="44.28637" lon="3.15666">
        <ele>877.54</ele>
        <time>2016-03-13T12:37:31Z</time>
      </trkpt>
      <trkpt lat="44.28625" lon="3.15642">
        <ele>878.5</ele>
        <time>2016-03-13T12:37:41Z</time>
      </trkpt>
      <trkpt lat="44.28624" lon="3.1564">
        <ele>878.59</ele>
        <time>2016-03-13T12:37:42Z</time>
      </trkpt>
      <trkpt lat="44.28623" lon="3.15639">
        <ele>878.68</ele>
        <time>2016-03-13T12:37:43Z</time>
      </trkpt>
      <trkpt lat="44.28622" lon="3.15637">
        <ele>878.79</ele>
        <time>2016-03-13T12:37:44Z</time>
      </trkpt>
      <trkpt lat="44.28621" lon="3.15635">
        <ele>878.9</ele>
        <time>2016-03-13T12:37:45Z</time>
      </trkpt>
      <trkpt lat="44.2862" lon="3.15633">
        <ele>879.1</ele>
        <time>2016-03-13T12:37:46Z</time>
      </trkpt>
      <trkpt lat="44.28603" lon="3.15594">
        <ele>880.95</ele>
        <time>2016-03-13T12:38:05Z</time>
      </trkpt>
      <trkpt lat="44.28594" lon="3.15548">
        <ele>882.95</ele>
        <time>2016-03-13T12:38:25Z</time>
      </trkpt>
      <trkpt lat="44.28589" lon="3.15532">
        <ele>883.83</ele>
        <time>2016-03-13T12:38:33Z</time>
      </trkpt>
      <trkpt lat="44.28588" lon="3.1553">
        <ele>883.92</ele>
        <time>2016-03-13T12:38:34Z</time>
      </trkpt>
      <trkpt lat="44.28575" lon="3.15488">
        <ele>886.3</ele>
        <time>2016-03-13T12:38:53Z</time>
      </trkpt>
      <trkpt lat="44.28558" lon="3.15456">
        <ele>887.82</ele>
        <time>2016-03-13T12:39:10Z</time>
      </trkpt>
      <trkpt lat="44.28537" lon="3.15426">
        <ele>889.51</ele>
        <time>2016-03-13T12:39:28Z</time>
      </trkpt>
      <trkpt lat="44.28527" lon="3.1538">
        <ele>889</ele>
        <time>2016-03-13T12:39:44Z</time>
      </trkpt>
      <trkpt lat="44.2853" lon="3.15342">
        <ele>888.66</ele>
        <time>2016-03-13T12:39:59Z</time>
      </trkpt>
      <trkpt lat="44.28516" lon="3.15322">
        <ele>888.54</ele>
        <time>2016-03-13T12:40:09Z</time>
      </trkpt>
      <trkpt lat="44.28514" lon="3.15324">
        <ele>888.49</ele>
        <time>2016-03-13T12:40:10Z</time>
      </trkpt>
      <trkpt lat="44.28513" lon="3.15328">
        <ele>888.44</ele>
        <time>2016-03-13T12:40:11Z</time>
      </trkpt>
      <trkpt lat="44.28513" lon="3.15331">
        <ele>888.38</ele>
        <time>2016-03-13T12:40:12Z</time>
      </trkpt>
      <trkpt lat="44.28513" lon="3.15334">
        <ele>888.3</ele>
        <time>2016-03-13T12:40:13Z</time>
      </trkpt>
      <trkpt lat="44.28513" lon="3.15336">
        <ele>888.25</ele>
        <time>2016-03-13T12:40:14Z</time>
      </trkpt>
      <trkpt lat="44.28514" lon="3.15338">
        <ele>888.26</ele>
        <time>2016-03-13T12:40:18Z</time>
      </trkpt>
      <trkpt lat="44.28518" lon="3.15337">
        <ele>890.31</ele>
        <time>2016-03-13T12:46:17Z</time>
      </trkpt>
      <trkpt lat="44.28519" lon="3.15336">
        <ele>890.23</ele>
        <time>2016-03-13T12:46:22Z</time>
      </trkpt>
      <trkpt lat="44.28514" lon="3.15326">
        <ele>890.29</ele>
        <time>2016-03-13T12:46:36Z</time>
      </trkpt>
      <trkpt lat="44.28513" lon="3.15325">
        <ele>890.18</ele>
        <time>2016-03-13T12:46:37Z</time>
      </trkpt>
      <trkpt lat="44.28486" lon="3.15291">
        <ele>889.28</ele>
        <time>2016-03-13T12:46:50Z</time>
      </trkpt>
      <trkpt lat="44.28482" lon="3.15287">
        <ele>889.16</ele>
        <time>2016-03-13T12:46:51Z</time>
      </trkpt>
      <trkpt lat="44.28479" lon="3.15284">
        <ele>889.04</ele>
        <time>2016-03-13T12:46:52Z</time>
      </trkpt>
      <trkpt lat="44.28443" lon="3.1525">
        <ele>886.64</ele>
        <time>2016-03-13T12:47:03Z</time>
      </trkpt>
      <trkpt lat="44.28421" lon="3.1523">
        <ele>885.38</ele>
        <time>2016-03-13T12:47:09Z</time>
      </trkpt>
      <trkpt lat="44.28417" lon="3.15227">
        <ele>885.13</ele>
        <time>2016-03-13T12:47:10Z</time>
      </trkpt>
      <trkpt lat="44.28413" lon="3.15225">
        <ele>884.89</ele>
        <time>2016-03-13T12:47:11Z</time>
      </trkpt>
      <trkpt lat="44.28404" lon="3.1522">
        <ele>884.42</ele>
        <time>2016-03-13T12:47:13Z</time>
      </trkpt>
      <trkpt lat="44.28357" lon="3.1518">
        <ele>881.84</ele>
        <time>2016-03-13T12:47:24Z</time>
      </trkpt>
      <trkpt lat="44.28316" lon="3.15112">
        <ele>878.67</ele>
        <time>2016-03-13T12:47:34Z</time>
      </trkpt>
      <trkpt lat="44.28256" lon="3.15018">
        <ele>875.52</ele>
        <time>2016-03-13T12:47:47Z</time>
      </trkpt>
      <trkpt lat="44.28192" lon="3.14877">
        <ele>872.31</ele>
        <time>2016-03-13T12:48:04Z</time>
      </trkpt>
      <trkpt lat="44.28177" lon="3.14825">
        <ele>870.62</ele>
        <time>2016-03-13T12:48:09Z</time>
      </trkpt>
      <trkpt lat="44.28177" lon="3.14814">
        <ele>870.4</ele>
        <time>2016-03-13T12:48:10Z</time>
      </trkpt>
      <trkpt lat="44.28177" lon="3.14803">
        <ele>870.21</ele>
        <time>2016-03-13T12:48:11Z</time>
      </trkpt>
      <trkpt lat="44.28172" lon="3.14672">
        <ele>867.73</ele>
        <time>2016-03-13T12:48:25Z</time>
      </trkpt>
      <trkpt lat="44.28159" lon="3.14616">
        <ele>867.24</ele>
        <time>2016-03-13T12:48:33Z</time>
      </trkpt>
      <trkpt lat="44.28147" lon="3.14589">
        <ele>867.07</ele>
        <time>2016-03-13T12:48:38Z</time>
      </trkpt>
      <trkpt lat="44.28144" lon="3.14584">
        <ele>867.07</ele>
        <time>2016-03-13T12:48:39Z</time>
      </trkpt>
      <trkpt lat="44.28107" lon="3.14532">
        <ele>866.37</ele>
        <time>2016-03-13T12:48:50Z</time>
      </trkpt>
      <trkpt lat="44.28098" lon="3.14523">
        <ele>866.14</ele>
        <time>2016-03-13T12:48:52Z</time>
      </trkpt>
      <trkpt lat="44.28035" lon="3.14452">
        <ele>863.02</ele>
        <time>2016-03-13T12:49:06Z</time>
      </trkpt>
      <trkpt lat="44.27978" lon="3.14398">
        <ele>862.57</ele>
        <time>2016-03-13T12:49:23Z</time>
      </trkpt>
      <trkpt lat="44.27937" lon="3.14354">
        <ele>863.08</ele>
        <time>2016-03-13T12:49:38Z</time>
      </trkpt>
      <trkpt lat="44.27893" lon="3.14318">
        <ele>864.5</ele>
        <time>2016-03-13T12:49:52Z</time>
      </trkpt>
      <trkpt lat="44.2783" lon="3.1429">
        <ele>865.47</ele>
        <time>2016-03-13T12:50:09Z</time>
      </trkpt>
      <trkpt lat="44.27755" lon="3.14276">
        <ele>867.66</ele>
        <time>2016-03-13T12:50:30Z</time>
      </trkpt>
      <trkpt lat="44.27712" lon="3.14237">
        <ele>869.83</ele>
        <time>2016-03-13T12:50:46Z</time>
      </trkpt>
      <trkpt lat="44.27671" lon="3.14161">
        <ele>871.98</ele>
        <time>2016-03-13T12:51:08Z</time>
      </trkpt>
      <trkpt lat="44.27623" lon="3.14111">
        <ele>874.1</ele>
        <time>2016-03-13T12:51:28Z</time>
      </trkpt>
      <trkpt lat="44.27541" lon="3.14106">
        <ele>874.83</ele>
        <time>2016-03-13T12:51:52Z</time>
      </trkpt>
      <trkpt lat="44.27452" lon="3.14104">
        <ele>873.69</ele>
        <time>2016-03-13T12:52:11Z</time>
      </trkpt>
      <trkpt lat="44.27361" lon="3.14098">
        <ele>875.47</ele>
        <time>2016-03-13T12:52:33Z</time>
      </trkpt>
      <trkpt lat="44.27303" lon="3.14062">
        <ele>877.07</ele>
        <time>2016-03-13T12:52:49Z</time>
      </trkpt>
      <trkpt lat="44.2723" lon="3.13979">
        <ele>875.39</ele>
        <time>2016-03-13T12:53:06Z</time>
      </trkpt>
      <trkpt lat="44.272" lon="3.1394">
        <ele>874.63</ele>
        <time>2016-03-13T12:53:14Z</time>
      </trkpt>
      <trkpt lat="44.27197" lon="3.13935">
        <ele>874.63</ele>
        <time>2016-03-13T12:53:15Z</time>
      </trkpt>
      <trkpt lat="44.27193" lon="3.13931">
        <ele>874.63</ele>
        <time>2016-03-13T12:53:16Z</time>
      </trkpt>
      <trkpt lat="44.2719" lon="3.13926">
        <ele>874.68</ele>
        <time>2016-03-13T12:53:17Z</time>
      </trkpt>
      <trkpt lat="44.27186" lon="3.13921">
        <ele>874.76</ele>
        <time>2016-03-13T12:53:18Z</time>
      </trkpt>
      <trkpt lat="44.27139" lon="3.13862">
        <ele>875.87</ele>
        <time>2016-03-13T12:53:34Z</time>
      </trkpt>
      <trkpt lat="44.27096" lon="3.13804">
        <ele>876.81</ele>
        <time>2016-03-13T12:53:49Z</time>
      </trkpt>
      <trkpt lat="44.27083" lon="3.13789">
        <ele>877.19</ele>
        <time>2016-03-13T12:53:53Z</time>
      </trkpt>
      <trkpt lat="44.2708" lon="3.13785">
        <ele>877.29</ele>
        <time>2016-03-13T12:53:54Z</time>
      </trkpt>
      <trkpt lat="44.27073" lon="3.13777">
        <ele>877.48</ele>
        <time>2016-03-13T12:53:56Z</time>
      </trkpt>
      <trkpt lat="44.27018" lon="3.13714">
        <ele>878.3</ele>
        <time>2016-03-13T12:54:12Z</time>
      </trkpt>
      <trkpt lat="44.26995" lon="3.1366">
        <ele>881.47</ele>
        <time>2016-03-13T12:54:28Z</time>
      </trkpt>
      <trkpt lat="44.26973" lon="3.13569">
        <ele>884.11</ele>
        <time>2016-03-13T12:54:52Z</time>
      </trkpt>
      <trkpt lat="44.26948" lon="3.13484">
        <ele>884.27</ele>
        <time>2016-03-13T12:55:14Z</time>
      </trkpt>
      <trkpt lat="44.26885" lon="3.13404">
        <ele>880.77</ele>
        <time>2016-03-13T12:55:28Z</time>
      </trkpt>
      <trkpt lat="44.26824" lon="3.13366">
        <ele>877.35</ele>
        <time>2016-03-13T12:55:36Z</time>
      </trkpt>
      <trkpt lat="44.26754" lon="3.13302">
        <ele>875.46</ele>
        <time>2016-03-13T12:55:49Z</time>
      </trkpt>
      <trkpt lat="44.26711" lon="3.13243">
        <ele>876.17</ele>
        <time>2016-03-13T12:56:03Z</time>
      </trkpt>
      <trkpt lat="44.26708" lon="3.13238">
        <ele>876.22</ele>
        <time>2016-03-13T12:56:04Z</time>
      </trkpt>
      <trkpt lat="44.26688" lon="3.13149">
        <ele>877.7</ele>
        <time>2016-03-13T12:56:23Z</time>
      </trkpt>
      <trkpt lat="44.26678" lon="3.13066">
        <ele>879.05</ele>
        <time>2016-03-13T12:56:41Z</time>
      </trkpt>
      <trkpt lat="44.26664" lon="3.12981">
        <ele>879.68</ele>
        <time>2016-03-13T12:57:00Z</time>
      </trkpt>
      <trkpt lat="44.26676" lon="3.12924">
        <ele>881.96</ele>
        <time>2016-03-13T12:57:15Z</time>
      </trkpt>
      <trkpt lat="44.26711" lon="3.12857">
        <ele>883.92</ele>
        <time>2016-03-13T12:57:36Z</time>
      </trkpt>
      <trkpt lat="44.2673" lon="3.12772">
        <ele>885.08</ele>
        <time>2016-03-13T12:57:57Z</time>
      </trkpt>
      <trkpt lat="44.26726" lon="3.12685">
        <ele>884.82</ele>
        <time>2016-03-13T12:58:14Z</time>
      </trkpt>
      <trkpt lat="44.26726" lon="3.12679">
        <ele>884.72</ele>
        <time>2016-03-13T12:58:15Z</time>
      </trkpt>
      <trkpt lat="44.26727" lon="3.12643">
        <ele>884.01</ele>
        <time>2016-03-13T12:58:21Z</time>
      </trkpt>
      <trkpt lat="44.26713" lon="3.12569">
        <ele>883.49</ele>
        <time>2016-03-13T12:58:32Z</time>
      </trkpt>
      <trkpt lat="44.26673" lon="3.12473">
        <ele>880.4</ele>
        <time>2016-03-13T12:58:42Z</time>
      </trkpt>
      <trkpt lat="44.26662" lon="3.1244">
        <ele>878.96</ele>
        <time>2016-03-13T12:58:45Z</time>
      </trkpt>
      <trkpt lat="44.2666" lon="3.12429">
        <ele>878.24</ele>
        <time>2016-03-13T12:58:46Z</time>
      </trkpt>
      <trkpt lat="44.26659" lon="3.12419">
        <ele>877.96</ele>
        <time>2016-03-13T12:58:47Z</time>
      </trkpt>
      <trkpt lat="44.26662" lon="3.12343">
        <ele>877.22</ele>
        <time>2016-03-13T12:58:55Z</time>
      </trkpt>
      <trkpt lat="44.26649" lon="3.12253">
        <ele>879.76</ele>
        <time>2016-03-13T12:59:10Z</time>
      </trkpt>
      <trkpt lat="44.26638" lon="3.12199">
        <ele>882.83</ele>
        <time>2016-03-13T12:59:24Z</time>
      </trkpt>
      <trkpt lat="44.2663" lon="3.12176">
        <ele>883.58</ele>
        <time>2016-03-13T12:59:39Z</time>
      </trkpt>
      <trkpt lat="44.26629" lon="3.12176">
        <ele>882.98</ele>
        <time>2016-03-13T12:59:42Z</time>
      </trkpt>
      <trkpt lat="44.26634" lon="3.12174">
        <ele>883.15</ele>
        <time>2016-03-13T13:00:18Z</time>
      </trkpt>
      <trkpt lat="44.26641" lon="3.12172">
        <ele>883.56</ele>
        <time>2016-03-13T13:00:22Z</time>
      </trkpt>
      <trkpt lat="44.26642" lon="3.1217">
        <ele>883.64</ele>
        <time>2016-03-13T13:00:23Z</time>
      </trkpt>
      <trkpt lat="44.26662" lon="3.12147">
        <ele>884.96</ele>
        <time>2016-03-13T13:00:38Z</time>
      </trkpt>
      <trkpt lat="44.26684" lon="3.12124">
        <ele>888.09</ele>
        <time>2016-03-13T13:00:56Z</time>
      </trkpt>
      <trkpt lat="44.26712" lon="3.12123">
        <ele>891.1</ele>
        <time>2016-03-13T13:01:13Z</time>
      </trkpt>
      <trkpt lat="44.2674" lon="3.12135">
        <ele>891.37</ele>
        <time>2016-03-13T13:01:30Z</time>
      </trkpt>
      <trkpt lat="44.2678" lon="3.12154">
        <ele>888.49</ele>
        <time>2016-03-13T13:01:47Z</time>
      </trkpt>
      <trkpt lat="44.26802" lon="3.12162">
        <ele>885.46</ele>
        <time>2016-03-13T13:01:56Z</time>
      </trkpt>
      <trkpt lat="44.2684" lon="3.12193">
        <ele>882.45</ele>
        <time>2016-03-13T13:02:11Z</time>
      </trkpt>
      <trkpt lat="44.26871" lon="3.12223">
        <ele>879.27</ele>
        <time>2016-03-13T13:02:25Z</time>
      </trkpt>
      <trkpt lat="44.26903" lon="3.1225">
        <ele>876.19</ele>
        <time>2016-03-13T13:02:38Z</time>
      </trkpt>
      <trkpt lat="44.26934" lon="3.12267">
        <ele>872.64</ele>
        <time>2016-03-13T13:02:50Z</time>
      </trkpt>
      <trkpt lat="44.26966" lon="3.12275">
        <ele>869.47</ele>
        <time>2016-03-13T13:03:02Z</time>
      </trkpt>
      <trkpt lat="44.26968" lon="3.12272">
        <ele>869.28</ele>
        <time>2016-03-13T13:03:03Z</time>
      </trkpt>
      <trkpt lat="44.26969" lon="3.12269">
        <ele>869.06</ele>
        <time>2016-03-13T13:03:04Z</time>
      </trkpt>
      <trkpt lat="44.26969" lon="3.12266">
        <ele>868.79</ele>
        <time>2016-03-13T13:03:05Z</time>
      </trkpt>
      <trkpt lat="44.26969" lon="3.12263">
        <ele>868.51</ele>
        <time>2016-03-13T13:03:06Z</time>
      </trkpt>
      <trkpt lat="44.26969" lon="3.12261">
        <ele>868.3</ele>
        <time>2016-03-13T13:03:07Z</time>
      </trkpt>
      <trkpt lat="44.26965" lon="3.12206">
        <ele>868.37</ele>
        <time>2016-03-13T13:03:23Z</time>
      </trkpt>
      <trkpt lat="44.26963" lon="3.12178">
        <ele>868.81</ele>
        <time>2016-03-13T13:03:31Z</time>
      </trkpt>
      <trkpt lat="44.26958" lon="3.12124">
        <ele>869.51</ele>
        <time>2016-03-13T13:03:46Z</time>
      </trkpt>
      <trkpt lat="44.26951" lon="3.12059">
        <ele>869.84</ele>
        <time>2016-03-13T13:04:05Z</time>
      </trkpt>
      <trkpt lat="44.26921" lon="3.12019">
        <ele>869.89</ele>
        <time>2016-03-13T13:04:21Z</time>
      </trkpt>
      <trkpt lat="44.26902" lon="3.11966">
        <ele>869.33</ele>
        <time>2016-03-13T13:04:37Z</time>
      </trkpt>
      <trkpt lat="44.2692" lon="3.11914">
        <ele>869.67</ele>
        <time>2016-03-13T13:04:55Z</time>
      </trkpt>
      <trkpt lat="44.26924" lon="3.11883">
        <ele>872.83</ele>
        <time>2016-03-13T13:05:09Z</time>
      </trkpt>
      <trkpt lat="44.26928" lon="3.11855">
        <ele>876.04</ele>
        <time>2016-03-13T13:05:22Z</time>
      </trkpt>
      <trkpt lat="44.2693" lon="3.11828">
        <ele>879.25</ele>
        <time>2016-03-13T13:05:35Z</time>
      </trkpt>
      <trkpt lat="44.26928" lon="3.11805">
        <ele>882.48</ele>
        <time>2016-03-13T13:05:46Z</time>
      </trkpt>
      <trkpt lat="44.26925" lon="3.11783">
        <ele>885.52</ele>
        <time>2016-03-13T13:05:59Z</time>
      </trkpt>
      <trkpt lat="44.2692" lon="3.11762">
        <ele>887.95</ele>
        <time>2016-03-13T13:06:12Z</time>
      </trkpt>
      <trkpt lat="44.2692" lon="3.11761">
        <ele>888.11</ele>
        <time>2016-03-13T13:06:13Z</time>
      </trkpt>
      <trkpt lat="44.26918" lon="3.11758">
        <ele>888.5</ele>
        <time>2016-03-13T13:06:15Z</time>
      </trkpt>
      <trkpt lat="44.26913" lon="3.11738">
        <ele>890.9</ele>
        <time>2016-03-13T13:06:27Z</time>
      </trkpt>
      <trkpt lat="44.26912" lon="3.11736">
        <ele>891.09</ele>
        <time>2016-03-13T13:06:28Z</time>
      </trkpt>
      <trkpt lat="44.26912" lon="3.11734">
        <ele>891.29</ele>
        <time>2016-03-13T13:06:29Z</time>
      </trkpt>
      <trkpt lat="44.26911" lon="3.11733">
        <ele>891.48</ele>
        <time>2016-03-13T13:06:30Z</time>
      </trkpt>
      <trkpt lat="44.2691" lon="3.11731">
        <ele>891.65</ele>
        <time>2016-03-13T13:06:31Z</time>
      </trkpt>
      <trkpt lat="44.2691" lon="3.11729">
        <ele>891.93</ele>
        <time>2016-03-13T13:06:32Z</time>
      </trkpt>
      <trkpt lat="44.26898" lon="3.11695">
        <ele>895.06</ele>
        <time>2016-03-13T13:06:52Z</time>
      </trkpt>
      <trkpt lat="44.26888" lon="3.11658">
        <ele>897.61</ele>
        <time>2016-03-13T13:07:11Z</time>
      </trkpt>
      <trkpt lat="44.26885" lon="3.11612">
        <ele>899.8</ele>
        <time>2016-03-13T13:07:31Z</time>
      </trkpt>
      <trkpt lat="44.26879" lon="3.11562">
        <ele>902.34</ele>
        <time>2016-03-13T13:07:53Z</time>
      </trkpt>
      <trkpt lat="44.26875" lon="3.11508">
        <ele>905.17</ele>
        <time>2016-03-13T13:08:16Z</time>
      </trkpt>
      <trkpt lat="44.26885" lon="3.11472">
        <ele>908.16</ele>
        <time>2016-03-13T13:08:34Z</time>
      </trkpt>
      <trkpt lat="44.26904" lon="3.11424">
        <ele>911.01</ele>
        <time>2016-03-13T13:08:57Z</time>
      </trkpt>
      <trkpt lat="44.26921" lon="3.11367">
        <ele>912.14</ele>
        <time>2016-03-13T13:09:17Z</time>
      </trkpt>
      <trkpt lat="44.26939" lon="3.1131">
        <ele>912.4</ele>
        <time>2016-03-13T13:09:38Z</time>
      </trkpt>
      <trkpt lat="44.26941" lon="3.11303">
        <ele>912.1</ele>
        <time>2016-03-13T13:09:50Z</time>
      </trkpt>
      <trkpt lat="44.26945" lon="3.11302">
        <ele>912.41</ele>
        <time>2016-03-13T13:10:49Z</time>
      </trkpt>
      <trkpt lat="44.26967" lon="3.11256">
        <ele>912.96</ele>
        <time>2016-03-13T13:11:05Z</time>
      </trkpt>
      <trkpt lat="44.26985" lon="3.11186">
        <ele>913.81</ele>
        <time>2016-03-13T13:11:26Z</time>
      </trkpt>
      <trkpt lat="44.26985" lon="3.11183">
        <ele>913.83</ele>
        <time>2016-03-13T13:11:27Z</time>
      </trkpt>
      <trkpt lat="44.26986" lon="3.11181">
        <ele>913.85</ele>
        <time>2016-03-13T13:11:28Z</time>
      </trkpt>
      <trkpt lat="44.26985" lon="3.11149">
        <ele>914.23</ele>
        <time>2016-03-13T13:11:39Z</time>
      </trkpt>
      <trkpt lat="44.26986" lon="3.11145">
        <ele>914.23</ele>
        <time>2016-03-13T13:11:40Z</time>
      </trkpt>
      <trkpt lat="44.26986" lon="3.11142">
        <ele>914.23</ele>
        <time>2016-03-13T13:11:41Z</time>
      </trkpt>
      <trkpt lat="44.26986" lon="3.11138">
        <ele>914.23</ele>
        <time>2016-03-13T13:11:42Z</time>
      </trkpt>
      <trkpt lat="44.26986" lon="3.11135">
        <ele>914.2</ele>
        <time>2016-03-13T13:11:43Z</time>
      </trkpt>
      <trkpt lat="44.26985" lon="3.11132">
        <ele>914.18</ele>
        <time>2016-03-13T13:11:44Z</time>
      </trkpt>
      <trkpt lat="44.26984" lon="3.11129">
        <ele>914.16</ele>
        <time>2016-03-13T13:11:45Z</time>
      </trkpt>
      <trkpt lat="44.26983" lon="3.11126">
        <ele>914.17</ele>
        <time>2016-03-13T13:11:46Z</time>
      </trkpt>
      <trkpt lat="44.26982" lon="3.11123">
        <ele>914.17</ele>
        <time>2016-03-13T13:11:47Z</time>
      </trkpt>
      <trkpt lat="44.26982" lon="3.1112">
        <ele>914.13</ele>
        <time>2016-03-13T13:11:48Z</time>
      </trkpt>
      <trkpt lat="44.26981" lon="3.11117">
        <ele>914.09</ele>
        <time>2016-03-13T13:11:49Z</time>
      </trkpt>
      <trkpt lat="44.26981" lon="3.11114">
        <ele>914.01</ele>
        <time>2016-03-13T13:11:50Z</time>
      </trkpt>
      <trkpt lat="44.2698" lon="3.11111">
        <ele>914.01</ele>
        <time>2016-03-13T13:11:51Z</time>
      </trkpt>
      <trkpt lat="44.26978" lon="3.11109">
        <ele>913.86</ele>
        <time>2016-03-13T13:11:52Z</time>
      </trkpt>
      <trkpt lat="44.26971" lon="3.11096">
        <ele>913.27</ele>
        <time>2016-03-13T13:11:58Z</time>
      </trkpt>
      <trkpt lat="44.26972" lon="3.11091">
        <ele>913.11</ele>
        <time>2016-03-13T13:12:00Z</time>
      </trkpt>
      <trkpt lat="44.26969" lon="3.11085">
        <ele>912.32</ele>
        <time>2016-03-13T13:12:08Z</time>
      </trkpt>
      <trkpt lat="44.26973" lon="3.11096">
        <ele>912.98</ele>
        <time>2016-03-13T13:12:23Z</time>
      </trkpt>
      <trkpt lat="44.26975" lon="3.11104">
        <ele>913.35</ele>
        <time>2016-03-13T13:12:26Z</time>
      </trkpt>
      <trkpt lat="44.26985" lon="3.11154">
        <ele>914.3</ele>
        <time>2016-03-13T13:12:43Z</time>
      </trkpt>
      <trkpt lat="44.26996" lon="3.11154">
        <ele>914.68</ele>
        <time>2016-03-13T13:12:48Z</time>
      </trkpt>
      <trkpt lat="44.26997" lon="3.11151">
        <ele>914.78</ele>
        <time>2016-03-13T13:12:49Z</time>
      </trkpt>
      <trkpt lat="44.26997" lon="3.11148">
        <ele>914.8</ele>
        <time>2016-03-13T13:12:50Z</time>
      </trkpt>
      <trkpt lat="44.27004" lon="3.11068">
        <ele>915.3</ele>
        <time>2016-03-13T13:13:14Z</time>
      </trkpt>
      <trkpt lat="44.26985" lon="3.11019">
        <ele>916.09</ele>
        <time>2016-03-13T13:13:31Z</time>
      </trkpt>
      <trkpt lat="44.26962" lon="3.10971">
        <ele>913.89</ele>
        <time>2016-03-13T13:13:45Z</time>
      </trkpt>
      <trkpt lat="44.26961" lon="3.10968">
        <ele>913.68</ele>
        <time>2016-03-13T13:13:46Z</time>
      </trkpt>
      <trkpt lat="44.26959" lon="3.10964">
        <ele>913.46</ele>
        <time>2016-03-13T13:13:47Z</time>
      </trkpt>
      <trkpt lat="44.26956" lon="3.10962">
        <ele>913.27</ele>
        <time>2016-03-13T13:13:48Z</time>
      </trkpt>
      <trkpt lat="44.26953" lon="3.10961">
        <ele>913.11</ele>
        <time>2016-03-13T13:13:49Z</time>
      </trkpt>
      <trkpt lat="44.2695" lon="3.1096">
        <ele>912.97</ele>
        <time>2016-03-13T13:13:50Z</time>
      </trkpt>
      <trkpt lat="44.26945" lon="3.1096">
        <ele>911.74</ele>
        <time>2016-03-13T13:13:57Z</time>
      </trkpt>
      <trkpt lat="44.26939" lon="3.10956">
        <ele>911.56</ele>
        <time>2016-03-13T13:14:19Z</time>
      </trkpt>
      <trkpt lat="44.2693" lon="3.10954">
        <ele>911.28</ele>
        <time>2016-03-13T13:14:24Z</time>
      </trkpt>
      <trkpt lat="44.26929" lon="3.10955">
        <ele>911.22</ele>
        <time>2016-03-13T13:14:25Z</time>
      </trkpt>
      <trkpt lat="44.26928" lon="3.10957">
        <ele>911.14</ele>
        <time>2016-03-13T13:14:26Z</time>
      </trkpt>
      <trkpt lat="44.26927" lon="3.10959">
        <ele>911.01</ele>
        <time>2016-03-13T13:14:27Z</time>
      </trkpt>
      <trkpt lat="44.26925" lon="3.10961">
        <ele>910.8</ele>
        <time>2016-03-13T13:14:28Z</time>
      </trkpt>
      <trkpt lat="44.26919" lon="3.10966">
        <ele>908.48</ele>
        <time>2016-03-13T13:14:33Z</time>
      </trkpt>
      <trkpt lat="44.26917" lon="3.10967">
        <ele>908.12</ele>
        <time>2016-03-13T13:14:34Z</time>
      </trkpt>
      <trkpt lat="44.26915" lon="3.10968">
        <ele>907.76</ele>
        <time>2016-03-13T13:14:35Z</time>
      </trkpt>
      <trkpt lat="44.26913" lon="3.1097">
        <ele>907.33</ele>
        <time>2016-03-13T13:14:36Z</time>
      </trkpt>
      <trkpt lat="44.26911" lon="3.10972">
        <ele>906.87</ele>
        <time>2016-03-13T13:14:37Z</time>
      </trkpt>
      <trkpt lat="44.26909" lon="3.10975">
        <ele>906.44</ele>
        <time>2016-03-13T13:14:38Z</time>
      </trkpt>
      <trkpt lat="44.26908" lon="3.10978">
        <ele>906.03</ele>
        <time>2016-03-13T13:14:39Z</time>
      </trkpt>
      <trkpt lat="44.26898" lon="3.10991">
        <ele>903.66</ele>
        <time>2016-03-13T13:14:45Z</time>
      </trkpt>
      <trkpt lat="44.26895" lon="3.10992">
        <ele>903.27</ele>
        <time>2016-03-13T13:14:46Z</time>
      </trkpt>
      <trkpt lat="44.26891" lon="3.10992">
        <ele>902.9</ele>
        <time>2016-03-13T13:14:47Z</time>
      </trkpt>
      <trkpt lat="44.26888" lon="3.10992">
        <ele>902.55</ele>
        <time>2016-03-13T13:14:48Z</time>
      </trkpt>
      <trkpt lat="44.26884" lon="3.10991">
        <ele>902.23</ele>
        <time>2016-03-13T13:14:49Z</time>
      </trkpt>
      <trkpt lat="44.26881" lon="3.10991">
        <ele>901.97</ele>
        <time>2016-03-13T13:14:50Z</time>
      </trkpt>
      <trkpt lat="44.26878" lon="3.10991">
        <ele>901.74</ele>
        <time>2016-03-13T13:14:51Z</time>
      </trkpt>
      <trkpt lat="44.26863" lon="3.10988">
        <ele>901.61</ele>
        <time>2016-03-13T13:15:05Z</time>
      </trkpt>
      <trkpt lat="44.2686" lon="3.10984">
        <ele>901.83</ele>
        <time>2016-03-13T13:15:10Z</time>
      </trkpt>
      <trkpt lat="44.26859" lon="3.10983">
        <ele>901.87</ele>
        <time>2016-03-13T13:15:11Z</time>
      </trkpt>
      <trkpt lat="44.26856" lon="3.10978">
        <ele>901.96</ele>
        <time>2016-03-13T13:15:19Z</time>
      </trkpt>
      <trkpt lat="44.26854" lon="3.10984">
        <ele>905.23</ele>
        <time>2016-03-13T13:30:54Z</time>
      </trkpt>
      <trkpt lat="44.26891" lon="3.10994">
        <ele>905.86</ele>
        <time>2016-03-13T13:31:11Z</time>
      </trkpt>
      <trkpt lat="44.26897" lon="3.10988">
        <ele>906.07</ele>
        <time>2016-03-13T13:31:19Z</time>
      </trkpt>
      <trkpt lat="44.26897" lon="3.10986">
        <ele>906.21</ele>
        <time>2016-03-13T13:31:20Z</time>
      </trkpt>
      <trkpt lat="44.26899" lon="3.10983">
        <ele>906.72</ele>
        <time>2016-03-13T13:31:23Z</time>
      </trkpt>
      <trkpt lat="44.269" lon="3.10982">
        <ele>906.92</ele>
        <time>2016-03-13T13:31:24Z</time>
      </trkpt>
      <trkpt lat="44.26901" lon="3.10981">
        <ele>907.14</ele>
        <time>2016-03-13T13:31:25Z</time>
      </trkpt>
      <trkpt lat="44.26901" lon="3.1098">
        <ele>907.39</ele>
        <time>2016-03-13T13:31:26Z</time>
      </trkpt>
      <trkpt lat="44.26902" lon="3.10979">
        <ele>907.61</ele>
        <time>2016-03-13T13:31:27Z</time>
      </trkpt>
      <trkpt lat="44.26903" lon="3.10978">
        <ele>907.82</ele>
        <time>2016-03-13T13:31:28Z</time>
      </trkpt>
      <trkpt lat="44.26903" lon="3.10976">
        <ele>908.01</ele>
        <time>2016-03-13T13:31:29Z</time>
      </trkpt>
      <trkpt lat="44.26904" lon="3.10975">
        <ele>908.19</ele>
        <time>2016-03-13T13:31:30Z</time>
      </trkpt>
      <trkpt lat="44.26905" lon="3.10974">
        <ele>908.47</ele>
        <time>2016-03-13T13:31:31Z</time>
      </trkpt>
      <trkpt lat="44.26906" lon="3.10973">
        <ele>908.59</ele>
        <time>2016-03-13T13:31:32Z</time>
      </trkpt>
      <trkpt lat="44.26907" lon="3.10973">
        <ele>908.73</ele>
        <time>2016-03-13T13:31:33Z</time>
      </trkpt>
      <trkpt lat="44.26908" lon="3.10971">
        <ele>908.88</ele>
        <time>2016-03-13T13:31:34Z</time>
      </trkpt>
      <trkpt lat="44.26919" lon="3.10964">
        <ele>911.38</ele>
        <time>2016-03-13T13:31:48Z</time>
      </trkpt>
      <trkpt lat="44.26932" lon="3.10958">
        <ele>914.26</ele>
        <time>2016-03-13T13:31:59Z</time>
      </trkpt>
      <trkpt lat="44.26953" lon="3.10966">
        <ele>916.21</ele>
        <time>2016-03-13T13:32:17Z</time>
      </trkpt>
      <trkpt lat="44.26954" lon="3.10967">
        <ele>916.25</ele>
        <time>2016-03-13T13:32:18Z</time>
      </trkpt>
      <trkpt lat="44.26955" lon="3.10967">
        <ele>916.3</ele>
        <time>2016-03-13T13:32:19Z</time>
      </trkpt>
      <trkpt lat="44.26956" lon="3.10968">
        <ele>916.37</ele>
        <time>2016-03-13T13:32:20Z</time>
      </trkpt>
      <trkpt lat="44.26957" lon="3.10969">
        <ele>916.52</ele>
        <time>2016-03-13T13:32:21Z</time>
      </trkpt>
      <trkpt lat="44.26961" lon="3.10974">
        <ele>916.97</ele>
        <time>2016-03-13T13:32:26Z</time>
      </trkpt>
      <trkpt lat="44.26962" lon="3.10975">
        <ele>917.08</ele>
        <time>2016-03-13T13:32:27Z</time>
      </trkpt>
      <trkpt lat="44.26964" lon="3.10975">
        <ele>917.18</ele>
        <time>2016-03-13T13:32:28Z</time>
      </trkpt>
      <trkpt lat="44.26965" lon="3.10976">
        <ele>917.3</ele>
        <time>2016-03-13T13:32:29Z</time>
      </trkpt>
      <trkpt lat="44.26967" lon="3.10977">
        <ele>917.37</ele>
        <time>2016-03-13T13:32:30Z</time>
      </trkpt>
      <trkpt lat="44.26968" lon="3.10978">
        <ele>917.45</ele>
        <time>2016-03-13T13:32:31Z</time>
      </trkpt>
      <trkpt lat="44.26969" lon="3.1098">
        <ele>917.55</ele>
        <time>2016-03-13T13:32:32Z</time>
      </trkpt>
      <trkpt lat="44.2697" lon="3.10981">
        <ele>917.64</ele>
        <time>2016-03-13T13:32:33Z</time>
      </trkpt>
      <trkpt lat="44.26971" lon="3.10983">
        <ele>917.72</ele>
        <time>2016-03-13T13:32:34Z</time>
      </trkpt>
      <trkpt lat="44.26983" lon="3.11014">
        <ele>919.48</ele>
        <time>2016-03-13T13:32:52Z</time>
      </trkpt>
      <trkpt lat="44.27" lon="3.11051">
        <ele>920.97</ele>
        <time>2016-03-13T13:33:11Z</time>
      </trkpt>
      <trkpt lat="44.27003" lon="3.11049">
        <ele>920.97</ele>
        <time>2016-03-13T13:33:13Z</time>
      </trkpt>
      <trkpt lat="44.27004" lon="3.11047">
        <ele>920.95</ele>
        <time>2016-03-13T13:33:14Z</time>
      </trkpt>
      <trkpt lat="44.27005" lon="3.11045">
        <ele>920.94</ele>
        <time>2016-03-13T13:33:15Z</time>
      </trkpt>
      <trkpt lat="44.27006" lon="3.11043">
        <ele>920.93</ele>
        <time>2016-03-13T13:33:16Z</time>
      </trkpt>
      <trkpt lat="44.27006" lon="3.1104">
        <ele>920.93</ele>
        <time>2016-03-13T13:33:17Z</time>
      </trkpt>
      <trkpt lat="44.27007" lon="3.11037">
        <ele>920.92</ele>
        <time>2016-03-13T13:33:18Z</time>
      </trkpt>
      <trkpt lat="44.27007" lon="3.11034">
        <ele>920.9</ele>
        <time>2016-03-13T13:33:19Z</time>
      </trkpt>
      <trkpt lat="44.27007" lon="3.11031">
        <ele>920.88</ele>
        <time>2016-03-13T13:33:20Z</time>
      </trkpt>
      <trkpt lat="44.27012" lon="3.11">
        <ele>921.71</ele>
        <time>2016-03-13T13:33:32Z</time>
      </trkpt>
      <trkpt lat="44.27014" lon="3.10999">
        <ele>921.78</ele>
        <time>2016-03-13T13:33:33Z</time>
      </trkpt>
      <trkpt lat="44.27016" lon="3.10998">
        <ele>921.89</ele>
        <time>2016-03-13T13:33:34Z</time>
      </trkpt>
      <trkpt lat="44.27017" lon="3.10999">
        <ele>921.89</ele>
        <time>2016-03-13T13:33:35Z</time>
      </trkpt>
      <trkpt lat="44.27019" lon="3.11">
        <ele>921.88</ele>
        <time>2016-03-13T13:33:36Z</time>
      </trkpt>
      <trkpt lat="44.27021" lon="3.11002">
        <ele>921.84</ele>
        <time>2016-03-13T13:33:37Z</time>
      </trkpt>
      <trkpt lat="44.27037" lon="3.11012">
        <ele>920.93</ele>
        <time>2016-03-13T13:33:47Z</time>
      </trkpt>
      <trkpt lat="44.27038" lon="3.11011">
        <ele>920.79</ele>
        <time>2016-03-13T13:33:48Z</time>
      </trkpt>
      <trkpt lat="44.27037" lon="3.11007">
        <ele>920.5</ele>
        <time>2016-03-13T13:33:51Z</time>
      </trkpt>
      <trkpt lat="44.27009" lon="3.10969">
        <ele>922.32</ele>
        <time>2016-03-13T13:34:11Z</time>
      </trkpt>
      <trkpt lat="44.27007" lon="3.10898">
        <ele>924.28</ele>
        <time>2016-03-13T13:34:35Z</time>
      </trkpt>
      <trkpt lat="44.27001" lon="3.10835">
        <ele>924.8</ele>
        <time>2016-03-13T13:34:55Z</time>
      </trkpt>
      <trkpt lat="44.27005" lon="3.10747">
        <ele>922.52</ele>
        <time>2016-03-13T13:35:12Z</time>
      </trkpt>
      <trkpt lat="44.27009" lon="3.10691">
        <ele>921.8</ele>
        <time>2016-03-13T13:35:27Z</time>
      </trkpt>
      <trkpt lat="44.27013" lon="3.10579">
        <ele>918.6</ele>
        <time>2016-03-13T13:35:45Z</time>
      </trkpt>
      <trkpt lat="44.27001" lon="3.10524">
        <ele>915.54</ele>
        <time>2016-03-13T13:35:54Z</time>
      </trkpt>
      <trkpt lat="44.26997" lon="3.10511">
        <ele>914.82</ele>
        <time>2016-03-13T13:35:56Z</time>
      </trkpt>
      <trkpt lat="44.26966" lon="3.10459">
        <ele>912.15</ele>
        <time>2016-03-13T13:36:03Z</time>
      </trkpt>
      <trkpt lat="44.26932" lon="3.10423">
        <ele>908.78</ele>
        <time>2016-03-13T13:36:09Z</time>
      </trkpt>
      <trkpt lat="44.26885" lon="3.10383">
        <ele>905.74</ele>
        <time>2016-03-13T13:36:16Z</time>
      </trkpt>
      <trkpt lat="44.26851" lon="3.10362">
        <ele>904.35</ele>
        <time>2016-03-13T13:36:21Z</time>
      </trkpt>
      <trkpt lat="44.26846" lon="3.10357">
        <ele>904.2</ele>
        <time>2016-03-13T13:36:22Z</time>
      </trkpt>
      <trkpt lat="44.26842" lon="3.10351">
        <ele>904.07</ele>
        <time>2016-03-13T13:36:23Z</time>
      </trkpt>
      <trkpt lat="44.26839" lon="3.10345">
        <ele>904</ele>
        <time>2016-03-13T13:36:24Z</time>
      </trkpt>
      <trkpt lat="44.26837" lon="3.10339">
        <ele>903.97</ele>
        <time>2016-03-13T13:36:25Z</time>
      </trkpt>
      <trkpt lat="44.26836" lon="3.10333">
        <ele>903.99</ele>
        <time>2016-03-13T13:36:26Z</time>
      </trkpt>
      <trkpt lat="44.26833" lon="3.10293">
        <ele>905.84</ele>
        <time>2016-03-13T13:36:39Z</time>
      </trkpt>
      <trkpt lat="44.26831" lon="3.1025">
        <ele>909.03</ele>
        <time>2016-03-13T13:36:55Z</time>
      </trkpt>
      <trkpt lat="44.26823" lon="3.10198">
        <ele>911.72</ele>
        <time>2016-03-13T13:37:15Z</time>
      </trkpt>
      <trkpt lat="44.26789" lon="3.10131">
        <ele>912.16</ele>
        <time>2016-03-13T13:37:37Z</time>
      </trkpt>
      <trkpt lat="44.26766" lon="3.10051">
        <ele>913.56</ele>
        <time>2016-03-13T13:37:59Z</time>
      </trkpt>
      <trkpt lat="44.26752" lon="3.09978">
        <ele>915.22</ele>
        <time>2016-03-13T13:38:18Z</time>
      </trkpt>
      <trkpt lat="44.26726" lon="3.09905">
        <ele>916.39</ele>
        <time>2016-03-13T13:38:37Z</time>
      </trkpt>
      <trkpt lat="44.26722" lon="3.09817">
        <ele>917.95</ele>
        <time>2016-03-13T13:38:57Z</time>
      </trkpt>
      <trkpt lat="44.26733" lon="3.09741">
        <ele>918.4</ele>
        <time>2016-03-13T13:39:14Z</time>
      </trkpt>
      <trkpt lat="44.26769" lon="3.09659">
        <ele>918.42</ele>
        <time>2016-03-13T13:39:34Z</time>
      </trkpt>
      <trkpt lat="44.26782" lon="3.09609">
        <ele>919.86</ele>
        <time>2016-03-13T13:39:50Z</time>
      </trkpt>
      <trkpt lat="44.26797" lon="3.09556">
        <ele>922.98</ele>
        <time>2016-03-13T13:40:08Z</time>
      </trkpt>
      <trkpt lat="44.26813" lon="3.09509">
        <ele>925.98</ele>
        <time>2016-03-13T13:40:25Z</time>
      </trkpt>
      <trkpt lat="44.2681" lon="3.0944">
        <ele>927.28</ele>
        <time>2016-03-13T13:40:47Z</time>
      </trkpt>
      <trkpt lat="44.26786" lon="3.09334">
        <ele>926.95</ele>
        <time>2016-03-13T13:41:11Z</time>
      </trkpt>
      <trkpt lat="44.26769" lon="3.09234">
        <ele>925.72</ele>
        <time>2016-03-13T13:41:30Z</time>
      </trkpt>
      <trkpt lat="44.26776" lon="3.09134">
        <ele>925.23</ele>
        <time>2016-03-13T13:41:50Z</time>
      </trkpt>
      <trkpt lat="44.26779" lon="3.09106">
        <ele>924.67</ele>
        <time>2016-03-13T13:41:55Z</time>
      </trkpt>
      <trkpt lat="44.26781" lon="3.09088">
        <ele>924.25</ele>
        <time>2016-03-13T13:41:58Z</time>
      </trkpt>
      <trkpt lat="44.26782" lon="3.09082">
        <ele>924.25</ele>
        <time>2016-03-13T13:41:59Z</time>
      </trkpt>
      <trkpt lat="44.26783" lon="3.09075">
        <ele>924.09</ele>
        <time>2016-03-13T13:42:00Z</time>
      </trkpt>
      <trkpt lat="44.26784" lon="3.09063">
        <ele>923.85</ele>
        <time>2016-03-13T13:42:02Z</time>
      </trkpt>
      <trkpt lat="44.26799" lon="3.08929">
        <ele>920.65</ele>
        <time>2016-03-13T13:42:20Z</time>
      </trkpt>
      <trkpt lat="44.26807" lon="3.08888">
        <ele>919.28</ele>
        <time>2016-03-13T13:42:25Z</time>
      </trkpt>
      <trkpt lat="44.2684" lon="3.08777">
        <ele>915.91</ele>
        <time>2016-03-13T13:42:37Z</time>
      </trkpt>
      <trkpt lat="44.2686" lon="3.08696">
        <ele>912.48</ele>
        <time>2016-03-13T13:42:44Z</time>
      </trkpt>
      <trkpt lat="44.26868" lon="3.08659">
        <ele>911.01</ele>
        <time>2016-03-13T13:42:47Z</time>
      </trkpt>
      <trkpt lat="44.2687" lon="3.08646">
        <ele>910.52</ele>
        <time>2016-03-13T13:42:48Z</time>
      </trkpt>
      <trkpt lat="44.2687" lon="3.08633">
        <ele>910.03</ele>
        <time>2016-03-13T13:42:49Z</time>
      </trkpt>
      <trkpt lat="44.26866" lon="3.08564">
        <ele>906.63</ele>
        <time>2016-03-13T13:42:54Z</time>
      </trkpt>
      <trkpt lat="44.2684" lon="3.08467">
        <ele>903.5</ele>
        <time>2016-03-13T13:43:02Z</time>
      </trkpt>
      <trkpt lat="44.2677" lon="3.08336">
        <ele>902.26</ele>
        <time>2016-03-13T13:43:18Z</time>
      </trkpt>
      <trkpt lat="44.26715" lon="3.08258">
        <ele>902.41</ele>
        <time>2016-03-13T13:43:33Z</time>
      </trkpt>
      <trkpt lat="44.26637" lon="3.08174">
        <ele>904</ele>
        <time>2016-03-13T13:43:53Z</time>
      </trkpt>
      <trkpt lat="44.26557" lon="3.08111">
        <ele>904.59</ele>
        <time>2016-03-13T13:44:12Z</time>
      </trkpt>
      <trkpt lat="44.2649" lon="3.08066">
        <ele>903.76</ele>
        <time>2016-03-13T13:44:26Z</time>
      </trkpt>
      <trkpt lat="44.26431" lon="3.07964">
        <ele>900.46</ele>
        <time>2016-03-13T13:44:38Z</time>
      </trkpt>
      <trkpt lat="44.26388" lon="3.07873">
        <ele>897.41</ele>
        <time>2016-03-13T13:44:47Z</time>
      </trkpt>
      <trkpt lat="44.26322" lon="3.07707">
        <ele>895.06</ele>
        <time>2016-03-13T13:45:06Z</time>
      </trkpt>
      <trkpt lat="44.26261" lon="3.07558">
        <ele>894.38</ele>
        <time>2016-03-13T13:45:26Z</time>
      </trkpt>
      <trkpt lat="44.26215" lon="3.07443">
        <ele>896.22</ele>
        <time>2016-03-13T13:45:45Z</time>
      </trkpt>
      <trkpt lat="44.26173" lon="3.07343">
        <ele>899.31</ele>
        <time>2016-03-13T13:46:05Z</time>
      </trkpt>
      <trkpt lat="44.26151" lon="3.07239">
        <ele>898.56</ele>
        <time>2016-03-13T13:46:22Z</time>
      </trkpt>
      <trkpt lat="44.26137" lon="3.0714">
        <ele>895.43</ele>
        <time>2016-03-13T13:46:32Z</time>
      </trkpt>
      <trkpt lat="44.26119" lon="3.07029">
        <ele>892.38</ele>
        <time>2016-03-13T13:46:44Z</time>
      </trkpt>
      <trkpt lat="44.26106" lon="3.06929">
        <ele>893.36</ele>
        <time>2016-03-13T13:47:01Z</time>
      </trkpt>
      <trkpt lat="44.2611" lon="3.0684">
        <ele>896.52</ele>
        <time>2016-03-13T13:47:20Z</time>
      </trkpt>
      <trkpt lat="44.2611" lon="3.06745">
        <ele>898.7</ele>
        <time>2016-03-13T13:47:40Z</time>
      </trkpt>
      <trkpt lat="44.2609" lon="3.06609">
        <ele>898.77</ele>
        <time>2016-03-13T13:48:05Z</time>
      </trkpt>
      <trkpt lat="44.26037" lon="3.06461">
        <ele>897.8</ele>
        <time>2016-03-13T13:48:28Z</time>
      </trkpt>
      <trkpt lat="44.2598" lon="3.06351">
        <ele>896.64</ele>
        <time>2016-03-13T13:48:47Z</time>
      </trkpt>
      <trkpt lat="44.25915" lon="3.0624">
        <ele>895.63</ele>
        <time>2016-03-13T13:49:05Z</time>
      </trkpt>
      <trkpt lat="44.25814" lon="3.06164">
        <ele>893.67</ele>
        <time>2016-03-13T13:49:24Z</time>
      </trkpt>
      <trkpt lat="44.25685" lon="3.06146">
        <ele>892.15</ele>
        <time>2016-03-13T13:49:45Z</time>
      </trkpt>
      <trkpt lat="44.25572" lon="3.06126">
        <ele>893.18</ele>
        <time>2016-03-13T13:50:08Z</time>
      </trkpt>
      <trkpt lat="44.2554" lon="3.06109">
        <ele>893.08</ele>
        <time>2016-03-13T13:50:16Z</time>
      </trkpt>
      <trkpt lat="44.25536" lon="3.06105">
        <ele>893.04</ele>
        <time>2016-03-13T13:50:17Z</time>
      </trkpt>
      <trkpt lat="44.25533" lon="3.06101">
        <ele>892.98</ele>
        <time>2016-03-13T13:50:18Z</time>
      </trkpt>
      <trkpt lat="44.25519" lon="3.06081">
        <ele>892.49</ele>
        <time>2016-03-13T13:50:22Z</time>
      </trkpt>
      <trkpt lat="44.25513" lon="3.06067">
        <ele>892.13</ele>
        <time>2016-03-13T13:50:24Z</time>
      </trkpt>
      <trkpt lat="44.25511" lon="3.0606">
        <ele>891.95</ele>
        <time>2016-03-13T13:50:25Z</time>
      </trkpt>
      <trkpt lat="44.25512" lon="3.06053">
        <ele>891.78</ele>
        <time>2016-03-13T13:50:26Z</time>
      </trkpt>
      <trkpt lat="44.25514" lon="3.06047">
        <ele>891.6</ele>
        <time>2016-03-13T13:50:27Z</time>
      </trkpt>
      <trkpt lat="44.25517" lon="3.06042">
        <ele>891.46</ele>
        <time>2016-03-13T13:50:28Z</time>
      </trkpt>
      <trkpt lat="44.25521" lon="3.06038">
        <ele>891.35</ele>
        <time>2016-03-13T13:50:29Z</time>
      </trkpt>
      <trkpt lat="44.25551" lon="3.05996">
        <ele>891.12</ele>
        <time>2016-03-13T13:50:40Z</time>
      </trkpt>
      <trkpt lat="44.25594" lon="3.0588">
        <ele>889.8</ele>
        <time>2016-03-13T13:50:58Z</time>
      </trkpt>
      <trkpt lat="44.25611" lon="3.05839">
        <ele>889.35</ele>
        <time>2016-03-13T13:51:04Z</time>
      </trkpt>
      <trkpt lat="44.25676" lon="3.05778">
        <ele>888.41</ele>
        <time>2016-03-13T13:51:21Z</time>
      </trkpt>
      <trkpt lat="44.25729" lon="3.05763">
        <ele>888.81</ele>
        <time>2016-03-13T13:51:37Z</time>
      </trkpt>
      <trkpt lat="44.25718" lon="3.05698">
        <ele>890.32</ele>
        <time>2016-03-13T13:51:53Z</time>
      </trkpt>
      <trkpt lat="44.25677" lon="3.05653">
        <ele>892.68</ele>
        <time>2016-03-13T13:52:12Z</time>
      </trkpt>
      <trkpt lat="44.25626" lon="3.05621">
        <ele>895.22</ele>
        <time>2016-03-13T13:52:33Z</time>
      </trkpt>
      <trkpt lat="44.25625" lon="3.05615">
        <ele>895.43</ele>
        <time>2016-03-13T13:52:35Z</time>
      </trkpt>
      <trkpt lat="44.25625" lon="3.05613">
        <ele>895.56</ele>
        <time>2016-03-13T13:52:36Z</time>
      </trkpt>
      <trkpt lat="44.25626" lon="3.05612">
        <ele>895.71</ele>
        <time>2016-03-13T13:52:37Z</time>
      </trkpt>
      <trkpt lat="44.25628" lon="3.05611">
        <ele>895.88</ele>
        <time>2016-03-13T13:52:38Z</time>
      </trkpt>
      <trkpt lat="44.25629" lon="3.0561">
        <ele>896.07</ele>
        <time>2016-03-13T13:52:39Z</time>
      </trkpt>
      <trkpt lat="44.25631" lon="3.05609">
        <ele>896.25</ele>
        <time>2016-03-13T13:52:40Z</time>
      </trkpt>
      <trkpt lat="44.25633" lon="3.05608">
        <ele>896.39</ele>
        <time>2016-03-13T13:52:41Z</time>
      </trkpt>
      <trkpt lat="44.25681" lon="3.05598">
        <ele>897.97</ele>
        <time>2016-03-13T13:53:01Z</time>
      </trkpt>
      <trkpt lat="44.25736" lon="3.05613">
        <ele>899.67</ele>
        <time>2016-03-13T13:53:23Z</time>
      </trkpt>
      <trkpt lat="44.2578" lon="3.05589">
        <ele>901.34</ele>
        <time>2016-03-13T13:53:42Z</time>
      </trkpt>
      <trkpt lat="44.25839" lon="3.05546">
        <ele>903.58</ele>
        <time>2016-03-13T13:54:07Z</time>
      </trkpt>
      <trkpt lat="44.25874" lon="3.05519">
        <ele>905.4</ele>
        <time>2016-03-13T13:54:25Z</time>
      </trkpt>
      <trkpt lat="44.25903" lon="3.05463">
        <ele>906.81</ele>
        <time>2016-03-13T13:54:46Z</time>
      </trkpt>
      <trkpt lat="44.25901" lon="3.05384">
        <ele>908.56</ele>
        <time>2016-03-13T13:55:09Z</time>
      </trkpt>
      <trkpt lat="44.25896" lon="3.05295">
        <ele>910.03</ele>
        <time>2016-03-13T13:55:34Z</time>
      </trkpt>
      <trkpt lat="44.25916" lon="3.05248">
        <ele>911.67</ele>
        <time>2016-03-13T13:55:51Z</time>
      </trkpt>
      <trkpt lat="44.25956" lon="3.05238">
        <ele>913.74</ele>
        <time>2016-03-13T13:56:09Z</time>
      </trkpt>
      <trkpt lat="44.25994" lon="3.05236">
        <ele>916.88</ele>
        <time>2016-03-13T13:56:26Z</time>
      </trkpt>
      <trkpt lat="44.26031" lon="3.05229">
        <ele>919.77</ele>
        <time>2016-03-13T13:56:45Z</time>
      </trkpt>
      <trkpt lat="44.26049" lon="3.05217">
        <ele>921.6</ele>
        <time>2016-03-13T13:57:01Z</time>
      </trkpt>
      <trkpt lat="44.26052" lon="3.05212">
        <ele>921.25</ele>
        <time>2016-03-13T13:58:14Z</time>
      </trkpt>
      <trkpt lat="44.26052" lon="3.05209">
        <ele>921.29</ele>
        <time>2016-03-13T13:58:15Z</time>
      </trkpt>
      <trkpt lat="44.26059" lon="3.05141">
        <ele>922.94</ele>
        <time>2016-03-13T13:58:35Z</time>
      </trkpt>
      <trkpt lat="44.26073" lon="3.05043">
        <ele>924.93</ele>
        <time>2016-03-13T13:59:01Z</time>
      </trkpt>
      <trkpt lat="44.26107" lon="3.04954">
        <ele>926</ele>
        <time>2016-03-13T13:59:26Z</time>
      </trkpt>
      <trkpt lat="44.26177" lon="3.04899">
        <ele>927.71</ele>
        <time>2016-03-13T13:59:54Z</time>
      </trkpt>
      <trkpt lat="44.26242" lon="3.04839">
        <ele>927.62</ele>
        <time>2016-03-13T14:00:20Z</time>
      </trkpt>
      <trkpt lat="44.26295" lon="3.04801">
        <ele>928.36</ele>
        <time>2016-03-13T14:00:41Z</time>
      </trkpt>
      <trkpt lat="44.26355" lon="3.04757">
        <ele>930.91</ele>
        <time>2016-03-13T14:01:09Z</time>
      </trkpt>
      <trkpt lat="44.26394" lon="3.0473">
        <ele>933.67</ele>
        <time>2016-03-13T14:01:30Z</time>
      </trkpt>
      <trkpt lat="44.26437" lon="3.04705">
        <ele>936.69</ele>
        <time>2016-03-13T14:01:51Z</time>
      </trkpt>
      <trkpt lat="44.26475" lon="3.04681">
        <ele>939.03</ele>
        <time>2016-03-13T14:02:11Z</time>
      </trkpt>
      <trkpt lat="44.26526" lon="3.04649">
        <ele>941.82</ele>
        <time>2016-03-13T14:02:36Z</time>
      </trkpt>
      <trkpt lat="44.26569" lon="3.04614">
        <ele>944.2</ele>
        <time>2016-03-13T14:02:58Z</time>
      </trkpt>
      <trkpt lat="44.26604" lon="3.04566">
        <ele>945.71</ele>
        <time>2016-03-13T14:03:19Z</time>
      </trkpt>
      <trkpt lat="44.26629" lon="3.04523">
        <ele>947.11</ele>
        <time>2016-03-13T14:03:36Z</time>
      </trkpt>
      <trkpt lat="44.26658" lon="3.04474">
        <ele>947.79</ele>
        <time>2016-03-13T14:03:55Z</time>
      </trkpt>
      <trkpt lat="44.26691" lon="3.04413">
        <ele>946.62</ele>
        <time>2016-03-13T14:04:14Z</time>
      </trkpt>
      <trkpt lat="44.26726" lon="3.04351">
        <ele>945.3</ele>
        <time>2016-03-13T14:04:33Z</time>
      </trkpt>
      <trkpt lat="44.2675" lon="3.04307">
        <ele>944.22</ele>
        <time>2016-03-13T14:04:42Z</time>
      </trkpt>
      <trkpt lat="44.26753" lon="3.04301">
        <ele>944.05</ele>
        <time>2016-03-13T14:04:43Z</time>
      </trkpt>
      <trkpt lat="44.26796" lon="3.04213">
        <ele>941.04</ele>
        <time>2016-03-13T14:04:55Z</time>
      </trkpt>
      <trkpt lat="44.26842" lon="3.04109">
        <ele>937.98</ele>
        <time>2016-03-13T14:05:10Z</time>
      </trkpt>
      <trkpt lat="44.26848" lon="3.04098">
        <ele>937.69</ele>
        <time>2016-03-13T14:05:12Z</time>
      </trkpt>
      <trkpt lat="44.26917" lon="3.0404">
        <ele>936.82</ele>
        <time>2016-03-13T14:05:30Z</time>
      </trkpt>
      <trkpt lat="44.26968" lon="3.04032">
        <ele>938.51</ele>
        <time>2016-03-13T14:05:46Z</time>
      </trkpt>
      <trkpt lat="44.27028" lon="3.04012">
        <ele>939.36</ele>
        <time>2016-03-13T14:06:06Z</time>
      </trkpt>
      <trkpt lat="44.27093" lon="3.0399">
        <ele>940.76</ele>
        <time>2016-03-13T14:06:28Z</time>
      </trkpt>
      <trkpt lat="44.27147" lon="3.03993">
        <ele>942.41</ele>
        <time>2016-03-13T14:06:48Z</time>
      </trkpt>
      <trkpt lat="44.272" lon="3.03987">
        <ele>943.88</ele>
        <time>2016-03-13T14:07:08Z</time>
      </trkpt>
      <trkpt lat="44.27238" lon="3.0398">
        <ele>945.75</ele>
        <time>2016-03-13T14:07:24Z</time>
      </trkpt>
      <trkpt lat="44.27284" lon="3.03972">
        <ele>948.77</ele>
        <time>2016-03-13T14:07:44Z</time>
      </trkpt>
      <trkpt lat="44.27329" lon="3.0396">
        <ele>951.86</ele>
        <time>2016-03-13T14:08:05Z</time>
      </trkpt>
      <trkpt lat="44.27383" lon="3.03933">
        <ele>954.27</ele>
        <time>2016-03-13T14:08:31Z</time>
      </trkpt>
      <trkpt lat="44.2739" lon="3.03932">
        <ele>954.61</ele>
        <time>2016-03-13T14:08:35Z</time>
      </trkpt>
      <trkpt lat="44.27392" lon="3.03932">
        <ele>954.93</ele>
        <time>2016-03-13T14:08:36Z</time>
      </trkpt>
      <trkpt lat="44.27394" lon="3.03931">
        <ele>955.09</ele>
        <time>2016-03-13T14:08:37Z</time>
      </trkpt>
      <trkpt lat="44.27396" lon="3.03931">
        <ele>955.26</ele>
        <time>2016-03-13T14:08:38Z</time>
      </trkpt>
      <trkpt lat="44.27398" lon="3.03931">
        <ele>955.42</ele>
        <time>2016-03-13T14:08:39Z</time>
      </trkpt>
      <trkpt lat="44.274" lon="3.03932">
        <ele>955.56</ele>
        <time>2016-03-13T14:08:40Z</time>
      </trkpt>
      <trkpt lat="44.27401" lon="3.03932">
        <ele>955.69</ele>
        <time>2016-03-13T14:08:41Z</time>
      </trkpt>
      <trkpt lat="44.27403" lon="3.03932">
        <ele>955.8</ele>
        <time>2016-03-13T14:08:42Z</time>
      </trkpt>
      <trkpt lat="44.27431" lon="3.03936">
        <ele>957.83</ele>
        <time>2016-03-13T14:08:57Z</time>
      </trkpt>
      <trkpt lat="44.27471" lon="3.03946">
        <ele>960.91</ele>
        <time>2016-03-13T14:09:17Z</time>
      </trkpt>
      <trkpt lat="44.27506" lon="3.0395">
        <ele>962.86</ele>
        <time>2016-03-13T14:09:35Z</time>
      </trkpt>
      <trkpt lat="44.2754" lon="3.03922">
        <ele>964.78</ele>
        <time>2016-03-13T14:09:56Z</time>
      </trkpt>
      <trkpt lat="44.27554" lon="3.03865">
        <ele>966.97</ele>
        <time>2016-03-13T14:10:18Z</time>
      </trkpt>
      <trkpt lat="44.27564" lon="3.03814">
        <ele>969.03</ele>
        <time>2016-03-13T14:10:38Z</time>
      </trkpt>
      <trkpt lat="44.27569" lon="3.03759">
        <ele>972.05</ele>
        <time>2016-03-13T14:11:00Z</time>
      </trkpt>
      <trkpt lat="44.27569" lon="3.03757">
        <ele>972.23</ele>
        <time>2016-03-13T14:11:01Z</time>
      </trkpt>
      <trkpt lat="44.27568" lon="3.03756">
        <ele>972.53</ele>
        <time>2016-03-13T14:11:02Z</time>
      </trkpt>
      <trkpt lat="44.27567" lon="3.03755">
        <ele>972.53</ele>
        <time>2016-03-13T14:11:03Z</time>
      </trkpt>
      <trkpt lat="44.27566" lon="3.03753">
        <ele>972.75</ele>
        <time>2016-03-13T14:11:04Z</time>
      </trkpt>
      <trkpt lat="44.27566" lon="3.03751">
        <ele>972.84</ele>
        <time>2016-03-13T14:11:05Z</time>
      </trkpt>
      <trkpt lat="44.27566" lon="3.03749">
        <ele>972.92</ele>
        <time>2016-03-13T14:11:06Z</time>
      </trkpt>
      <trkpt lat="44.27566" lon="3.03747">
        <ele>972.99</ele>
        <time>2016-03-13T14:11:07Z</time>
      </trkpt>
      <trkpt lat="44.27566" lon="3.03745">
        <ele>973.09</ele>
        <time>2016-03-13T14:11:08Z</time>
      </trkpt>
      <trkpt lat="44.27566" lon="3.03743">
        <ele>973.22</ele>
        <time>2016-03-13T14:11:09Z</time>
      </trkpt>
      <trkpt lat="44.27566" lon="3.03741">
        <ele>973.35</ele>
        <time>2016-03-13T14:11:10Z</time>
      </trkpt>
      <trkpt lat="44.27565" lon="3.03739">
        <ele>973.48</ele>
        <time>2016-03-13T14:11:11Z</time>
      </trkpt>
      <trkpt lat="44.27562" lon="3.03728">
        <ele>973.93</ele>
        <time>2016-03-13T14:11:17Z</time>
      </trkpt>
      <trkpt lat="44.27562" lon="3.03726">
        <ele>974</ele>
        <time>2016-03-13T14:11:18Z</time>
      </trkpt>
      <trkpt lat="44.27559" lon="3.03653">
        <ele>974.73</ele>
        <time>2016-03-13T14:11:41Z</time>
      </trkpt>
      <trkpt lat="44.27566" lon="3.03636">
        <ele>974.98</ele>
        <time>2016-03-13T14:11:49Z</time>
      </trkpt>
      <trkpt lat="44.27567" lon="3.03635">
        <ele>974.99</ele>
        <time>2016-03-13T14:11:50Z</time>
      </trkpt>
      <trkpt lat="44.27599" lon="3.03593">
        <ele>975.57</ele>
        <time>2016-03-13T14:12:08Z</time>
      </trkpt>
      <trkpt lat="44.27643" lon="3.03543">
        <ele>976.6</ele>
        <time>2016-03-13T14:12:31Z</time>
      </trkpt>
      <trkpt lat="44.27692" lon="3.03497">
        <ele>978.75</ele>
        <time>2016-03-13T14:12:53Z</time>
      </trkpt>
      <trkpt lat="44.27726" lon="3.03462">
        <ele>980.6</ele>
        <time>2016-03-13T14:13:11Z</time>
      </trkpt>
      <trkpt lat="44.27728" lon="3.03462">
        <ele>980.74</ele>
        <time>2016-03-13T14:13:12Z</time>
      </trkpt>
      <trkpt lat="44.2773" lon="3.03463">
        <ele>981.08</ele>
        <time>2016-03-13T14:13:13Z</time>
      </trkpt>
      <trkpt lat="44.27732" lon="3.03465">
        <ele>981.25</ele>
        <time>2016-03-13T14:13:14Z</time>
      </trkpt>
      <trkpt lat="44.27734" lon="3.03467">
        <ele>981.39</ele>
        <time>2016-03-13T14:13:15Z</time>
      </trkpt>
      <trkpt lat="44.27736" lon="3.0347">
        <ele>981.51</ele>
        <time>2016-03-13T14:13:16Z</time>
      </trkpt>
      <trkpt lat="44.27758" lon="3.03518">
        <ele>983.8</ele>
        <time>2016-03-13T14:13:35Z</time>
      </trkpt>
      <trkpt lat="44.27775" lon="3.03563">
        <ele>985.78</ele>
        <time>2016-03-13T14:13:53Z</time>
      </trkpt>
      <trkpt lat="44.27833" lon="3.03588">
        <ele>982.49</ele>
        <time>2016-03-13T14:14:05Z</time>
      </trkpt>
      <trkpt lat="44.27879" lon="3.03599">
        <ele>979.61</ele>
        <time>2016-03-13T14:14:19Z</time>
      </trkpt>
      <trkpt lat="44.2789" lon="3.03602">
        <ele>978.64</ele>
        <time>2016-03-13T14:14:30Z</time>
      </trkpt>
      <trkpt lat="44.27898" lon="3.03605">
        <ele>978.69</ele>
        <time>2016-03-13T14:15:25Z</time>
      </trkpt>
      <trkpt lat="44.27939" lon="3.03638">
        <ele>977.27</ele>
        <time>2016-03-13T14:15:37Z</time>
      </trkpt>
      <trkpt lat="44.27958" lon="3.03648">
        <ele>976.44</ele>
        <time>2016-03-13T14:15:41Z</time>
      </trkpt>
      <trkpt lat="44.28021" lon="3.03647">
        <ele>973.29</ele>
        <time>2016-03-13T14:15:53Z</time>
      </trkpt>
      <trkpt lat="44.28074" lon="3.03634">
        <ele>972.27</ele>
        <time>2016-03-13T14:16:09Z</time>
      </trkpt>
      <trkpt lat="44.28126" lon="3.03641">
        <ele>972.72</ele>
        <time>2016-03-13T14:16:26Z</time>
      </trkpt>
      <trkpt lat="44.28161" lon="3.03674">
        <ele>974.09</ele>
        <time>2016-03-13T14:16:41Z</time>
      </trkpt>
      <trkpt lat="44.28198" lon="3.03728">
        <ele>976.23</ele>
        <time>2016-03-13T14:17:01Z</time>
      </trkpt>
      <trkpt lat="44.28219" lon="3.03769">
        <ele>979.23</ele>
        <time>2016-03-13T14:17:19Z</time>
      </trkpt>
      <trkpt lat="44.28236" lon="3.03791">
        <ele>982.34</ele>
        <time>2016-03-13T14:17:32Z</time>
      </trkpt>
      <trkpt lat="44.28243" lon="3.03797">
        <ele>983.48</ele>
        <time>2016-03-13T14:17:38Z</time>
      </trkpt>
      <trkpt lat="44.28266" lon="3.03803">
        <ele>986.01</ele>
        <time>2016-03-13T14:17:54Z</time>
      </trkpt>
      <trkpt lat="44.28284" lon="3.03808">
        <ele>987.53</ele>
        <time>2016-03-13T14:18:11Z</time>
      </trkpt>
      <trkpt lat="44.28295" lon="3.03815">
        <ele>987.88</ele>
        <time>2016-03-13T14:18:29Z</time>
      </trkpt>
      <trkpt lat="44.28296" lon="3.03815">
        <ele>987.98</ele>
        <time>2016-03-13T14:18:31Z</time>
      </trkpt>
      <trkpt lat="44.28298" lon="3.03808">
        <ele>987.56</ele>
        <time>2016-03-13T14:20:07Z</time>
      </trkpt>
      <trkpt lat="44.28313" lon="3.03811">
        <ele>986.72</ele>
        <time>2016-03-13T14:20:19Z</time>
      </trkpt>
      <trkpt lat="44.28322" lon="3.03815">
        <ele>986.74</ele>
        <time>2016-03-13T14:21:06Z</time>
      </trkpt>
      <trkpt lat="44.28359" lon="3.03814">
        <ele>983.57</ele>
        <time>2016-03-13T14:21:16Z</time>
      </trkpt>
      <trkpt lat="44.28381" lon="3.03804">
        <ele>980.36</ele>
        <time>2016-03-13T14:21:22Z</time>
      </trkpt>
      <trkpt lat="44.28397" lon="3.03794">
        <ele>977.36</ele>
        <time>2016-03-13T14:21:26Z</time>
      </trkpt>
      <trkpt lat="44.284" lon="3.03791">
        <ele>977.36</ele>
        <time>2016-03-13T14:21:27Z</time>
      </trkpt>
      <trkpt lat="44.28417" lon="3.03776">
        <ele>974.28</ele>
        <time>2016-03-13T14:21:31Z</time>
      </trkpt>
      <trkpt lat="44.28437" lon="3.03758">
        <ele>971.17</ele>
        <time>2016-03-13T14:21:36Z</time>
      </trkpt>
      <trkpt lat="44.28467" lon="3.03742">
        <ele>967.81</ele>
        <time>2016-03-13T14:21:42Z</time>
      </trkpt>
      <trkpt lat="44.28494" lon="3.03726">
        <ele>964.16</ele>
        <time>2016-03-13T14:21:47Z</time>
      </trkpt>
      <trkpt lat="44.28511" lon="3.03718">
        <ele>961.61</ele>
        <time>2016-03-13T14:21:50Z</time>
      </trkpt>
      <trkpt lat="44.28516" lon="3.03717">
        <ele>960.68</ele>
        <time>2016-03-13T14:21:51Z</time>
      </trkpt>
      <trkpt lat="44.28521" lon="3.03717">
        <ele>958.88</ele>
        <time>2016-03-13T14:21:52Z</time>
      </trkpt>
      <trkpt lat="44.28526" lon="3.03719">
        <ele>958.02</ele>
        <time>2016-03-13T14:21:53Z</time>
      </trkpt>
      <trkpt lat="44.28531" lon="3.03721">
        <ele>957.25</ele>
        <time>2016-03-13T14:21:54Z</time>
      </trkpt>
      <trkpt lat="44.28537" lon="3.03723">
        <ele>956.57</ele>
        <time>2016-03-13T14:21:55Z</time>
      </trkpt>
      <trkpt lat="44.28547" lon="3.03729">
        <ele>955.31</ele>
        <time>2016-03-13T14:21:57Z</time>
      </trkpt>
      <trkpt lat="44.28552" lon="3.03733">
        <ele>954.67</ele>
        <time>2016-03-13T14:21:58Z</time>
      </trkpt>
      <trkpt lat="44.28556" lon="3.03738">
        <ele>954.03</ele>
        <time>2016-03-13T14:21:59Z</time>
      </trkpt>
      <trkpt lat="44.28568" lon="3.03752">
        <ele>952.23</ele>
        <time>2016-03-13T14:22:02Z</time>
      </trkpt>
      <trkpt lat="44.28572" lon="3.03756">
        <ele>951.7</ele>
        <time>2016-03-13T14:22:03Z</time>
      </trkpt>
      <trkpt lat="44.28576" lon="3.03759">
        <ele>951.18</ele>
        <time>2016-03-13T14:22:04Z</time>
      </trkpt>
      <trkpt lat="44.28607" lon="3.03772">
        <ele>947.64</ele>
        <time>2016-03-13T14:22:10Z</time>
      </trkpt>
      <trkpt lat="44.28633" lon="3.03781">
        <ele>943.92</ele>
        <time>2016-03-13T14:22:15Z</time>
      </trkpt>
      <trkpt lat="44.28648" lon="3.03787">
        <ele>940.83</ele>
        <time>2016-03-13T14:22:18Z</time>
      </trkpt>
      <trkpt lat="44.28658" lon="3.0379">
        <ele>939.25</ele>
        <time>2016-03-13T14:22:20Z</time>
      </trkpt>
      <trkpt lat="44.28663" lon="3.03791">
        <ele>938.51</ele>
        <time>2016-03-13T14:22:21Z</time>
      </trkpt>
      <trkpt lat="44.28668" lon="3.03791">
        <ele>937.89</ele>
        <time>2016-03-13T14:22:22Z</time>
      </trkpt>
      <trkpt lat="44.28703" lon="3.03786">
        <ele>934.46</ele>
        <time>2016-03-13T14:22:28Z</time>
      </trkpt>
      <trkpt lat="44.28708" lon="3.03784">
        <ele>933.97</ele>
        <time>2016-03-13T14:22:29Z</time>
      </trkpt>
      <trkpt lat="44.28744" lon="3.03767">
        <ele>930.57</ele>
        <time>2016-03-13T14:22:35Z</time>
      </trkpt>
      <trkpt lat="44.2878" lon="3.03762">
        <ele>927.33</ele>
        <time>2016-03-13T14:22:40Z</time>
      </trkpt>
      <trkpt lat="44.28806" lon="3.03769">
        <ele>924.2</ele>
        <time>2016-03-13T14:22:43Z</time>
      </trkpt>
      <trkpt lat="44.28826" lon="3.03775">
        <ele>922.43</ele>
        <time>2016-03-13T14:22:45Z</time>
      </trkpt>
      <trkpt lat="44.28836" lon="3.03776">
        <ele>921.52</ele>
        <time>2016-03-13T14:22:46Z</time>
      </trkpt>
      <trkpt lat="44.28847" lon="3.03777">
        <ele>920.64</ele>
        <time>2016-03-13T14:22:47Z</time>
      </trkpt>
      <trkpt lat="44.28884" lon="3.03775">
        <ele>916.83</ele>
        <time>2016-03-13T14:22:51Z</time>
      </trkpt>
      <trkpt lat="44.28909" lon="3.03779">
        <ele>913.64</ele>
        <time>2016-03-13T14:22:54Z</time>
      </trkpt>
      <trkpt lat="44.28916" lon="3.03782">
        <ele>912.69</ele>
        <time>2016-03-13T14:22:55Z</time>
      </trkpt>
      <trkpt lat="44.28923" lon="3.03785">
        <ele>911.8</ele>
        <time>2016-03-13T14:22:56Z</time>
      </trkpt>
      <trkpt lat="44.2893" lon="3.0379">
        <ele>910.97</ele>
        <time>2016-03-13T14:22:57Z</time>
      </trkpt>
      <trkpt lat="44.28937" lon="3.03796">
        <ele>910.24</ele>
        <time>2016-03-13T14:22:58Z</time>
      </trkpt>
      <trkpt lat="44.28944" lon="3.03802">
        <ele>909.62</ele>
        <time>2016-03-13T14:22:59Z</time>
      </trkpt>
      <trkpt lat="44.28981" lon="3.03841">
        <ele>906.43</ele>
        <time>2016-03-13T14:23:06Z</time>
      </trkpt>
      <trkpt lat="44.29003" lon="3.03867">
        <ele>904.92</ele>
        <time>2016-03-13T14:23:12Z</time>
      </trkpt>
      <trkpt lat="44.29005" lon="3.03871">
        <ele>904.83</ele>
        <time>2016-03-13T14:23:13Z</time>
      </trkpt>
      <trkpt lat="44.29007" lon="3.03876">
        <ele>904.75</ele>
        <time>2016-03-13T14:23:14Z</time>
      </trkpt>
      <trkpt lat="44.29009" lon="3.03881">
        <ele>904.73</ele>
        <time>2016-03-13T14:23:15Z</time>
      </trkpt>
      <trkpt lat="44.2901" lon="3.03886">
        <ele>904.71</ele>
        <time>2016-03-13T14:23:16Z</time>
      </trkpt>
      <trkpt lat="44.29025" lon="3.03983">
        <ele>905.39</ele>
        <time>2016-03-13T14:23:35Z</time>
      </trkpt>
      <trkpt lat="44.29053" lon="3.0408">
        <ele>906.98</ele>
        <time>2016-03-13T14:23:56Z</time>
      </trkpt>
      <trkpt lat="44.29103" lon="3.04161">
        <ele>905.75</ele>
        <time>2016-03-13T14:24:16Z</time>
      </trkpt>
      <trkpt lat="44.29134" lon="3.04194">
        <ele>903.91</ele>
        <time>2016-03-13T14:24:26Z</time>
      </trkpt>
      <trkpt lat="44.29138" lon="3.04196">
        <ele>903.79</ele>
        <time>2016-03-13T14:24:27Z</time>
      </trkpt>
      <trkpt lat="44.29173" lon="3.04211">
        <ele>902.41</ele>
        <time>2016-03-13T14:24:34Z</time>
      </trkpt>
      <trkpt lat="44.29179" lon="3.04212">
        <ele>902.13</ele>
        <time>2016-03-13T14:24:35Z</time>
      </trkpt>
      <trkpt lat="44.29186" lon="3.04212">
        <ele>901.83</ele>
        <time>2016-03-13T14:24:36Z</time>
      </trkpt>
      <trkpt lat="44.29193" lon="3.04212">
        <ele>901.48</ele>
        <time>2016-03-13T14:24:37Z</time>
      </trkpt>
      <trkpt lat="44.292" lon="3.0421">
        <ele>901.08</ele>
        <time>2016-03-13T14:24:38Z</time>
      </trkpt>
      <trkpt lat="44.29207" lon="3.04207">
        <ele>900.6</ele>
        <time>2016-03-13T14:24:39Z</time>
      </trkpt>
      <trkpt lat="44.29215" lon="3.04202">
        <ele>900.03</ele>
        <time>2016-03-13T14:24:40Z</time>
      </trkpt>
      <trkpt lat="44.29223" lon="3.04197">
        <ele>899.43</ele>
        <time>2016-03-13T14:24:41Z</time>
      </trkpt>
      <trkpt lat="44.29257" lon="3.0418">
        <ele>896.69</ele>
        <time>2016-03-13T14:24:45Z</time>
      </trkpt>
      <trkpt lat="44.29267" lon="3.04179">
        <ele>895.19</ele>
        <time>2016-03-13T14:24:46Z</time>
      </trkpt>
      <trkpt lat="44.29277" lon="3.04179">
        <ele>894.5</ele>
        <time>2016-03-13T14:24:47Z</time>
      </trkpt>
      <trkpt lat="44.29287" lon="3.04181">
        <ele>893.74</ele>
        <time>2016-03-13T14:24:48Z</time>
      </trkpt>
      <trkpt lat="44.29298" lon="3.04185">
        <ele>892.84</ele>
        <time>2016-03-13T14:24:49Z</time>
      </trkpt>
      <trkpt lat="44.29308" lon="3.0419">
        <ele>891.87</ele>
        <time>2016-03-13T14:24:50Z</time>
      </trkpt>
      <trkpt lat="44.29337" lon="3.04209">
        <ele>888.74</ele>
        <time>2016-03-13T14:24:53Z</time>
      </trkpt>
      <trkpt lat="44.29372" lon="3.04231">
        <ele>885.16</ele>
        <time>2016-03-13T14:24:57Z</time>
      </trkpt>
      <trkpt lat="44.29412" lon="3.04252">
        <ele>881.99</ele>
        <time>2016-03-13T14:25:02Z</time>
      </trkpt>
      <trkpt lat="44.29462" lon="3.04278">
        <ele>878.79</ele>
        <time>2016-03-13T14:25:09Z</time>
      </trkpt>
      <trkpt lat="44.29528" lon="3.04297">
        <ele>875.39</ele>
        <time>2016-03-13T14:25:17Z</time>
      </trkpt>
      <trkpt lat="44.29566" lon="3.04304">
        <ele>872.27</ele>
        <time>2016-03-13T14:25:21Z</time>
      </trkpt>
      <trkpt lat="44.29612" lon="3.04307">
        <ele>868.66</ele>
        <time>2016-03-13T14:25:26Z</time>
      </trkpt>
      <trkpt lat="44.29637" lon="3.04311">
        <ele>866.82</ele>
        <time>2016-03-13T14:25:29Z</time>
      </trkpt>
      <trkpt lat="44.29645" lon="3.04313">
        <ele>866.2</ele>
        <time>2016-03-13T14:25:30Z</time>
      </trkpt>
      <trkpt lat="44.29653" lon="3.04317">
        <ele>865.62</ele>
        <time>2016-03-13T14:25:31Z</time>
      </trkpt>
      <trkpt lat="44.29697" lon="3.04339">
        <ele>862.89</ele>
        <time>2016-03-13T14:25:37Z</time>
      </trkpt>
      <trkpt lat="44.2975" lon="3.04351">
        <ele>861.26</ele>
        <time>2016-03-13T14:25:46Z</time>
      </trkpt>
      <trkpt lat="44.29809" lon="3.04339">
        <ele>860.11</ele>
        <time>2016-03-13T14:25:59Z</time>
      </trkpt>
      <trkpt lat="44.29813" lon="3.04341">
        <ele>860.01</ele>
        <time>2016-03-13T14:26:00Z</time>
      </trkpt>
      <trkpt lat="44.29816" lon="3.04341">
        <ele>859.87</ele>
        <time>2016-03-13T14:26:01Z</time>
      </trkpt>
      <trkpt lat="44.2982" lon="3.04342">
        <ele>859.83</ele>
        <time>2016-03-13T14:26:02Z</time>
      </trkpt>
      <trkpt lat="44.29823" lon="3.04343">
        <ele>859.81</ele>
        <time>2016-03-13T14:26:03Z</time>
      </trkpt>
      <trkpt lat="44.29826" lon="3.04344">
        <ele>859.83</ele>
        <time>2016-03-13T14:26:04Z</time>
      </trkpt>
      <trkpt lat="44.2983" lon="3.04345">
        <ele>859.86</ele>
        <time>2016-03-13T14:26:05Z</time>
      </trkpt>
      <trkpt lat="44.2986" lon="3.04345">
        <ele>861.52</ele>
        <time>2016-03-13T14:26:19Z</time>
      </trkpt>
      <trkpt lat="44.29873" lon="3.0431">
        <ele>864.56</ele>
        <time>2016-03-13T14:26:34Z</time>
      </trkpt>
      <trkpt lat="44.29883" lon="3.04277">
        <ele>867.59</ele>
        <time>2016-03-13T14:26:50Z</time>
      </trkpt>
      <trkpt lat="44.29894" lon="3.04262">
        <ele>869.24</ele>
        <time>2016-03-13T14:27:00Z</time>
      </trkpt>
      <trkpt lat="44.29917" lon="3.04256">
        <ele>872.38</ele>
        <time>2016-03-13T14:27:16Z</time>
      </trkpt>
      <trkpt lat="44.29948" lon="3.04249">
        <ele>875.42</ele>
        <time>2016-03-13T14:27:35Z</time>
      </trkpt>
      <trkpt lat="44.29988" lon="3.04233">
        <ele>877.3</ele>
        <time>2016-03-13T14:27:58Z</time>
      </trkpt>
      <trkpt lat="44.30002" lon="3.04227">
        <ele>877.88</ele>
        <time>2016-03-13T14:28:12Z</time>
      </trkpt>
      <trkpt lat="44.30007" lon="3.0423">
        <ele>877.54</ele>
        <time>2016-03-13T14:28:46Z</time>
      </trkpt>
      <trkpt lat="44.30048" lon="3.04255">
        <ele>876.63</ele>
        <time>2016-03-13T14:29:08Z</time>
      </trkpt>
      <trkpt lat="44.3006" lon="3.04267">
        <ele>874.5</ele>
        <time>2016-03-13T14:29:19Z</time>
      </trkpt>
      <trkpt lat="44.30066" lon="3.04276">
        <ele>874.64</ele>
        <time>2016-03-13T14:29:48Z</time>
      </trkpt>
      <trkpt lat="44.30105" lon="3.0431">
        <ele>871.33</ele>
        <time>2016-03-13T14:30:00Z</time>
      </trkpt>
      <trkpt lat="44.30141" lon="3.04339">
        <ele>868.07</ele>
        <time>2016-03-13T14:30:09Z</time>
      </trkpt>
      <trkpt lat="44.30167" lon="3.04361">
        <ele>865.38</ele>
        <time>2016-03-13T14:30:15Z</time>
      </trkpt>
      <trkpt lat="44.30188" lon="3.04381">
        <ele>862.14</ele>
        <time>2016-03-13T14:30:20Z</time>
      </trkpt>
      <trkpt lat="44.30215" lon="3.0441">
        <ele>858.88</ele>
        <time>2016-03-13T14:30:26Z</time>
      </trkpt>
      <trkpt lat="44.30237" lon="3.04434">
        <ele>855.41</ele>
        <time>2016-03-13T14:30:31Z</time>
      </trkpt>
      <trkpt lat="44.30258" lon="3.04454">
        <ele>852.35</ele>
        <time>2016-03-13T14:30:36Z</time>
      </trkpt>
      <trkpt lat="44.30285" lon="3.04467">
        <ele>849.24</ele>
        <time>2016-03-13T14:30:41Z</time>
      </trkpt>
      <trkpt lat="44.30312" lon="3.04471">
        <ele>847.13</ele>
        <time>2016-03-13T14:30:45Z</time>
      </trkpt>
      <trkpt lat="44.3032" lon="3.0447">
        <ele>846.67</ele>
        <time>2016-03-13T14:30:46Z</time>
      </trkpt>
      <trkpt lat="44.30372" lon="3.04454">
        <ele>843.4</ele>
        <time>2016-03-13T14:30:53Z</time>
      </trkpt>
      <trkpt lat="44.30431" lon="3.04433">
        <ele>840.9</ele>
        <time>2016-03-13T14:31:06Z</time>
      </trkpt>
      <trkpt lat="44.30467" lon="3.04412">
        <ele>842.51</ele>
        <time>2016-03-13T14:31:22Z</time>
      </trkpt>
      <trkpt lat="44.30514" lon="3.04358">
        <ele>843.82</ele>
        <time>2016-03-13T14:31:42Z</time>
      </trkpt>
      <trkpt lat="44.30543" lon="3.04309">
        <ele>845.67</ele>
        <time>2016-03-13T14:31:59Z</time>
      </trkpt>
      <trkpt lat="44.30562" lon="3.04255">
        <ele>848.46</ele>
        <time>2016-03-13T14:32:16Z</time>
      </trkpt>
      <trkpt lat="44.30593" lon="3.04193">
        <ele>849.13</ele>
        <time>2016-03-13T14:32:34Z</time>
      </trkpt>
      <trkpt lat="44.30634" lon="3.04119">
        <ele>846.37</ele>
        <time>2016-03-13T14:32:53Z</time>
      </trkpt>
      <trkpt lat="44.30624" lon="3.04065">
        <ele>843.11</ele>
        <time>2016-03-13T14:33:05Z</time>
      </trkpt>
      <trkpt lat="44.30598" lon="3.04019">
        <ele>839.95</ele>
        <time>2016-03-13T14:33:15Z</time>
      </trkpt>
      <trkpt lat="44.30591" lon="3.04009">
        <ele>839.2</ele>
        <time>2016-03-13T14:33:17Z</time>
      </trkpt>
      <trkpt lat="44.30587" lon="3.04005">
        <ele>838.33</ele>
        <time>2016-03-13T14:33:18Z</time>
      </trkpt>
      <trkpt lat="44.3056" lon="3.0397">
        <ele>835.33</ele>
        <time>2016-03-13T14:33:26Z</time>
      </trkpt>
      <trkpt lat="44.3054" lon="3.0394">
        <ele>832.26</ele>
        <time>2016-03-13T14:33:33Z</time>
      </trkpt>
      <trkpt lat="44.30535" lon="3.03923">
        <ele>829.07</ele>
        <time>2016-03-13T14:33:42Z</time>
      </trkpt>
      <trkpt lat="44.30539" lon="3.03917">
        <ele>829.05</ele>
        <time>2016-03-13T14:33:54Z</time>
      </trkpt>
      <trkpt lat="44.30541" lon="3.03914">
        <ele>829.05</ele>
        <time>2016-03-13T14:33:55Z</time>
      </trkpt>
      <trkpt lat="44.30544" lon="3.0391">
        <ele>829.05</ele>
        <time>2016-03-13T14:33:56Z</time>
      </trkpt>
      <trkpt lat="44.30547" lon="3.03906">
        <ele>829</ele>
        <time>2016-03-13T14:33:57Z</time>
      </trkpt>
      <trkpt lat="44.30574" lon="3.03883">
        <ele>826.6</ele>
        <time>2016-03-13T14:34:09Z</time>
      </trkpt>
      <trkpt lat="44.30617" lon="3.03885">
        <ele>824.05</ele>
        <time>2016-03-13T14:34:20Z</time>
      </trkpt>
      <trkpt lat="44.30621" lon="3.03885">
        <ele>823.63</ele>
        <time>2016-03-13T14:34:21Z</time>
      </trkpt>
      <trkpt lat="44.3065" lon="3.03883">
        <ele>820.58</ele>
        <time>2016-03-13T14:34:27Z</time>
      </trkpt>
      <trkpt lat="44.3066" lon="3.03881">
        <ele>819.44</ele>
        <time>2016-03-13T14:34:29Z</time>
      </trkpt>
      <trkpt lat="44.30665" lon="3.03878">
        <ele>818.82</ele>
        <time>2016-03-13T14:34:30Z</time>
      </trkpt>
      <trkpt lat="44.30669" lon="3.03875">
        <ele>817.54</ele>
        <time>2016-03-13T14:34:31Z</time>
      </trkpt>
      <trkpt lat="44.30674" lon="3.03871">
        <ele>816.96</ele>
        <time>2016-03-13T14:34:32Z</time>
      </trkpt>
      <trkpt lat="44.30678" lon="3.03867">
        <ele>816.47</ele>
        <time>2016-03-13T14:34:33Z</time>
      </trkpt>
      <trkpt lat="44.30682" lon="3.03862">
        <ele>815.99</ele>
        <time>2016-03-13T14:34:34Z</time>
      </trkpt>
      <trkpt lat="44.30685" lon="3.03857">
        <ele>815.49</ele>
        <time>2016-03-13T14:34:35Z</time>
      </trkpt>
      <trkpt lat="44.30688" lon="3.03851">
        <ele>814.97</ele>
        <time>2016-03-13T14:34:36Z</time>
      </trkpt>
      <trkpt lat="44.30691" lon="3.03845">
        <ele>814.42</ele>
        <time>2016-03-13T14:34:37Z</time>
      </trkpt>
      <trkpt lat="44.30695" lon="3.03834">
        <ele>813.41</ele>
        <time>2016-03-13T14:34:39Z</time>
      </trkpt>
      <trkpt lat="44.30702" lon="3.03801">
        <ele>810.39</ele>
        <time>2016-03-13T14:34:45Z</time>
      </trkpt>
      <trkpt lat="44.30704" lon="3.03798">
        <ele>809.94</ele>
        <time>2016-03-13T14:34:46Z</time>
      </trkpt>
      <trkpt lat="44.30706" lon="3.03796">
        <ele>809.54</ele>
        <time>2016-03-13T14:34:47Z</time>
      </trkpt>
      <trkpt lat="44.30709" lon="3.03795">
        <ele>809.21</ele>
        <time>2016-03-13T14:34:48Z</time>
      </trkpt>
      <trkpt lat="44.30713" lon="3.03796">
        <ele>808.9</ele>
        <time>2016-03-13T14:34:49Z</time>
      </trkpt>
      <trkpt lat="44.30715" lon="3.03798">
        <ele>808.6</ele>
        <time>2016-03-13T14:34:50Z</time>
      </trkpt>
      <trkpt lat="44.30716" lon="3.03801">
        <ele>808.3</ele>
        <time>2016-03-13T14:34:51Z</time>
      </trkpt>
      <trkpt lat="44.30716" lon="3.03804">
        <ele>808</ele>
        <time>2016-03-13T14:34:52Z</time>
      </trkpt>
      <trkpt lat="44.30715" lon="3.03807">
        <ele>807.71</ele>
        <time>2016-03-13T14:34:53Z</time>
      </trkpt>
      <trkpt lat="44.30715" lon="3.03811">
        <ele>807.36</ele>
        <time>2016-03-13T14:34:54Z</time>
      </trkpt>
      <trkpt lat="44.30716" lon="3.03816">
        <ele>806.58</ele>
        <time>2016-03-13T14:34:55Z</time>
      </trkpt>
      <trkpt lat="44.30717" lon="3.03822">
        <ele>806.19</ele>
        <time>2016-03-13T14:34:56Z</time>
      </trkpt>
      <trkpt lat="44.30718" lon="3.03828">
        <ele>805.79</ele>
        <time>2016-03-13T14:34:57Z</time>
      </trkpt>
      <trkpt lat="44.30722" lon="3.03847">
        <ele>804.42</ele>
        <time>2016-03-13T14:35:00Z</time>
      </trkpt>
      <trkpt lat="44.30722" lon="3.03854">
        <ele>803.97</ele>
        <time>2016-03-13T14:35:01Z</time>
      </trkpt>
      <trkpt lat="44.30722" lon="3.03862">
        <ele>803.54</ele>
        <time>2016-03-13T14:35:02Z</time>
      </trkpt>
      <trkpt lat="44.30717" lon="3.03897">
        <ele>801.04</ele>
        <time>2016-03-13T14:35:07Z</time>
      </trkpt>
      <trkpt lat="44.30718" lon="3.03903">
        <ele>800.46</ele>
        <time>2016-03-13T14:35:08Z</time>
      </trkpt>
      <trkpt lat="44.30719" lon="3.03908">
        <ele>799.85</ele>
        <time>2016-03-13T14:35:09Z</time>
      </trkpt>
      <trkpt lat="44.30722" lon="3.03913">
        <ele>799.25</ele>
        <time>2016-03-13T14:35:10Z</time>
      </trkpt>
      <trkpt lat="44.30725" lon="3.03917">
        <ele>798.68</ele>
        <time>2016-03-13T14:35:11Z</time>
      </trkpt>
      <trkpt lat="44.30729" lon="3.03921">
        <ele>798.12</ele>
        <time>2016-03-13T14:35:12Z</time>
      </trkpt>
      <trkpt lat="44.30733" lon="3.03922">
        <ele>797.55</ele>
        <time>2016-03-13T14:35:13Z</time>
      </trkpt>
      <trkpt lat="44.30737" lon="3.03924">
        <ele>796.97</ele>
        <time>2016-03-13T14:35:14Z</time>
      </trkpt>
      <trkpt lat="44.30754" lon="3.03927">
        <ele>794.58</ele>
        <time>2016-03-13T14:35:18Z</time>
      </trkpt>
      <trkpt lat="44.30771" lon="3.03934">
        <ele>791.14</ele>
        <time>2016-03-13T14:35:23Z</time>
      </trkpt>
      <trkpt lat="44.30784" lon="3.03944">
        <ele>789.03</ele>
        <time>2016-03-13T14:35:27Z</time>
      </trkpt>
      <trkpt lat="44.30808" lon="3.03974">
        <ele>786.08</ele>
        <time>2016-03-13T14:35:33Z</time>
      </trkpt>
      <trkpt lat="44.30812" lon="3.03979">
        <ele>785.56</ele>
        <time>2016-03-13T14:35:34Z</time>
      </trkpt>
      <trkpt lat="44.30819" lon="3.0399">
        <ele>784.44</ele>
        <time>2016-03-13T14:35:36Z</time>
      </trkpt>
      <trkpt lat="44.30825" lon="3.04">
        <ele>783.35</ele>
        <time>2016-03-13T14:35:38Z</time>
      </trkpt>
      <trkpt lat="44.30827" lon="3.04006">
        <ele>782.79</ele>
        <time>2016-03-13T14:35:39Z</time>
      </trkpt>
      <trkpt lat="44.30829" lon="3.04012">
        <ele>782.23</ele>
        <time>2016-03-13T14:35:40Z</time>
      </trkpt>
      <trkpt lat="44.30831" lon="3.04017">
        <ele>781.68</ele>
        <time>2016-03-13T14:35:41Z</time>
      </trkpt>
      <trkpt lat="44.30832" lon="3.04023">
        <ele>781.11</ele>
        <time>2016-03-13T14:35:42Z</time>
      </trkpt>
      <trkpt lat="44.30837" lon="3.04034">
        <ele>779.32</ele>
        <time>2016-03-13T14:35:44Z</time>
      </trkpt>
      <trkpt lat="44.30841" lon="3.0404">
        <ele>778.69</ele>
        <time>2016-03-13T14:35:45Z</time>
      </trkpt>
      <trkpt lat="44.30851" lon="3.04056">
        <ele>776.88</ele>
        <time>2016-03-13T14:35:48Z</time>
      </trkpt>
      <trkpt lat="44.30855" lon="3.04061">
        <ele>776.28</ele>
        <time>2016-03-13T14:35:49Z</time>
      </trkpt>
      <trkpt lat="44.30858" lon="3.04066">
        <ele>775.72</ele>
        <time>2016-03-13T14:35:50Z</time>
      </trkpt>
      <trkpt lat="44.30861" lon="3.0407">
        <ele>775.18</ele>
        <time>2016-03-13T14:35:51Z</time>
      </trkpt>
      <trkpt lat="44.30862" lon="3.04075">
        <ele>774.64</ele>
        <time>2016-03-13T14:35:52Z</time>
      </trkpt>
      <trkpt lat="44.30865" lon="3.04079">
        <ele>774.12</ele>
        <time>2016-03-13T14:35:53Z</time>
      </trkpt>
      <trkpt lat="44.30879" lon="3.04104">
        <ele>770.94</ele>
        <time>2016-03-13T14:36:00Z</time>
      </trkpt>
      <trkpt lat="44.30895" lon="3.04131">
        <ele>767.77</ele>
        <time>2016-03-13T14:36:08Z</time>
      </trkpt>
      <trkpt lat="44.30909" lon="3.04162">
        <ele>764.67</ele>
        <time>2016-03-13T14:36:18Z</time>
      </trkpt>
      <trkpt lat="44.30924" lon="3.04198">
        <ele>761.67</ele>
        <time>2016-03-13T14:36:28Z</time>
      </trkpt>
      <trkpt lat="44.3094" lon="3.04239">
        <ele>758.39</ele>
        <time>2016-03-13T14:36:38Z</time>
      </trkpt>
      <trkpt lat="44.30957" lon="3.04284">
        <ele>755.15</ele>
        <time>2016-03-13T14:36:48Z</time>
      </trkpt>
      <trkpt lat="44.30967" lon="3.04316">
        <ele>752.08</ele>
        <time>2016-03-13T14:36:56Z</time>
      </trkpt>
      <trkpt lat="44.30977" lon="3.04356">
        <ele>749.04</ele>
        <time>2016-03-13T14:37:05Z</time>
      </trkpt>
      <trkpt lat="44.30985" lon="3.04391">
        <ele>747.12</ele>
        <time>2016-03-13T14:37:12Z</time>
      </trkpt>
      <trkpt lat="44.30987" lon="3.04403">
        <ele>746.59</ele>
        <time>2016-03-13T14:37:14Z</time>
      </trkpt>
      <trkpt lat="44.30989" lon="3.04409">
        <ele>746.35</ele>
        <time>2016-03-13T14:37:15Z</time>
      </trkpt>
      <trkpt lat="44.30996" lon="3.04481">
        <ele>743.15</ele>
        <time>2016-03-13T14:37:26Z</time>
      </trkpt>
      <trkpt lat="44.31001" lon="3.04552">
        <ele>740.73</ele>
        <time>2016-03-13T14:37:35Z</time>
      </trkpt>
      <trkpt lat="44.30997" lon="3.04584">
        <ele>739.45</ele>
        <time>2016-03-13T14:37:39Z</time>
      </trkpt>
      <trkpt lat="44.30995" lon="3.04592">
        <ele>739.16</ele>
        <time>2016-03-13T14:37:40Z</time>
      </trkpt>
      <trkpt lat="44.30993" lon="3.04599">
        <ele>738.9</ele>
        <time>2016-03-13T14:37:41Z</time>
      </trkpt>
      <trkpt lat="44.30991" lon="3.04606">
        <ele>738.65</ele>
        <time>2016-03-13T14:37:42Z</time>
      </trkpt>
      <trkpt lat="44.30989" lon="3.04613">
        <ele>738.42</ele>
        <time>2016-03-13T14:37:43Z</time>
      </trkpt>
      <trkpt lat="44.30986" lon="3.04619">
        <ele>738.16</ele>
        <time>2016-03-13T14:37:44Z</time>
      </trkpt>
      <trkpt lat="44.30979" lon="3.04643">
        <ele>737.19</ele>
        <time>2016-03-13T14:37:53Z</time>
      </trkpt>
      <trkpt lat="44.30981" lon="3.04674">
        <ele>737.14</ele>
        <time>2016-03-13T14:38:00Z</time>
      </trkpt>
      <trkpt lat="44.30983" lon="3.0468">
        <ele>737.1</ele>
        <time>2016-03-13T14:38:01Z</time>
      </trkpt>
      <trkpt lat="44.30985" lon="3.04685">
        <ele>737.04</ele>
        <time>2016-03-13T14:38:02Z</time>
      </trkpt>
      <trkpt lat="44.30989" lon="3.04691">
        <ele>736.93</ele>
        <time>2016-03-13T14:38:03Z</time>
      </trkpt>
      <trkpt lat="44.30994" lon="3.04695">
        <ele>736.79</ele>
        <time>2016-03-13T14:38:04Z</time>
      </trkpt>
      <trkpt lat="44.30999" lon="3.04699">
        <ele>736.61</ele>
        <time>2016-03-13T14:38:05Z</time>
      </trkpt>
      <trkpt lat="44.31004" lon="3.04703">
        <ele>736.38</ele>
        <time>2016-03-13T14:38:06Z</time>
      </trkpt>
      <trkpt lat="44.31009" lon="3.04705">
        <ele>736.09</ele>
        <time>2016-03-13T14:38:07Z</time>
      </trkpt>
      <trkpt lat="44.31015" lon="3.04707">
        <ele>735.72</ele>
        <time>2016-03-13T14:38:08Z</time>
      </trkpt>
      <trkpt lat="44.31021" lon="3.04708">
        <ele>735.31</ele>
        <time>2016-03-13T14:38:09Z</time>
      </trkpt>
      <trkpt lat="44.31028" lon="3.04709">
        <ele>734.86</ele>
        <time>2016-03-13T14:38:10Z</time>
      </trkpt>
      <trkpt lat="44.31034" lon="3.04708">
        <ele>734.38</ele>
        <time>2016-03-13T14:38:11Z</time>
      </trkpt>
      <trkpt lat="44.3104" lon="3.04708">
        <ele>733.88</ele>
        <time>2016-03-13T14:38:12Z</time>
      </trkpt>
      <trkpt lat="44.31051" lon="3.04705">
        <ele>732.3</ele>
        <time>2016-03-13T14:38:14Z</time>
      </trkpt>
      <trkpt lat="44.31082" lon="3.04695">
        <ele>728.87</ele>
        <time>2016-03-13T14:38:20Z</time>
      </trkpt>
      <trkpt lat="44.31115" lon="3.04689">
        <ele>725.34</ele>
        <time>2016-03-13T14:38:26Z</time>
      </trkpt>
      <trkpt lat="44.31148" lon="3.04684">
        <ele>721.85</ele>
        <time>2016-03-13T14:38:32Z</time>
      </trkpt>
      <trkpt lat="44.31179" lon="3.04679">
        <ele>718.26</ele>
        <time>2016-03-13T14:38:38Z</time>
      </trkpt>
      <trkpt lat="44.31216" lon="3.04681">
        <ele>715.14</ele>
        <time>2016-03-13T14:38:45Z</time>
      </trkpt>
      <trkpt lat="44.3126" lon="3.04695">
        <ele>712.12</ele>
        <time>2016-03-13T14:38:54Z</time>
      </trkpt>
      <trkpt lat="44.31297" lon="3.04712">
        <ele>708.78</ele>
        <time>2016-03-13T14:39:03Z</time>
      </trkpt>
      <trkpt lat="44.31307" lon="3.04715">
        <ele>706.46</ele>
        <time>2016-03-13T14:39:11Z</time>
      </trkpt>
      <trkpt lat="44.31312" lon="3.04719">
        <ele>705.95</ele>
        <time>2016-03-13T14:39:27Z</time>
      </trkpt>
      <trkpt lat="44.31345" lon="3.04745">
        <ele>704.29</ele>
        <time>2016-03-13T14:39:38Z</time>
      </trkpt>
      <trkpt lat="44.31383" lon="3.04798">
        <ele>700.83</ele>
        <time>2016-03-13T14:39:50Z</time>
      </trkpt>
      <trkpt lat="44.31402" lon="3.04845">
        <ele>698.71</ele>
        <time>2016-03-13T14:40:04Z</time>
      </trkpt>
      <trkpt lat="44.31416" lon="3.04899">
        <ele>697.53</ele>
        <time>2016-03-13T14:40:23Z</time>
      </trkpt>
      <trkpt lat="44.31455" lon="3.04995">
        <ele>696.83</ele>
        <time>2016-03-13T14:40:45Z</time>
      </trkpt>
      <trkpt lat="44.31487" lon="3.05097">
        <ele>695.04</ele>
        <time>2016-03-13T14:41:05Z</time>
      </trkpt>
      <trkpt lat="44.31511" lon="3.05164">
        <ele>691.7</ele>
        <time>2016-03-13T14:41:12Z</time>
      </trkpt>
      <trkpt lat="44.31539" lon="3.05236">
        <ele>688.52</ele>
        <time>2016-03-13T14:41:19Z</time>
      </trkpt>
      <trkpt lat="44.31566" lon="3.05308">
        <ele>685.32</ele>
        <time>2016-03-13T14:41:26Z</time>
      </trkpt>
      <trkpt lat="44.3159" lon="3.05373">
        <ele>682.11</ele>
        <time>2016-03-13T14:41:33Z</time>
      </trkpt>
      <trkpt lat="44.31625" lon="3.05474">
        <ele>678.96</ele>
        <time>2016-03-13T14:41:47Z</time>
      </trkpt>
      <trkpt lat="44.31652" lon="3.05571">
        <ele>677.22</ele>
        <time>2016-03-13T14:42:04Z</time>
      </trkpt>
      <trkpt lat="44.31656" lon="3.0559">
        <ele>676.92</ele>
        <time>2016-03-13T14:42:07Z</time>
      </trkpt>
      <trkpt lat="44.31674" lon="3.05714">
        <ele>675.78</ele>
        <time>2016-03-13T14:42:25Z</time>
      </trkpt>
      <trkpt lat="44.31675" lon="3.05721">
        <ele>675.75</ele>
        <time>2016-03-13T14:42:26Z</time>
      </trkpt>
      <trkpt lat="44.3168" lon="3.05846">
        <ele>675.85</ele>
        <time>2016-03-13T14:42:45Z</time>
      </trkpt>
      <trkpt lat="44.31651" lon="3.05951">
        <ele>675.7</ele>
        <time>2016-03-13T14:43:04Z</time>
      </trkpt>
      <trkpt lat="44.31608" lon="3.06041">
        <ele>676.12</ele>
        <time>2016-03-13T14:43:23Z</time>
      </trkpt>
      <trkpt lat="44.31549" lon="3.06098">
        <ele>677.11</ele>
        <time>2016-03-13T14:43:42Z</time>
      </trkpt>
      <trkpt lat="44.31465" lon="3.06139">
        <ele>678.36</ele>
        <time>2016-03-13T14:44:05Z</time>
      </trkpt>
      <trkpt lat="44.31448" lon="3.06158">
        <ele>679.12</ele>
        <time>2016-03-13T14:44:14Z</time>
      </trkpt>
      <trkpt lat="44.31448" lon="3.06161">
        <ele>679.18</ele>
        <time>2016-03-13T14:44:15Z</time>
      </trkpt>
      <trkpt lat="44.3147" lon="3.06211">
        <ele>679.87</ele>
        <time>2016-03-13T14:44:33Z</time>
      </trkpt>
      <trkpt lat="44.31505" lon="3.06279">
        <ele>679.45</ele>
        <time>2016-03-13T14:44:52Z</time>
      </trkpt>
      <trkpt lat="44.31513" lon="3.06297">
        <ele>679.66</ele>
        <time>2016-03-13T14:44:57Z</time>
      </trkpt>
      <trkpt lat="44.31518" lon="3.06306">
        <ele>679.64</ele>
        <time>2016-03-13T14:44:59Z</time>
      </trkpt>
      <trkpt lat="44.31521" lon="3.06311">
        <ele>679.57</ele>
        <time>2016-03-13T14:45:00Z</time>
      </trkpt>
      <trkpt lat="44.31523" lon="3.06315">
        <ele>679.48</ele>
        <time>2016-03-13T14:45:01Z</time>
      </trkpt>
      <trkpt lat="44.31549" lon="3.06353">
        <ele>678.78</ele>
        <time>2016-03-13T14:45:10Z</time>
      </trkpt>
      <trkpt lat="44.31609" lon="3.06388">
        <ele>678.8</ele>
        <time>2016-03-13T14:45:27Z</time>
      </trkpt>
      <trkpt lat="44.31665" lon="3.06379">
        <ele>678.88</ele>
        <time>2016-03-13T14:45:43Z</time>
      </trkpt>
      <trkpt lat="44.31689" lon="3.06337">
        <ele>679.83</ele>
        <time>2016-03-13T14:45:56Z</time>
      </trkpt>
      <trkpt lat="44.31709" lon="3.06294">
        <ele>678.92</ele>
        <time>2016-03-13T14:46:04Z</time>
      </trkpt>
      <trkpt lat="44.31711" lon="3.06289">
        <ele>678.82</ele>
        <time>2016-03-13T14:46:05Z</time>
      </trkpt>
      <trkpt lat="44.31714" lon="3.06277">
        <ele>678.59</ele>
        <time>2016-03-13T14:46:07Z</time>
      </trkpt>
      <trkpt lat="44.31745" lon="3.06218">
        <ele>677.15</ele>
        <time>2016-03-13T14:46:20Z</time>
      </trkpt>
      <trkpt lat="44.31781" lon="3.06145">
        <ele>677.16</ele>
        <time>2016-03-13T14:46:37Z</time>
      </trkpt>
      <trkpt lat="44.31832" lon="3.06087">
        <ele>677</ele>
        <time>2016-03-13T14:46:54Z</time>
      </trkpt>
      <trkpt lat="44.31884" lon="3.06032">
        <ele>676.81</ele>
        <time>2016-03-13T14:47:11Z</time>
      </trkpt>
      <trkpt lat="44.31951" lon="3.0599">
        <ele>676.89</ele>
        <time>2016-03-13T14:47:30Z</time>
      </trkpt>
      <trkpt lat="44.31995" lon="3.05931">
        <ele>678.46</ele>
        <time>2016-03-13T14:47:47Z</time>
      </trkpt>
      <trkpt lat="44.32007" lon="3.05918">
        <ele>678.37</ele>
        <time>2016-03-13T14:47:51Z</time>
      </trkpt>
      <trkpt lat="44.32019" lon="3.05903">
        <ele>678.34</ele>
        <time>2016-03-13T14:47:55Z</time>
      </trkpt>
      <trkpt lat="44.32023" lon="3.05899">
        <ele>678.22</ele>
        <time>2016-03-13T14:47:56Z</time>
      </trkpt>
      <trkpt lat="44.3204" lon="3.05882">
        <ele>677.78</ele>
        <time>2016-03-13T14:48:01Z</time>
      </trkpt>
      <trkpt lat="44.32043" lon="3.05879">
        <ele>677.72</ele>
        <time>2016-03-13T14:48:02Z</time>
      </trkpt>
      <trkpt lat="44.32046" lon="3.05875">
        <ele>677.68</ele>
        <time>2016-03-13T14:48:03Z</time>
      </trkpt>
      <trkpt lat="44.321" lon="3.05847">
        <ele>678.74</ele>
        <time>2016-03-13T14:48:19Z</time>
      </trkpt>
      <trkpt lat="44.32155" lon="3.05851">
        <ele>679.26</ele>
        <time>2016-03-13T14:48:34Z</time>
      </trkpt>
      <trkpt lat="44.32205" lon="3.05848">
        <ele>679.45</ele>
        <time>2016-03-13T14:48:47Z</time>
      </trkpt>
      <trkpt lat="44.32267" lon="3.05846">
        <ele>679.41</ele>
        <time>2016-03-13T14:49:05Z</time>
      </trkpt>
      <trkpt lat="44.32328" lon="3.05835">
        <ele>679.02</ele>
        <time>2016-03-13T14:49:22Z</time>
      </trkpt>
      <trkpt lat="44.32357" lon="3.05826">
        <ele>678.39</ele>
        <time>2016-03-13T14:49:29Z</time>
      </trkpt>
      <trkpt lat="44.32361" lon="3.05822">
        <ele>678.22</ele>
        <time>2016-03-13T14:49:30Z</time>
      </trkpt>
      <trkpt lat="44.32372" lon="3.05808">
        <ele>677.38</ele>
        <time>2016-03-13T14:49:33Z</time>
      </trkpt>
      <trkpt lat="44.32376" lon="3.05805">
        <ele>677.15</ele>
        <time>2016-03-13T14:49:34Z</time>
      </trkpt>
      <trkpt lat="44.3238" lon="3.05803">
        <ele>676.92</ele>
        <time>2016-03-13T14:49:35Z</time>
      </trkpt>
      <trkpt lat="44.32384" lon="3.05802">
        <ele>676.69</ele>
        <time>2016-03-13T14:49:36Z</time>
      </trkpt>
      <trkpt lat="44.32388" lon="3.05803">
        <ele>676.47</ele>
        <time>2016-03-13T14:49:37Z</time>
      </trkpt>
      <trkpt lat="44.32391" lon="3.05804">
        <ele>676.26</ele>
        <time>2016-03-13T14:49:38Z</time>
      </trkpt>
      <trkpt lat="44.32395" lon="3.05805">
        <ele>676.06</ele>
        <time>2016-03-13T14:49:39Z</time>
      </trkpt>
      <trkpt lat="44.32399" lon="3.05804">
        <ele>675.87</ele>
        <time>2016-03-13T14:49:40Z</time>
      </trkpt>
      <trkpt lat="44.32403" lon="3.05801">
        <ele>675.71</ele>
        <time>2016-03-13T14:49:41Z</time>
      </trkpt>
      <trkpt lat="44.32406" lon="3.05798">
        <ele>675.55</ele>
        <time>2016-03-13T14:49:42Z</time>
      </trkpt>
      <trkpt lat="44.32411" lon="3.05794">
        <ele>675.39</ele>
        <time>2016-03-13T14:49:43Z</time>
      </trkpt>
      <trkpt lat="44.32415" lon="3.05792">
        <ele>675.24</ele>
        <time>2016-03-13T14:49:44Z</time>
      </trkpt>
      <trkpt lat="44.3242" lon="3.05789">
        <ele>675.07</ele>
        <time>2016-03-13T14:49:45Z</time>
      </trkpt>
      <trkpt lat="44.32479" lon="3.05755">
        <ele>672.89</ele>
        <time>2016-03-13T14:49:59Z</time>
      </trkpt>
      <trkpt lat="44.32496" lon="3.05744">
        <ele>672.4</ele>
        <time>2016-03-13T14:50:08Z</time>
      </trkpt>
      <trkpt lat="44.32497" lon="3.05742">
        <ele>672.35</ele>
        <time>2016-03-13T14:50:09Z</time>
      </trkpt>
      <trkpt lat="44.32498" lon="3.0574">
        <ele>672.3</ele>
        <time>2016-03-13T14:50:10Z</time>
      </trkpt>
      <trkpt lat="44.32505" lon="3.05721">
        <ele>672.44</ele>
        <time>2016-03-13T14:50:23Z</time>
      </trkpt>
    </trkseg>
  </trk>
</gpx>